[[[{"header":{"parameterUnit":"kt","parameterCategory":2,"dx":1,"dy":1,"la1":29.587661999999998,"la2":31.0,"lo1":-88.76705300000003,"lo2":-86.6583820000003,"nx":115,"ny":88,"refTime":"2022-09-26T06:00:00:Z","depth":0,"parameterNumber":1,"parameterNumberName":"U-component_of_WINDS"},"data":[14.9642,14.9642,14.9642,14.9642,14.9642,14.9642,14.9642,14.9674,14.9802,14.9866,15.0152,15.0693,15.1537,15.216,15.2315,15.2994,15.403,15.3538,15.3576,15.3175,15.1432,15.0488,14.967,14.8986,15.0063,14.9604,14.8689,14.8289,14.8918,14.8176,14.7561,14.7592,14.7561,14.6743,14.5638,14.5338,14.5159,14.462,14.462,14.4591,14.4082,14.3424,14.2078,14.1898,14.1898,14.1898,14.1898,14.1898,14.1898,14.1898,14.2078,14.2616,14.3155,14.3514,14.3842,14.4321,14.5039,14.5338,14.5697,14.6116,14.6475,14.6415,14.6415,14.6296,14.6296,14.6236,14.5638,14.5638,14.5039,14.486,14.48,14.468,14.462,14.462,14.4651,14.4651,14.486,14.5099,14.5338,14.5518,14.5757,14.6176,14.6236,14.6236,14.6296,14.6535,14.7162,14.7222,14.7401,14.8119,14.8777,14.8717,14.8657,14.9076,14.8957,14.8478,14.8358,14.776,14.7281,14.7193,14.6715,14.5817,14.5429,14.5338,14.5039,14.462,14.4113,14.3514,14.3095,14.2825,14.2197,14.1898,14.1958,14.2078,14.2197,14.9642,14.9642,14.9642,14.9642,14.9642,14.9642,14.9674,14.977,15.0279,15.0472,15.0698,15.2441,15.33,15.391,15.4577,15.5088,15.5136,15.4506,15.3731,15.2936,15.1086,15.0412,14.9784,14.9139,14.9173,14.8677,14.8206,14.8481,14.857,14.7715,14.7073,14.68,14.6191,14.5398,14.4531,14.3993,14.3753,14.3155,14.2975,14.2676,14.2407,14.1988,14.2018,14.1928,14.1898,14.1898,14.1898,14.1898,14.1898,14.1898,14.1958,14.2197,14.2377,14.2497,14.2706,14.2945,14.3694,14.3962,14.4261,14.48,14.5219,14.5578,14.5817,14.5817,14.5726,14.5219,14.4232,14.3634,14.2856,14.2556,14.2556,14.2497,14.2497,14.2497,14.2497,14.2497,14.2975,14.3454,14.3723,14.4082,14.474,14.5578,14.5697,14.5757,14.5817,14.5877,14.5997,14.5997,14.6236,14.6863,14.7281,14.7281,14.7102,14.6834,14.6595,14.6535,14.6715,14.6236,14.5997,14.5937,14.5638,14.4711,14.4113,14.3993,14.3574,14.3035,14.2556,14.2556,14.2377,14.2197,14.1898,14.1898,14.1898,14.1898,14.1898,14.9642,14.9642,14.9642,14.9642,14.9642,14.9642,14.9897,15.0247,15.0503,15.0803,15.1434,15.3268,15.4696,15.5471,15.5798,15.602,15.5833,15.5296,15.4468,15.3261,15.1807,15.0885,15.0288,14.9931,14.9332,14.9626,14.9456,14.8716,14.8389,14.7571,14.6692,14.6177,14.554,14.4633,14.3461,14.2888,14.2437,14.2018,14.2018,14.244,14.3069,14.271,14.241,14.226,14.214,14.1898,14.1898,14.1898,14.1898,14.1898,14.1898,14.1898,14.1898,14.1898,14.1898,14.2138,14.2377,14.2736,14.2916,14.3124,14.3364,14.3364,14.3543,14.3933,14.3962,14.3902,14.2916,14.2796,14.2018,14.1898,14.1898,14.1898,14.1898,14.1898,14.1898,14.1898,14.2257,14.2556,14.2736,14.3005,14.3364,14.4082,14.4142,14.4142,14.3962,14.4053,14.462,14.468,14.5039,14.5518,14.5578,14.5578,14.5219,14.486,14.5039,14.5219,14.5159,14.492,14.468,14.4412,14.3993,14.3275,14.2796,14.2796,14.2497,14.1928,14.1928,14.2078,14.1958,14.1989,14.1989,14.1898,14.1898,14.1898,14.1928,14.9642,14.9642,14.9642,14.9642,14.9674,14.9834,15.0067,15.0239,15.092,15.1616,15.2189,15.3853,15.5142,15.5399,15.5679,15.6081,15.6058,15.569,15.4927,15.3763,15.2945,15.21,15.1337,15.043,15.0241,15.0645,15.0234,14.9142,14.8142,14.7345,14.6565,14.5597,14.4847,14.4185,14.319,14.289,14.2681,14.262,14.256,14.2919,14.3424,14.3187,14.3039,14.2919,14.268,14.247,14.217,14.214,14.2049,14.1898,14.1898,14.1898,14.1898,14.1898,14.1898,14.1898,14.1958,14.2078,14.2197,14.2257,14.2347,14.2197,14.2138,14.1958,14.1898,14.1898,14.1958,14.1958,14.1898,14.1898,14.1898,14.1898,14.1898,14.1898,14.1898,14.1898,14.1898,14.1958,14.1958,14.2018,14.2018,14.2138,14.2138,14.2078,14.1898,14.2377,14.3065,14.3483,14.3842,14.3962,14.4022,14.3962,14.3543,14.3723,14.4113,14.4292,14.3783,14.3543,14.3514,14.2916,14.2257,14.2257,14.2377,14.2018,14.1989,14.2109,14.217,14.2049,14.2079,14.217,14.217,14.1928,14.1898,14.229,14.226,14.9642,14.9615,14.9642,14.9642,14.977,15.031,14.9964,14.9253,15.2167,15.314,15.296,15.4424,15.4794,15.5043,15.5649,15.6111,15.6223,15.6358,15.5721,15.4446,15.3909,15.2949,15.1856,15.0686,15.0551,14.9522,14.8954,14.8871,14.7581,14.6788,14.6073,14.4697,14.4319,14.4082,14.372,14.3454,14.3482,14.3659,14.3895,14.3925,14.3984,14.3748,14.3571,14.363,14.3423,14.3276,14.289,14.271,14.256,14.2109,14.1928,14.1928,14.1898,14.1898,14.1898,14.1898,14.1898,14.1898,14.1898,14.1898,14.1898,14.1898,14.1898,14.1898,14.1898,14.1898,14.1898,14.1898,14.1898,14.1898,14.1898,14.1898,14.1898,14.1898,14.1898,14.1898,14.1898,14.1898,14.1898,14.1898,14.1898,14.1898,14.1898,14.1898,14.1898,14.1898,14.2257,14.2317,14.2437,14.2437,14.2497,14.2437,14.2437,14.2676,14.3095,14.3155,14.2586,14.2406,14.2317,14.1958,14.1958,14.1958,14.1898,14.214,14.235,14.241,14.253,14.241,14.235,14.256,14.25,14.2109,14.235,14.2889,14.2919,14.8538,14.8598,14.9315,14.9642,14.977,15.0345,15.0157,15.0055,15.2901,15.4163,15.3896,15.4936,15.5677,15.6052,15.6752,15.7102,15.6931,15.703,15.6609,15.5523,15.4643,15.3686,15.2896,15.1959,15.1271,15.0576,14.9901,14.9073,14.8342,14.7356,14.662,14.6101,14.527,14.498,14.4628,14.4365,14.4599,14.5325,14.5724,14.5901,14.5642,14.5267,14.4948,14.4747,14.3895,14.36,14.3335,14.3335,14.3069,14.256,14.247,14.232,14.1928,14.1928,14.1928,14.1928,14.1898,14.1898,14.1898,14.1898,14.1898,14.1898,14.1898,14.1898,14.1898,14.1898,14.1898,14.1898,14.1898,14.1898,14.1898,14.1898,14.1898,14.1898,14.1898,14.1898,14.1898,14.1898,14.1898,14.1898,14.1898,14.1898,14.1898,14.1898,14.1898,14.1898,14.1898,14.1898,14.1898,14.1898,14.1898,14.1898,14.1898,14.1898,14.2018,14.2257,14.2138,14.2138,14.1898,14.1898,14.1898,14.1928,14.2079,14.235,14.265,14.2978,14.3246,14.3008,14.2829,14.3037,14.3187,14.3157,14.3364,14.3777,14.3779,14.7193,14.7313,14.8179,14.8777,14.9112,14.9383,14.9743,15.0275,15.3045,15.4447,15.4618,15.548,15.6393,15.7591,15.7866,15.763,15.7716,15.782,15.7269,15.6694,15.5628,15.4723,15.3926,15.3285,15.2768,15.209,15.1351,15.0549,14.9756,14.8716,14.8106,14.7631,14.6847,14.6392,14.593,14.5411,14.633,14.6859,14.6481,14.6639,14.6661,14.5893,14.5907,14.5835,14.5354,14.4803,14.4453,14.4338,14.3809,14.3307,14.3128,14.2979,14.241,14.226,14.217,14.217,14.1989,14.1898,14.1898,14.1898,14.1898,14.1898,14.1898,14.1898,14.1898,14.1898,14.1898,14.1898,14.1898,14.1898,14.1898,14.1898,14.1898,14.1898,14.1898,14.1898,14.1898,14.1898,14.1898,14.1898,14.1898,14.1898,14.1898,14.1898,14.1898,14.1898,14.1898,14.1898,14.1898,14.1898,14.1898,14.1898,14.1898,14.1898,14.1898,14.1898,14.1898,14.1898,14.1898,14.1898,14.1898,14.2019,14.226,14.25,14.271,14.3127,14.3777,14.3689,14.3483,14.3659,14.4072,14.4277,14.4482,14.4715,14.4806,14.5817,14.5846,14.5846,14.6683,14.7527,14.725,14.8357,15.0672,15.2685,15.3921,15.458,15.61,15.6706,15.6691,15.6102,15.6457,15.7238,15.7401,15.6943,15.6437,15.6409,15.5826,15.5108,15.4445,15.3912,15.331,15.2716,15.2037,15.1589,15.0459,14.9375,14.866,14.8335,14.7938,14.7764,14.7528,14.7821,14.7521,14.7021,14.6668,14.6863,14.6176,14.619,14.661,14.6645,14.6111,14.5901,14.544,14.4803,14.416,14.3659,14.363,14.3424,14.3098,14.298,14.271,14.226,14.2109,14.2019,14.1928,14.1928,14.223,14.2109,14.1989,14.2079,14.226,14.232,14.229,14.232,14.217,14.2079,14.2109,14.214,14.2019,14.2019,14.1959,14.1959,14.1928,14.1928,14.1898,14.1898,14.1898,14.1898,14.1898,14.1898,14.1898,14.1898,14.1898,14.1898,14.1898,14.1898,14.1898,14.1898,14.1898,14.1898,14.1898,14.1898,14.1898,14.1898,14.1898,14.1928,14.2019,14.247,14.283,14.2919,14.3514,14.4514,14.466,14.4365,14.454,14.5035,14.5383,14.6187,14.6278,14.602,14.4501,14.462,14.5398,14.6056,14.6329,14.5777,14.6721,14.8906,15.1177,15.2781,15.3708,15.4267,15.5077,15.5918,15.612,15.6631,15.7241,15.7527,15.7335,15.731,15.6833,15.6168,15.5666,15.5097,15.4722,15.4495,15.4014,15.3413,15.282,15.209,15.1324,15.0549,14.9874,14.9593,14.944,14.8961,14.877,14.8184,14.7174,14.6491,14.6573,14.6439,14.6314,14.704,14.7103,14.6835,14.7101,14.6813,14.6159,14.5296,14.4774,14.4511,14.3836,14.3513,14.3424,14.3395,14.3098,14.2859,14.247,14.226,14.241,14.2829,14.3038,14.3068,14.3068,14.2949,14.2949,14.2978,14.3098,14.3098,14.3037,14.3157,14.2978,14.262,14.253,14.223,14.217,14.2049,14.2019,14.1959,14.1928,14.1898,14.1898,14.1898,14.1959,14.1928,14.1928,14.1898,14.1898,14.1898,14.1898,14.1898,14.1898,14.1898,14.1898,14.1898,14.1898,14.1898,14.1898,14.1898,14.1959,14.22,14.274,14.3216,14.372,14.4367,14.5299,14.6077,14.6244,14.6387,14.6496,14.7096,14.7743,14.7721,14.7412,14.3184,14.3275,14.4142,14.4501,14.4504,14.4396,14.512,14.6658,14.9077,15.137,15.3059,15.3679,15.4689,15.5924,15.6689,15.6875,15.7336,15.773,15.7319,15.7122,15.6415,15.5979,15.5839,15.5568,15.533,15.5246,15.4872,15.4253,15.3949,15.3362,15.2923,15.2456,15.1642,15.1404,15.1443,15.0482,14.9277,14.8739,14.7508,14.6727,14.684,14.6248,14.6215,14.7347,14.6824,14.6682,14.7012,14.7188,14.6619,14.5805,14.6125,14.5728,14.5038,14.4423,14.4248,14.3984,14.363,14.3513,14.3098,14.2949,14.2888,14.3245,14.3541,14.3512,14.363,14.363,14.3659,14.3571,14.3482,14.3482,14.3658,14.3658,14.3478,14.3125,14.2887,14.2558,14.238,14.223,14.217,14.217,14.244,14.256,14.226,14.22,14.22,14.217,14.235,14.232,14.184,14.1779,14.1809,14.1809,14.1869,14.1838,14.1898,14.1898,14.1898,14.1898,14.1898,14.1928,14.217,14.241,14.2979,14.3602,14.4426,14.5241,14.6048,14.6819,14.7519,14.8439,14.8763,14.923,14.9375,14.9101,14.8743,14.1958,14.1898,14.2018,14.2078,14.2318,14.3187,14.3751,14.4473,14.6803,14.9857,15.2857,15.406,15.5673,15.7223,15.6389,15.6661,15.7152,15.6546,15.611,15.6242,15.5979,15.5913,15.5889,15.5889,15.5741,15.5766,15.542,15.5122,15.5047,15.447,15.4268,15.3836,15.3207,15.3014,15.3856,15.2138,15.0435,14.9016,14.7081,14.6809,14.6763,14.6085,14.6191,14.6804,14.6748,14.6547,14.6877,14.7077,14.6725,14.623,14.6571,14.6605,14.6111,14.572,14.5444,14.489,14.4336,14.3954,14.3777,14.3777,14.3984,14.4277,14.4538,14.4423,14.4042,14.3954,14.4218,14.4657,14.4275,14.407,14.3742,14.3742,14.3587,14.3349,14.3137,14.29,14.2636,14.249,14.2493,14.2433,14.3002,14.3393,14.2919,14.253,14.256,14.25,14.274,14.241,14.172,14.154,14.157,14.157,14.1719,14.1779,14.1898,14.1898,14.1959,14.1898,14.1928,14.2019,14.223,14.271,14.3246,14.3838,14.4835,14.6048,14.6819,14.7609,14.8908,15.0136,15.0701,15.0941,15.0754,15.0486,14.9855,14.1898,14.1898,14.1898,14.1898,14.2079,14.3187,14.363,14.4015,14.5993,14.8543,15.102,15.1838,15.3388,15.5004,15.519,15.5641,15.6258,15.6176,15.5979,15.5913,15.5913,15.5913,15.5913,15.5913,15.5913,15.5889,15.5716,15.5642,15.5593,15.5122,15.4947,15.4822,15.4531,15.3803,15.3074,15.0528,14.8582,14.7933,14.6747,14.6212,14.6245,14.5913,14.617,14.7096,14.6656,14.6509,14.701,14.6835,14.6597,14.6392,14.6556,14.6798,14.6655,14.656,14.6695,14.6558,14.6301,14.5843,14.5527,14.5613,14.6244,14.5916,14.6007,14.6159,14.6273,14.6273,14.6073,14.613,14.6125,14.5869,14.4909,14.4878,14.4707,14.3688,14.3447,14.34,14.3111,14.3422,14.3276,14.3249,14.3382,14.3836,14.3423,14.3243,14.2968,14.2447,14.2204,14.1398,14.1018,14.0995,14.1057,14.1239,14.154,14.178,14.1959,14.214,14.232,14.229,14.232,14.232,14.259,14.3098,14.363,14.4453,14.5559,14.6762,14.7777,14.8723,15.0082,15.1605,15.2078,15.234,15.2157,15.1585,15.0999,14.1898,14.1928,14.217,14.226,14.235,14.3543,14.3984,14.4306,14.5851,14.7525,14.9054,15.0378,15.2104,15.3836,15.4394,15.4922,15.5815,15.5913,15.5913,15.5913,15.5913,15.5913,15.5913,15.5913,15.5913,15.5913,15.5913,15.5913,15.5913,15.5593,15.5469,15.5445,15.5395,15.4527,15.3036,15.1024,14.8917,14.7848,14.6778,14.6202,14.6131,14.6102,14.6333,14.7012,14.6188,14.6647,14.7136,14.6789,14.6396,14.6276,14.6676,14.6509,14.6206,14.6382,14.6543,14.6634,14.6612,14.6509,14.6401,14.6992,14.7439,14.7383,14.771,14.7994,14.7848,14.7994,14.805,14.8022,14.7938,14.7534,14.671,14.6412,14.5782,14.4477,14.3909,14.3902,14.4101,14.4749,14.4937,14.5203,14.5079,14.4471,14.4174,14.3904,14.3098,14.2297,14.1217,14.0415,14.0235,14.0193,14.0347,14.0472,14.1289,14.1655,14.1896,14.2228,14.262,14.268,14.271,14.2889,14.3127,14.363,14.4336,14.5299,14.6278,14.7412,14.8529,14.9647,15.0914,15.2261,15.3079,15.3321,15.3076,15.2651,15.1878,14.1749,14.184,14.259,14.2829,14.2828,14.4103,14.4601,14.466,14.5991,14.7017,14.8022,14.9865,15.213,15.3912,15.4495,15.5022,15.5913,15.5913,15.5913,15.5913,15.5913,15.5913,15.5913,15.5913,15.5913,15.5913,15.5913,15.5913,15.5889,15.5815,15.5864,15.5913,15.579,15.4878,15.3318,15.1555,14.9848,14.7592,14.7066,14.6772,14.6561,14.642,14.6344,14.6167,14.5959,14.5888,14.5905,14.6105,14.6044,14.6148,14.6472,14.6412,14.611,14.6185,14.6321,14.6493,14.6491,14.6685,14.6903,14.7293,14.7482,14.7672,14.8077,14.8887,14.9202,14.9202,14.923,14.9202,14.9238,14.883,14.8429,14.8188,14.7436,14.6217,14.5283,14.5069,14.5028,14.5752,14.6407,14.6949,14.6487,14.5465,14.4934,14.4067,14.3266,14.2398,14.1346,14.0192,13.9926,13.9709,13.9815,14.0101,14.0986,14.151,14.1692,14.2243,14.2703,14.2825,14.3036,14.3334,14.3807,14.4426,14.5067,14.6048,14.7215,14.805,14.9073,15.0449,15.1804,15.3014,15.3458,15.3252,15.3002,15.2306,15.1751,14.0427,14.0526,14.2608,14.2849,14.2181,14.3914,14.4599,14.4864,14.6387,14.7525,14.8439,15.0027,15.2104,15.4014,15.4722,15.5246,15.5913,15.5913,15.5913,15.5913,15.5913,15.5913,15.5913,15.5913,15.5913,15.5913,15.5913,15.5913,15.5913,15.5913,15.5913,15.5913,15.5913,15.4557,15.2781,15.1597,15.015,14.743,14.7102,14.7075,14.6958,14.6893,14.6865,14.6702,14.6467,14.6208,14.6202,14.6063,14.5928,14.5994,14.6297,14.634,14.6228,14.6318,14.6372,14.6438,14.6438,14.6624,14.6819,14.7178,14.7537,14.8136,14.8871,14.9412,15.0095,15.0369,15.0395,15.053,15.054,14.9951,14.9129,14.8912,14.8437,14.7672,14.6898,14.6179,14.5774,14.6464,14.71,14.7107,14.6528,14.5817,14.4816,14.407,14.3319,14.2425,14.139,14.0152,13.9698,13.9494,13.9525,13.9586,14.0378,14.0906,14.1399,14.2107,14.266,14.3057,14.342,14.3866,14.4832,14.5531,14.6134,14.7068,14.8189,14.8931,14.9239,15.1002,15.2691,15.2758,15.286,15.2864,15.2595,15.1687,15.0863,13.9265,13.99,14.1587,14.1885,14.1546,14.357,14.4523,14.499,14.682,14.8078,14.8853,15.0244,15.188,15.3464,15.4747,15.5395,15.5815,15.5913,15.5913,15.5913,15.5913,15.5913,15.5913,15.5913,15.5913,15.5913,15.5913,15.5913,15.5913,15.5913,15.5913,15.5913,15.5716,15.4425,15.2057,15.1663,14.9821,14.8022,14.7102,14.7102,14.7102,14.7102,14.7078,14.7055,14.6865,14.6748,14.6608,14.6344,14.6304,14.6943,14.6147,14.6308,14.6734,14.6555,14.6392,14.6484,14.6431,14.6387,14.6452,14.6888,14.7478,14.8263,14.8996,14.9832,15.1092,15.1915,15.2366,15.2287,15.2378,15.1952,15.1217,15.0845,14.9889,14.9251,14.9264,14.8718,14.8461,14.8354,14.7541,14.6931,14.6312,14.5146,14.4119,14.3657,14.3303,14.2598,14.1752,14.0842,14.0382,13.9939,13.9722,13.9617,14.0069,14.0594,14.1338,14.2227,14.2958,14.3721,14.3998,14.4953,14.5912,14.6666,14.7378,14.8273,14.8978,14.9272,14.9502,15.0539,15.159,15.1947,15.2176,15.2191,15.2115,15.1231,15.0235,13.8692,13.9721,14.0566,14.0858,14.1268,14.3332,14.4365,14.4814,14.7106,14.8437,14.8887,15.0413,15.1853,15.3104,15.4571,15.5395,15.579,15.5913,15.5913,15.5913,15.5913,15.5913,15.5913,15.5913,15.5913,15.5913,15.5913,15.5913,15.5913,15.5913,15.5913,15.5782,15.5453,15.4269,15.1794,15.1202,14.9863,14.7628,14.7102,14.7102,14.7102,14.7102,14.7102,14.7102,14.7055,14.7032,14.7005,14.6725,14.6907,14.7931,14.6719,14.6563,14.7255,14.6474,14.6066,14.6066,14.5977,14.5799,14.6015,14.6601,14.7332,14.7996,14.8703,15.016,15.1276,15.2484,15.3548,15.4188,15.4192,15.3667,15.3193,15.3309,15.2937,15.2212,15.1283,15.088,15.0592,14.9661,14.8455,14.7775,14.6434,14.5027,14.4156,14.3769,14.3346,14.2757,14.2228,14.1757,14.1292,14.0863,14.057,14.0346,14.0632,14.1,14.1677,14.273,14.3563,14.4403,14.5162,14.6035,14.6481,14.687,14.797,14.842,14.9453,14.9822,14.9998,15.0193,15.0545,15.0866,15.1017,15.1209,15.1334,15.085,15.0032,14.0089,13.9505,14.178,14.2702,14.2785,14.3316,14.4171,14.5353,14.6802,14.7771,14.8517,15.0935,15.2755,15.3963,15.4772,15.542,15.5889,15.5913,15.5913,15.5913,15.5913,15.5913,15.5913,15.5913,15.5913,15.5913,15.5913,15.5913,15.5913,15.5913,15.5913,15.565,15.4664,15.3217,15.1705,15.061,14.8943,14.7628,14.7102,14.7102,14.7102,14.7102,14.7102,14.7102,14.7102,14.7102,14.7102,14.7005,14.7221,14.7301,14.6889,14.6386,14.6576,14.6119,14.5977,14.625,14.6286,14.6084,14.6007,14.6278,14.6871,14.7564,14.8029,14.8957,15.0218,15.1668,15.2962,15.4058,15.4239,15.4058,15.3838,15.4036,15.3819,15.3396,15.2502,15.1763,15.1226,15.0248,14.8884,14.7752,14.6625,14.5743,14.5297,14.4893,14.4504,14.395,14.358,14.3058,14.2455,14.2025,14.1617,14.1344,14.1218,14.1569,14.2074,14.306,14.4008,14.4678,14.5412,14.6202,14.6654,14.715,14.7035,14.7277,14.8431,14.9584,15.0252,15.0593,14.999,14.9639,14.9787,14.9732,14.9206,14.8811,14.8811,14.0709,14.0182,14.1532,14.2157,14.23,14.305,14.4402,14.5694,14.6598,14.8014,14.9709,15.0973,15.2561,15.4087,15.4897,15.542,15.579,15.5913,15.5913,15.5913,15.5913,15.5913,15.5913,15.5913,15.5913,15.5913,15.5913,15.5913,15.5913,15.5913,15.5913,15.5519,15.4442,15.3086,15.1597,15.0126,14.8745,14.7496,14.7102,14.7102,14.7102,14.7102,14.7102,14.7102,14.7102,14.7102,14.7102,14.7102,14.743,14.791,14.7282,14.732,14.7357,14.7198,14.6538,14.6744,14.6748,14.6655,14.6491,14.6486,14.6724,14.733,14.7443,14.8139,14.9447,15.038,15.1392,15.2505,15.3028,15.3004,15.311,15.2963,15.2856,15.2577,15.1931,15.1302,15.0739,14.9624,14.8468,14.7341,14.6695,14.6458,14.6226,14.5876,14.559,14.5279,14.4941,14.4342,14.3728,14.3307,14.2907,14.2494,14.2113,14.2276,14.2374,14.3334,14.4294,14.4668,14.5173,14.5937,14.6507,14.7408,14.7329,14.6763,14.7395,14.8599,14.9161,14.9205,14.881,14.8389,14.8501,14.8351,14.7496,14.7102,14.743,14.1166,14.114,14.1166,14.1355,14.1812,14.3021,14.4354,14.5677,14.6389,14.8288,15.0472,15.0719,15.1958,15.3728,15.4655,15.5273,15.5774,15.5913,15.5913,15.5913,15.5913,15.5913,15.5913,15.5913,15.5913,15.5913,15.5913,15.5913,15.5913,15.5847,15.565,15.519,15.4006,15.2559,15.1071,14.9821,14.8219,14.7299,14.7102,14.7102,14.7102,14.7102,14.7102,14.7102,14.7102,14.7102,14.7102,14.7233,14.7693,14.8811,14.7848,14.7933,14.8215,14.7624,14.714,14.7032,14.7075,14.7051,14.6939,14.7009,14.7078,14.7102,14.714,14.7929,14.8675,14.9398,15.0265,15.1125,15.1543,15.1746,15.1663,15.189,15.1507,15.1159,15.09,15.0452,14.9811,14.8718,14.7586,14.7226,14.7085,14.6958,14.6725,14.6467,14.6137,14.5829,14.5614,14.519,14.4731,14.4431,14.4161,14.3679,14.3157,14.2983,14.2832,14.3956,14.4315,14.4581,14.4618,14.5293,14.5987,14.725,14.7707,14.6917,14.7091,14.7794,14.7703,14.7479,14.738,14.7713,14.7473,14.7233,14.7102,14.7102,14.7102,14.2266,14.2202,14.2266,14.2927,14.3817,14.3181,14.3703,14.4978,14.5856,14.6899,14.7393,14.972,15.1426,15.3069,15.3813,15.4739,15.5584,15.5913,15.5913,15.5913,15.5913,15.5913,15.5913,15.5913,15.5913,15.5913,15.5913,15.5913,15.5913,15.5847,15.519,15.4072,15.2691,15.1334,14.9863,14.8351,14.743,14.7233,14.7102,14.7102,14.7102,14.7102,14.7102,14.7102,14.7102,14.7102,14.7102,14.7167,14.7322,14.743,14.7299,14.7299,14.743,14.7167,14.7102,14.7102,14.7102,14.7102,14.7102,14.7102,14.7102,14.7102,14.7102,14.7365,14.7759,14.8614,14.9337,15.0018,15.0545,15.1202,15.1597,15.1202,15.122,15.1083,15.0271,14.9787,14.9299,14.8182,14.739,14.7102,14.7078,14.7055,14.6939,14.6846,14.6655,14.642,14.6302,14.609,14.5734,14.5488,14.5303,14.4989,14.4699,14.4504,14.4382,14.5058,14.4261,14.4179,14.3775,14.4268,14.4766,14.6143,14.7193,14.6695,14.6734,14.7081,14.7248,14.7032,14.7032,14.7078,14.7102,14.7102,14.7102,14.7102,14.7102,14.4235,14.4235,14.4235,14.4622,14.5073,14.4557,14.4984,14.6074,14.613,14.6754,14.8207,14.9013,15.0893,15.293,15.3566,15.4532,15.565,15.5913,15.5847,15.5913,15.5913,15.5913,15.5913,15.5913,15.5913,15.5913,15.5913,15.5913,15.565,15.51,15.4466,15.3653,15.1483,15.0192,14.9337,14.7956,14.7233,14.7102,14.7102,14.7102,14.7102,14.7102,14.7102,14.7102,14.7102,14.7102,14.7102,14.7102,14.7102,14.7102,14.7102,14.7102,14.7167,14.7102,14.7102,14.7102,14.7102,14.7102,14.7102,14.7102,14.7102,14.7102,14.7102,14.7102,14.743,14.7759,14.8219,14.8417,14.8811,14.9295,14.9295,14.9295,14.9229,14.9098,14.8548,14.8285,14.8154,14.7628,14.7102,14.7102,14.7102,14.7102,14.7102,14.7032,14.6912,14.6795,14.6702,14.6678,14.635,14.6137,14.6202,14.6108,14.5965,14.587,14.5751,14.5279,14.4553,14.4333,14.4177,14.4406,14.4868,14.5789,14.6789,14.6873,14.6931,14.7078,14.7102,14.7102,14.7078,14.7102,14.7102,14.7102,14.7102,14.7102,14.7102,14.584,14.584,14.584,14.584,14.584,14.584,14.6313,14.7152,14.6278,14.6995,14.8573,14.8531,14.9842,15.2135,15.2522,15.385,15.519,15.4861,15.5477,15.565,15.5913,15.5913,15.5913,15.5913,15.5913,15.5913,15.5913,15.5913,15.5584,15.4639,15.3629,15.2996,15.085,14.9337,14.8877,14.7628,14.7102,14.7102,14.7102,14.7102,14.7102,14.7102,14.7102,14.7102,14.7102,14.7102,14.7102,14.7102,14.7102,14.7102,14.7102,14.7102,14.7102,14.7102,14.7102,14.7102,14.7102,14.7102,14.7102,14.7102,14.7102,14.7102,14.7102,14.7102,14.7102,14.7233,14.7167,14.7167,14.7102,14.743,14.7496,14.7233,14.743,14.7562,14.7365,14.7233,14.7167,14.7167,14.7102,14.7102,14.7102,14.7102,14.7102,14.7102,14.7102,14.7102,14.7078,14.7078,14.6958,14.6748,14.6655,14.6585,14.6467,14.6397,14.6255,14.5948,14.5543,14.5399,14.5344,14.5488,14.5876,14.6611,14.6883,14.7015,14.7078,14.7102,14.7102,14.7102,14.7102,14.7102,14.7102,14.7102,14.7102,14.7102,14.7102,14.584,14.584,14.584,14.584,14.5822,14.5864,14.6,14.6066,14.6226,14.6588,14.6985,14.7193,14.8539,14.9793,15.045,15.1483,15.385,15.2954,15.3833,15.4993,15.5716,15.5519,15.5453,15.5321,15.5387,15.5477,15.5847,15.565,15.5058,15.4138,15.302,15.1639,15.0258,14.8811,14.7759,14.7299,14.7102,14.7102,14.7102,14.7102,14.7102,14.7102,14.7102,14.7102,14.7102,14.7102,14.7102,14.7102,14.7102,14.7102,14.7102,14.7102,14.7102,14.7102,14.7102,14.7102,14.7102,14.7102,14.7102,14.7102,14.7102,14.7102,14.7102,14.7102,14.7102,14.7102,14.7102,14.7102,14.7102,14.7102,14.7102,14.7102,14.7102,14.7102,14.7102,14.7102,14.7102,14.7102,14.7102,14.7102,14.7102,14.7102,14.7102,14.7102,14.7102,14.7102,14.7102,14.7102,14.7075,14.6982,14.6958,14.6869,14.6912,14.6912,14.6748,14.6561,14.642,14.6302,14.6202,14.625,14.6631,14.6795,14.7005,14.7055,14.7078,14.7102,14.7102,14.7102,14.7102,14.7102,14.7102,14.7102,14.7102,14.7102,14.7102,14.6561,14.6561,14.6585,14.6561,14.6561,14.6585,14.6561,14.6608,14.6772,14.6842,14.6888,14.7098,14.8022,14.9403,14.9469,15.0652,15.2296,15.186,15.2255,15.357,15.4269,15.4138,15.3546,15.3438,15.3438,15.3438,15.3373,15.3414,15.3217,15.1968,15.1047,15.0258,14.8877,14.7848,14.7102,14.7102,14.7102,14.7102,14.7102,14.7102,14.7102,14.7102,14.7102,14.7102,14.7102,14.7102,14.7102,14.7102,14.7102,14.7102,14.7102,14.7102,14.7102,14.7102,14.7102,14.7102,14.7102,14.7102,14.7102,14.7102,14.7102,14.7102,14.7102,14.7102,14.7102,14.7102,14.7102,14.7102,14.7102,14.7102,14.7102,14.7102,14.7102,14.7102,14.7102,14.7102,14.7102,14.7102,14.7102,14.7102,14.7102,14.7102,14.7102,14.7102,14.7102,14.7102,14.7102,14.7102,14.7102,14.7102,14.7055,14.7032,14.7009,14.7051,14.6935,14.6888,14.6772,14.6795,14.6725,14.6772,14.6982,14.7051,14.7078,14.7078,14.7078,14.7102,14.7102,14.7102,14.7102,14.7102,14.7102,14.7102,14.7102,14.7102,14.7102,14.7102,14.7102,14.7102,14.7102,14.7102,14.7102,14.7078,14.7102,14.7078,14.7055,14.7078,14.7102,14.7759,14.8811,14.8811,14.9666,15.061,15.0545,15.0676,15.1597,15.247,15.1902,15.1244,15.14,15.1728,15.1794,15.1926,15.1663,15.1465,15.0389,14.9666,14.9403,14.8022,14.7167,14.7102,14.7102,14.7102,14.7102,14.7102,14.7102,14.7102,14.7102,14.7102,14.7102,14.7102,14.7102,14.7102,14.7102,14.7102,14.7102,14.7102,14.7102,14.7102,14.7102,14.7102,14.7102,14.7102,14.7102,14.7102,14.7102,14.7102,14.7102,14.7102,14.7102,14.7102,14.7102,14.7102,14.7102,14.7102,14.7102,14.7102,14.7102,14.7102,14.7102,14.7102,14.7102,14.7102,14.7102,14.7102,14.7102,14.7102,14.7102,14.7102,14.7102,14.7102,14.7102,14.7102,14.7102,14.7102,14.7102,14.7102,14.7102,14.7102,14.7102,14.7102,14.7102,14.7102,14.7102,14.7078,14.7055,14.7078,14.7102,14.7102,14.7102,14.7102,14.7102,14.7102,14.7102,14.7102,14.7102,14.7102,14.7102,14.7102,14.7102,14.7102,14.7102,14.7102,14.7102,14.7102,14.7102,14.7102,14.7102,14.7102,14.7102,14.7102,14.7102,14.7102,14.7233,14.7299,14.7496,14.8285,14.914,14.8417,14.9032,15.0479,15.0324,14.9798,14.9732,15.061,15.1005,15.1202,15.1268,15.14,15.1071,14.9821,14.9469,14.9206,14.7891,14.7102,14.7102,14.7102,14.7102,14.7102,14.719,14.719,14.7102,14.719,14.719,14.7102,14.7102,14.7102,14.7102,14.7102,14.7102,14.7102,14.7102,14.7102,14.7102,14.7102,14.7102,14.7102,14.7102,14.7102,14.7102,14.7102,14.7102,14.7102,14.7102,14.7102,14.7102,14.7102,14.7102,14.7102,14.7102,14.7102,14.7102,14.7102,14.7102,14.7102,14.7102,14.7102,14.7102,14.7102,14.7102,14.7102,14.7102,14.7102,14.7102,14.7102,14.7102,14.7102,14.7102,14.7102,14.7102,14.7102,14.7102,14.7102,14.7102,14.7102,14.7102,14.7102,14.7102,14.7102,14.7102,14.7078,14.7102,14.7102,14.7102,14.7102,14.7102,14.7102,14.7102,14.7102,14.7102,14.7102,14.7102,14.7102,14.7102,14.7102,14.7102,14.7102,14.7102,14.7102,14.7102,14.7102,14.7102,14.7102,14.7102,14.7102,14.7102,14.7102,14.7102,14.7102,14.7102,14.7102,14.7496,14.7891,14.743,14.7759,14.8548,14.8154,14.8022,14.8154,14.8637,14.8811,14.8835,14.8835,14.8835,14.8745,14.8285,14.8022,14.7956,14.743,14.7102,14.7102,14.7102,14.7102,14.7214,14.7445,14.7445,14.7306,14.7468,14.7468,14.7214,14.7102,14.7102,14.7102,14.7102,14.7102,14.7102,14.7102,14.7102,14.7102,14.7102,14.7102,14.7102,14.7102,14.7102,14.7102,14.7102,14.7102,14.7102,14.7102,14.7102,14.7102,14.7102,14.7102,14.7102,14.7102,14.7102,14.7102,14.7102,14.7102,14.7102,14.7102,14.7102,14.7102,14.7102,14.7102,14.7102,14.7102,14.7102,14.7102,14.7102,14.7102,14.7102,14.7102,14.7102,14.7102,14.7102,14.7102,14.7102,14.7102,14.7102,14.7102,14.7102,14.7102,14.7102,14.7102,14.7102,14.7102,14.7102,14.7102,14.7102,14.7102,14.7102,14.7102,14.7102,14.7102,14.7102,14.7102,14.7102,14.7102,14.7102,14.7102,14.7102,14.7102,14.7102,14.7102,14.7102,14.7102,14.7102,14.7102,14.7102,14.7102,14.7102,14.7102,14.7102,14.7102,14.7102,14.7167,14.7102,14.7102,14.7102,14.7167,14.7167,14.7167,14.7167,14.7167,14.7102,14.7102,14.7102,14.7167,14.7233,14.7167,14.7102,14.7102,14.7167,14.7102,14.7102,14.7306,14.7398,14.7468,14.7924,14.8038,14.772,14.8015,14.7946,14.7445,14.7375,14.7398,14.7375,14.726,14.7167,14.7102,14.6707,14.6247,14.5852,14.5786,14.6049,14.6444,14.651,14.6575,14.697,14.7102,14.7102,14.7102,14.7102,14.7102,14.7102,14.7102,14.7102,14.7102,14.7102,14.7102,14.7102,14.7102,14.7102,14.7102,14.7102,14.7102,14.7102,14.7102,14.7102,14.7102,14.7102,14.7102,14.7102,14.7102,14.7102,14.7102,14.7102,14.7102,14.7102,14.7102,14.7102,14.7102,14.7102,14.7102,14.7102,14.7102,14.7102,14.7102,14.7102,14.7102,14.7102,14.7102,14.7102,14.7102,14.7102,14.7102,14.7102,14.7102,14.7102,14.7102,14.7102,14.7102,14.7102,14.7102,14.7102,14.7102,14.7102,14.7102,14.7102,14.7102,14.7102,14.7102,14.7102,14.7102,14.7102,14.7102,14.7102,14.7102,14.7102,14.7102,14.7102,14.7102,14.7102,14.7102,14.7102,14.7102,14.7102,14.7102,14.7102,14.7102,14.7102,14.7102,14.7102,14.7102,14.7102,14.7102,14.7102,14.7102,14.719,14.719,14.7606,14.7901,14.8038,14.8446,14.8649,14.8694,14.8672,14.8469,14.7992,14.7969,14.7992,14.7924,14.7379,14.7039,14.6885,14.5786,14.4405,14.3442,14.3244,14.3682,14.48,14.504,14.5698,14.6707,14.6904,14.6904,14.6904,14.7102,14.7102,14.7102,14.7102,14.7102,14.7102,14.7102,14.7102,14.7102,14.7102,14.7102,14.7102,14.7102,14.7102,14.7102,14.7102,14.7102,14.7102,14.7102,14.7102,14.7102,14.7102,14.7102,14.7102,14.7102,14.7102,14.7102,14.7102,14.7102,14.7102,14.7102,14.7102,14.7102,14.7102,14.7102,14.7102,14.7102,14.7102,14.7102,14.7102,14.7102,14.7102,14.7102,14.7102,14.7102,14.7102,14.7102,14.7102,14.7102,14.7102,14.7102,14.7102,14.7102,14.7102,14.7102,14.7102,14.7102,14.7102,14.7102,14.7102,14.7102,14.7102,14.7102,14.7102,14.7102,14.7102,14.7102,14.7102,14.7102,14.7102,14.7102,14.7102,14.7102,14.7102,14.7102,14.7102,14.7102,14.7102,14.7102,14.7102,14.7102,14.7102,14.7102,14.7102,14.7102,14.7102,14.7306,14.7694,14.7832,14.8129,14.8491,14.8874,14.8964,14.8784,14.8941,14.8874,14.8582,14.8695,14.874,14.8446,14.7001,14.6245,14.5979,14.4544,14.3376,14.2938,14.285,14.3113,14.3507,14.3551,14.3836,14.4297,14.5195,14.5698,14.5698,14.6487,14.7102,14.7102,14.7102,14.7102,14.7102,14.7102,14.7102,14.7102,14.7102,14.7102,14.7102,14.7102,14.7102,14.7102,14.7102,14.7102,14.7102,14.7102,14.7102,14.7102,14.7102,14.7102,14.7102,14.7102,14.7102,14.7102,14.7102,14.7102,14.7102,14.7102,14.7102,14.7102,14.7102,14.7102,14.7102,14.7102,14.7102,14.7102,14.7102,14.7102,14.7102,14.7102,14.7102,14.7102,14.7102,14.7102,14.7102,14.6773,14.6312,14.6641,14.6904,14.6641,14.5875,14.6444,14.6904,14.7102,14.7102,14.7102,14.7102,14.7102,14.7102,14.7102,14.7102,14.7102,14.7102,14.7102,14.6049,14.5852,14.6355,14.6378,14.6641,14.7102,14.7102,14.7102,14.7102,14.7102,14.7102,14.7102,14.7102,14.7102,14.7102,14.7102,14.7102,14.719,14.7329,14.756,14.7946,14.8288,14.856,14.8897,14.9341,14.9451,14.9275,14.9429,14.9429,14.9164,14.8808,14.8386,14.8165,14.6237,14.5174,14.5018,14.3253,14.2217,14.2083,14.1666,14.1534,14.1995,14.2126,14.2324,14.285,14.3748,14.4208,14.434,14.5129,14.5523,14.5589,14.5589,14.5612,14.5655,14.5984,14.6049,14.5786,14.5589,14.5589,14.5678,14.6049,14.6312,14.6444,14.6838,14.7102,14.7102,14.7102,14.7102,14.7102,14.7102,14.7102,14.7102,14.7102,14.7102,14.7102,14.7102,14.7102,14.7102,14.7102,14.7102,14.7102,14.7102,14.7102,14.7102,14.7036,14.697,14.7102,14.7102,14.697,14.6904,14.7102,14.7102,14.7036,14.697,14.6618,14.6444,14.5326,14.5086,14.5678,14.502,14.5152,14.3682,14.504,14.6401,14.6842,14.695,14.6862,14.6904,14.6641,14.6796,14.6838,14.6707,14.6773,14.6904,14.6641,14.4231,14.3682,14.4777,14.4909,14.5589,14.6641,14.6904,14.7036,14.7036,14.7102,14.7102,14.7102,14.7102,14.7102,14.7102,14.7102,14.7167,14.7237,14.7694,14.7946,14.8197,14.8852,14.9274,14.9385,14.9737,15.0023,15.0023,14.9978,14.9844,14.9622,14.8068,14.7116,14.685,14.5237,14.4026,14.3608,14.2066,14.1032,14.057,13.9474,13.9386,14.046,14.0657,14.1183,14.2324,14.2652,14.2784,14.2784,14.3047,14.2981,14.3244,14.3244,14.331,14.2981,14.4142,14.4208,14.3179,14.3244,14.3244,14.3244,14.4208,14.4866,14.4909,14.5918,14.6838,14.6773,14.6575,14.6444,14.6707,14.697,14.6707,14.6838,14.697,14.7036,14.7036,14.7102,14.7102,14.7102,14.7102,14.7036,14.6904,14.6312,14.6467,14.6378,14.5984,14.6575,14.6862,14.6993,14.6838,14.6707,14.6378,14.6312,14.6773,14.6575,14.5918,14.5195,14.4099,14.3639,14.3968,14.3201,14.3333,14.3113,14.3553,14.4263,14.4618,14.4573,14.4192,14.4034,14.4034,14.4034,14.4034,14.4034,14.4034,14.4034,14.3968,14.3244,14.3047,14.3419,14.3507,14.3705,14.4099,14.5129,14.5632,14.5698,14.6618,14.7102,14.7102,14.7102,14.7102,14.7102,14.7102,14.7352,14.7651,14.7855,14.8288,14.8874,14.9097,14.9429,14.9848,15.0001,15.0066,14.9932,14.9083,14.8525,14.8324,14.6855,14.6055,14.5988,14.4224,14.3063,14.2478,14.0741,13.9624,13.9232,13.8794,13.8728,13.9123,13.9189,13.9408,13.9715,14.0723,14.1337,14.1381,14.2324,14.285,14.285,14.285,14.285,14.2718,14.2235,14.1841,14.1469,14.2258,14.2784,14.2915,14.3179,14.3442,14.3507,14.3705,14.4165,14.4034,14.4297,14.4034,14.4034,14.4165,14.4625,14.5392,14.5632,14.5829,14.6838,14.7036,14.7036,14.7102,14.7102,14.6335,14.4428,14.4297,14.4034,14.4034,14.4231,14.4297,14.4034,14.4034,14.4099,14.4889,14.4208,14.4142,14.456,14.4362,14.377,14.3507,14.3244,14.2981,14.2455,14.2784,14.2784,14.1691,14.2306,14.277,14.3255,14.3585,14.3341,14.3095,14.2872,14.285,14.285,14.2741,14.16,14.1117,14.1117,14.114,14.1446,14.1995,14.1972,14.2324,14.2915,14.3748,14.4142,14.4274,14.5655,14.6289,14.6312,14.6904,14.7102,14.7102,14.7102,14.7422,14.7901,14.8152,14.8583,14.923,14.9518,14.9737,15.0066,15.0066,14.9463,14.8278,14.7407,14.6983,14.6849,14.553,14.4726,14.457,14.3176,14.1951,14.1421,14.0178,13.931,13.8857,13.8706,13.8575,13.8575,13.8575,13.8575,13.8575,13.9386,13.9846,13.9868,14.0657,14.1117,14.1117,14.1117,14.1117,14.1074,14.0372,13.9868,13.9934,14.0569,14.1117,14.1183,14.1732,14.1995,14.1995,14.2521,14.285,14.285,14.285,14.285,14.285,14.285,14.3244,14.3879,14.4142,14.434,14.5129,14.5415,14.5415,14.5415,14.5415,14.456,14.3442,14.285,14.2915,14.285,14.285,14.285,14.2981,14.285,14.285,14.2915,14.3047,14.3047,14.2718,14.285,14.2587,14.1972,14.1972,14.1797,14.1183,14.1117,14.1117,14.0016,14.1183,14.1703,14.2456,14.3189,14.3167,14.2835,14.2435,14.2478,14.2478,14.215,13.9803,13.8728,13.8641,13.8816,13.9474,14.0548,14.0548,14.1205,14.2324,14.2587,14.2718,14.2784,14.4142,14.4909,14.5237,14.6312,14.6904,14.7102,14.7102,14.7375,14.7878,14.8424,14.8874,14.9341,14.9647,14.9865,14.9865,14.9731,14.8345,14.5773,14.5463,14.5375,14.5375,14.4009,14.3246,14.3225,14.2039,14.1075,14.0599,14.0181,13.9801,13.9265,13.8988,13.8706,13.8684,13.8662,13.8619,13.8575,13.8575,13.8663,13.8575,13.8706,13.8728,13.8706,13.8663,13.8575,13.8728,13.8663,13.8728,13.8575,13.8728,13.886,13.9057,13.9846,14.0526,14.0657,14.1732,14.2455,14.2521,14.2126,14.2455,14.2126,14.2126,14.2324,14.2235,14.2455,14.285,14.3244,14.331,14.3244,14.2652,14.2455,14.2389,14.2258,14.2389,14.206,14.2192,14.2324,14.2126,14.1972,14.2038,14.2367,14.1644,14.2126,14.1995,14.2126,14.2389,14.1841,14.0789,14.046,14.0197,13.9057,13.886,13.8991,13.9979,14.0265,14.071,14.0846,14.0753,14.0322,14.0106,13.9976,13.9693,13.9737,13.9932,13.9359,13.9095,13.9029,13.9029,13.9227,13.9426,13.9232,13.9254,13.9649,14.0723,14.1205,14.1381,14.2718,14.3945,14.4974,14.5303,14.6049,14.7036,14.7102,14.7237,14.7398,14.8265,14.9119,14.9847,14.8884,14.8412,14.8345,14.7251,14.6292,14.5576,14.4478,14.3963,14.3829,14.2575,14.1771,14.1771,14.1502,14.1075,14.0599,14.0474,14.0223,13.9822,13.9673,13.946,13.9072,13.9029,13.8922,13.8641,13.8575,13.8575,13.8575,13.8575,13.8575,13.8575,13.8575,13.8575,13.8575,13.8553,13.8553,13.8641,13.8597,13.8575,13.8575,13.8904,13.9189,13.9123,13.9386,13.9517,13.9517,13.9583,13.9671,13.9583,13.9583,13.9737,13.9912,14.0526,14.1666,14.2652,14.285,14.1841,14.0394,13.9583,13.9715,13.9517,13.9671,13.9715,13.9605,13.9671,13.9846,13.978,13.9649,13.9583,13.978,13.9715,13.978,13.9649,13.9649,13.9583,13.9386,13.9276,13.9057,13.8663,13.8575,13.8575,14.0223,14.0286,14.0703,14.0766,14.0537,13.9988,13.9692,13.9545,13.9289,13.9398,13.9545,13.9567,13.9501,13.9501,13.9567,13.9567,13.9567,13.931,13.9118,13.8945,13.9648,13.9934,13.9934,14.1183,14.2301,14.3068,14.3682,14.4405,14.5152,14.5195,14.5195,14.5263,14.619,14.7098,14.7924,14.7251,14.6828,14.6849,14.4726,14.3674,14.3607,14.289,14.2508,14.2508,14.1704,14.1301,14.1301,14.1301,14.1178,14.0911,14.0703,14.012,13.9291,13.9037,13.8474,13.7559,13.7471,13.7345,13.7157,13.7032,13.7103,13.7567,13.7611,13.7369,13.6712,13.6818,13.7188,13.7803,13.8041,13.8433,13.9181,13.8987,13.8857,13.8857,13.8706,13.8597,13.8575,13.8575,13.8575,13.8575,13.8575,13.8575,13.8575,13.8575,13.8575,13.8663,13.9189,13.9912,14.0723,14.0854,14.0328,13.8991,13.8575,13.8575,13.8597,13.8575,13.8575,13.8575,13.8575,13.8575,13.8575,13.8575,13.8663,13.8575,13.8575,13.8575,13.8641,13.8575,13.8575,13.8575,13.8575,13.8575,13.8575,13.8575,13.8575,14.0662,14.0703,14.1137,14.1301,14.1281,14.0849,14.0433,14.0034,13.9897,13.9876,14.0034,14.0034,14.0034,14.0034,14.0034,14.01,14.0012,14.0037,13.9737,13.9287,13.9223,13.903,13.875,13.989,14.0504,14.0789,14.1995,14.2652,14.285,14.2938,14.285,14.2962,14.3806,14.4635,14.5321,14.5311,14.5174,14.4973,14.2555,14.1301,14.1301,14.1301,14.1301,14.1301,14.1301,14.1301,14.1301,14.1301,14.1301,14.1281,14.089,13.9994,13.8592,13.8109,13.7063,13.5453,13.532,13.5213,13.5151,13.4889,13.5176,13.6223,13.627,13.5788,13.46,13.4804,13.5475,13.6686,13.7113,13.7894,13.9089,13.8772,13.8451,13.8431,13.8396,13.8333,13.8202,13.8378,13.8575,13.8575,13.8575,13.8575,13.8575,13.8575,13.8575,13.8575,13.8728,13.8663,13.8882,13.8684,13.8749,13.8706,13.8641,13.8575,13.8575,13.8575,13.8575,13.8575,13.8575,13.8575,13.8575,13.8575,13.8575,13.8575,13.8575,13.8575,13.8575,13.8575,13.8575,13.8575,13.8575,13.8575,13.8575,13.8575,13.8575,14.1178,14.1199,14.1281,14.1301,14.1301,14.1219,14.0911,14.0408,13.9532,0.0,0.0,14.0453,14.0453,14.0453,14.0453,14.0453,14.0366,14.0097,13.9886,13.9801,13.9372,13.9137,13.9051,13.9035,13.9583,14.0723,14.0986,14.1732,14.2784,14.285,14.285,14.2962,14.3828,14.4354,14.4394,14.4054,14.3225,14.2085,14.1569,14.1301,14.1301,14.1301,14.1301,14.1301,14.1301,14.1301,14.1301,14.1301,14.1301,14.1301,14.1219,14.0488,13.9014,13.8799,13.7372,13.4521,13.4194,13.4054,13.3711,13.3676,13.4212,13.5543,13.5343,13.5214,13.5323,13.5339,13.5513,13.5712,13.5774,13.5969,13.6234,13.6218,13.6031,13.5698,13.665,13.7185,13.6974,13.783,13.8465,13.8575,13.8531,13.8575,13.8597,13.8597,13.8575,13.8575,13.8641,13.8575,13.8684,13.9247,13.9481,13.9138,13.8792,13.8597,13.8575,13.8575,13.8575,13.8575,13.8575,13.8575,13.8575,13.8575,13.8575,13.8575,13.8575,13.8575,13.8575,13.8575,13.8575,13.8575,13.8575,13.8575,13.8575,13.8575,13.8509,13.9001,13.9088,13.9021,13.9001,0.0,13.9021,13.8947,13.8677,13.8096,13.821,13.8657,13.8657,13.8657,13.8724,13.946,13.9774,13.9774,14.0411,14.0495,14.0244,13.9967,13.9628,13.918,13.9009,13.9166,13.9671,13.9671,14.0,14.0723,14.0745,14.0723,14.0745,14.16,14.2075,14.2096,14.2252,14.2059,14.1301,14.1301,14.1301,14.1301,14.1301,14.1301,14.1301,14.1301,0.0,0.0,0.0,0.0,0.0,0.0,0.0,0.0,13.6051,0.0,13.2216,13.1395,13.0936,13.0723,13.0424,13.0554,13.1286,13.239,13.2595,13.1399,13.1372,13.1971,13.3455,13.3768,13.4507,13.5975,13.5973,13.5816,13.5611,13.5982,13.6088,13.5821,13.6308,13.6948,13.7368,13.7567,13.783,13.8465,13.8705,13.8879,13.8901,13.9095,13.9333,13.9355,13.9652,13.9864,13.9631,13.9181,13.8814,13.8662,13.8575,13.8575,13.8575,13.8575,13.8575,13.8575,13.8575,13.8575,13.8575,13.8575,13.8575,13.8575,13.8575,13.8575,13.8575,13.8575,13.8465,13.7632,13.7501,13.7676,13.6875,13.6875,13.6875,13.6875,13.6808,13.6252,13.6118,13.6406,13.6473,13.6607,13.6875,13.6875,13.6875,13.6922,13.8062,13.8599,13.8666,13.9893,14.0226,13.9815,13.9732,13.9449,13.9039,13.8869,13.8788,13.8728,13.8619,13.8575,13.8575,13.8575,13.8575,13.8619,13.9481,13.9949,13.9991,0.0,0.0,0.0,14.1301,14.1301,14.1301,14.1301,14.1301,14.1301,14.1301,0.0,14.1301,14.1033,14.0295,13.9068,13.8733,0.0,0.0,0.0,0.0,0.0,0.0,0.0,0.0,0.0,0.0,0.0,12.8711,12.8987,12.7243,12.7281,12.8502,13.0792,13.1367,13.2545,13.4911,13.4911,13.4787,13.4974,13.4832,13.4779,13.4653,13.4856,13.5326,13.6155,13.6266,13.6706,13.7781,13.8522,13.8845,13.8845,13.9517,13.9792,13.9341,13.9204,13.9295,13.9236,13.8697,13.8384,13.7959,13.7741,13.7479,13.7808,13.7808,13.7742,13.7611,13.7676,13.7742,13.7676,13.7808,13.7742,13.7742,13.7808,13.7611,13.7742,13.7742,13.7413,13.6339,13.6076,13.6449,13.6875,13.6875,13.6875,13.6875,13.6654,13.4039,13.3704,13.4997,13.4997,13.5668,13.6875,13.6875,13.6875,13.6855,13.7056,13.7143,13.7123,13.7345,13.7372,13.7292,13.6958,13.7448,13.8438,13.7688,13.7947,13.9072,13.8793,13.8575,13.8575,13.8575,13.8575,13.8641,13.9548,13.9949,13.9991,14.0849,14.1301,14.1301,14.1301,14.1301,14.1301,14.1301,14.1301,14.1301,14.1301,14.1301,14.1301,14.0007,13.9135,13.8934,13.7774,13.5782,13.2899,13.2497,13.0533,0.0,12.6176,0.0,0.0,0.0,0.0,0.0,0.0,0.0,0.0,12.726,12.8131,12.8533,12.857,12.8809,12.9144,12.9174,12.9521,13.0428,13.156,13.2629,13.3446,13.4646,13.5447,13.5605,13.5584,13.565,13.5961,13.7039,13.7789,13.7898,13.8932,13.9133,13.77,13.7393,13.7299,13.6735,13.67,13.6644,13.5827,13.5277,13.5023,13.5002,13.5068,13.487,13.5068,13.5002,13.4936,13.5002,13.5068,13.5002,13.487,13.4936,13.4936,13.5068,13.4981,13.4805,13.4607,13.4607,13.5068,13.4374,13.4374,13.4374,13.3436,13.1912,13.0619,13.037,13.1041,13.1022,13.1376,13.1979,13.1979,13.243,13.3234,13.4911,13.5668,13.5735,13.6473,13.6875,13.6855,13.6723,13.6818,13.7222,13.6834,13.6666,13.6779,13.6634,13.6882,13.7369,13.7435,13.7808,13.8619,13.9548,13.9656,13.9175,14.0571,14.1301,14.1301,14.1301,14.1301,14.1301,14.1301,14.1301,14.1301,14.1301,14.0899,14.0074,13.9336,13.8263,13.6654,13.5179,13.3436,13.129,12.9595,12.7468,0.0,0.0,0.0,0.0,0.0,0.0,0.0,0.0,0.0,0.0,0.0,12.4786,12.5523,12.6328,12.7133,12.8023,12.8071,12.8284,12.8766,12.9379,12.9809,13.0024,13.0526,13.1512,13.2975,13.3134,13.3731,13.5305,13.6307,13.687,13.687,13.7628,13.7907,13.7064,13.6875,13.6796,13.6577,13.6403,13.608,13.5734,13.5096,13.4637,13.4616,13.4426,13.4279,13.4279,13.4279,13.4279,13.4279,13.4279,13.4279,13.4279,13.4279,13.4279,13.4081,13.3029,13.2219,13.2832,13.3029,13.349,13.1357,13.1357,13.1357,13.0102,12.8071,12.8071,12.8071,12.8071,12.8071,12.8071,12.8071,12.8071,12.8742,12.9815,13.2114,13.312,13.3167,13.4307,13.4911,13.5266,13.5246,13.5538,13.5869,13.5795,13.5544,13.5241,13.5012,13.5356,13.6028,13.5987,13.6513,13.774,13.8637,13.8647,13.7977,13.9952,14.0907,14.0974,14.1412,14.1607,14.1587,14.1505,14.1403,14.1301,14.0966,14.0208,13.9001,13.833,13.6788,13.426,13.2698,13.107,12.9278,12.6663,0.0,0.0,0.0,0.0,0.0,0.0,0.0,0.0,0.0,11.8267,12.0818,0.0,12.1679,0.0,12.4164,12.5441,12.6669,12.7072,0.0,0.0,12.7255,12.7243,12.7086,12.7097,12.7949,13.0252,13.0479,13.1458,13.3881,13.4827,13.524,13.5124,13.566,13.6076,13.6076,13.6076,13.6037,13.5853,13.5577,13.5414,13.5108,13.4589,13.4028,13.4037,13.3769,13.3606,13.354,13.3523,13.346,13.3439,13.3376,13.3226,13.3161,13.3271,13.3008,13.2219,13.0707,12.9655,13.0728,13.1254,13.1911,12.8407,12.8407,12.8407,12.8291,12.809,12.8071,12.8071,12.8071,12.8071,12.8071,12.8071,12.8071,12.8157,12.8291,12.8541,0.0,12.8608,12.876,12.9546,13.0753,13.0753,13.2209,13.4785,13.4332,13.4827,13.6121,13.5323,13.4974,13.4978,13.4666,13.4732,13.5218,13.6153,13.6535,13.6549,13.8779,13.987,13.987,14.1556,14.2411,14.2411,14.2051,14.1668,14.1255,13.994,13.9135,13.8934,13.6453,13.4327,13.2631,13.1156,12.9144,12.6328,0.0,0.0,0.0,0.0,0.0,0.0,0.0,0.0,0.0,0.0,0.0,0.0,0.0,0.0,12.0562,12.1881,0.0,12.2912,12.4196,0.0,0.0,0.0,12.5288,12.633,12.641,12.6956,12.815,0.0,0.0,13.0458,13.1865,13.2487,13.1836,13.293,13.3797,13.3797,13.3778,13.3666,13.3327,13.3214,13.2995,13.2359,13.2125,13.1909,13.16,13.15,13.1421,13.1401,13.114,13.0965,13.0924,13.0533,13.0181,13.0181,13.0247,12.9413,12.7025,12.7177,12.792,12.8118,12.9084,13.0247,12.5993,12.2707,12.2689,12.2707,12.2707,12.2689,12.2689,12.2689,12.2707,12.2689,12.2707,12.2707,12.3243,12.4115,12.4115,0.0,0.0,0.0,12.7468,12.8943,12.8943,12.9565,13.0686,13.0497,13.0554,13.0799,13.0467,13.0585,13.0878,13.1925,13.1771,13.0463,0.0,13.3849,13.4337,13.6972,13.893,14.0063,14.0828,14.1563,14.2442,14.2371,14.1667,14.043,13.9805,13.8456,13.6473,13.4441,13.265,13.1156,12.8004,12.5724,0.0,0.0,0.0,0.0,0.0,0.0,0.0,0.0,0.0,0.0,0.0,11.5829,11.827,0.0,0.0,0.0,12.0866,12.1204,12.1221,12.1746,0.0,0.0,0.0,0.0,0.0,0.0,0.0,12.5736,12.5988,12.6864,12.9205,12.9272,12.9406,13.0267,13.0832,13.1243,13.1526,0.0,13.1117,13.0972,13.0736,13.0529,13.0233,12.9973,12.9672,12.9294,12.8834,12.8486,12.8466,12.8416,12.822,12.8004,12.776,12.7542,12.7283,12.7308,12.6828,12.5862,12.6059,12.6473,12.6388,12.6848,12.7354,12.3042,0.0,0.0,0.0,0.0,11.9203,11.9203,11.9203,11.9307,11.9341,11.9358,11.9461,0.0,0.0,0.0,0.0,0.0,0.0,12.4719,12.6212,12.6614,12.7066,12.7401,12.7401,12.7521,12.749,12.6939,12.7112,12.7967,12.8309,12.7664,12.6215,0.0,0.0,0.0,0.0,13.7658,13.9511,14.0547,14.1537,14.2537,14.2731,14.2002,14.0326,13.9096,13.7087,13.4125,13.2564,13.0753,12.8407,12.5322,0.0,0.0,0.0,0.0,0.0,0.0,0.0,0.0,0.0,0.0,0.0,0.0,0.0,0.0,0.0,0.0,0.0,0.0,0.0,12.0174,12.065,12.0718,0.0,0.0,0.0,0.0,0.0,0.0,0.0,0.0,0.0,12.7307,12.7174,12.7517,0.0,0.0,13.0265,13.0541,13.0317,13.0126,13.0022,12.9758,0.0,12.9315,12.9028,12.8684,12.8141,12.7565,12.7217,12.7122,12.6989,12.6817,12.6586,12.6335,12.5488,12.3793,12.3254,12.315,12.3119,12.3428,12.3823,12.4303,12.4724,12.5053,0.0,0.0,0.0,0.0,11.9069,0.0,0.0,0.0,11.9412,11.9516,0.0,11.9904,0.0,0.0,0.0,0.0,11.9337,11.9404,0.0,0.0,12.3176,12.4517,12.5706,12.5773,12.6578,12.79,12.6038,12.5882,12.6997,12.3595,0.0,0.0,0.0,0.0,0.0,0.0,13.5732,13.7715,14.087,14.2581,14.27,14.3386,14.2988,14.1381,13.76,13.455,13.2516,13.1022,12.8272,12.4115,12.3713,0.0,0.0,0.0,0.0,0.0,0.0,0.0,0.0,0.0,0.0,0.0,0.0,0.0,0.0,0.0,0.0,0.0,0.0,0.0,0.0,12.1385,0.0,0.0,0.0,0.0,0.0,0.0,0.0,0.0,0.0,12.2913,12.4078,12.5649,12.7205,12.8485,0.0,0.0,0.0,0.0,13.1206,13.0781,13.0781,13.0473,12.9726,12.9585,12.9319,12.8562,0.0,0.0,12.8108,12.7631,12.713,12.7245,12.6351,12.4376,11.8854,11.7995,11.782,11.7471,11.8665,11.9812,12.1165,12.2434,12.3692,0.0,0.0,0.0,0.0,0.0,0.0,0.0,0.0,0.0,11.4281,11.4281,11.4409,0.0,0.0,0.0,0.0,0.0,0.0,0.0,0.0,12.0494,12.1031,12.1465,12.1465,12.1751,12.222,12.1609,12.1538,0.0,0.0,0.0,0.0,0.0,0.0,0.0,0.0,13.4461,13.6844,13.8753,14.0338,14.1516,14.1532,14.1218,14.0449,13.7873,13.4851,13.1504,12.7884,12.5255,0.0,0.0,0.0,0.0,0.0,0.0,0.0,0.0,0.0,0.0,0.0,0.0,0.0,0.0,0.0,0.0,0.0,0.0,0.0,0.0,0.0,0.0,0.0,11.6704,0.0,0.0,0.0,0.0,0.0,0.0,0.0,0.0,0.0,12.1646,12.3364,12.4969,12.6465,12.7354,12.8344,12.9549,0.0,0.0,0.0,0.0,0.0,0.0,0.0,12.7025,12.6767,12.6122,12.5657,12.5616,12.4419,12.3072,12.1848,0.0,0.0,11.8554,11.7941,11.7744,11.76,11.8045,11.8574,11.9037,11.9364,11.9971,0.0,0.0,0.0,0.0,0.0,0.0,0.0,0.0,0.0,11.1515,11.153,0.0,0.0,0.0,0.0,0.0,0.0,0.0,0.0,0.0,0.0,0.0,11.7745,11.8197,0.0,0.0,0.0,0.0,0.0,0.0,0.0,0.0,0.0,0.0,0.0,0.0,13.3575,13.602,13.7927,13.9484,14.0694,14.0711,14.0358,13.9607,13.7384,13.4657,13.1124,0.0,0.0,0.0,0.0,0.0,0.0,0.0,0.0,0.0,0.0,0.0,0.0,0.0,0.0,0.0,0.0,0.0,0.0,0.0,0.0,0.0,0.0,0.0,0.0,0.0,11.4603,0.0,0.0,0.0,0.0,0.0,0.0,0.0,0.0,0.0,0.0,12.2039,12.3651,12.5609,12.6126,12.6966,12.8741,12.8802,12.8622,0.0,0.0,0.0,0.0,0.0,0.0,0.0,0.0,0.0,0.0,0.0,0.0,0.0,0.0,11.7281,11.716,11.6951,11.6674,11.6551,0.0,0.0,0.0,0.0,0.0,0.0,0.0,0.0,0.0,0.0,0.0,0.0,0.0,0.0,0.0,11.1663,0.0,0.0,11.1663,0.0,0.0,0.0,0.0,0.0,0.0,0.0,0.0,0.0,0.0,0.0,0.0,0.0,0.0,0.0,0.0,0.0,0.0,0.0,0.0,0.0,0.0,13.2969,13.526,13.8446,14.0214,14.0284,14.0998,14.0487,13.8759,13.6112,13.3646,13.141,0.0,0.0,0.0,0.0,0.0,0.0,0.0,0.0,0.0,0.0,0.0,0.0,0.0,0.0,0.0,0.0,0.0,0.0,0.0,0.0,0.0,0.0,0.0,0.0,0.0,0.0,11.5626,11.5503,11.5255,0.0,0.0,0.0,0.0,0.0,0.0,0.0,0.0,0.0,12.6038,12.6717,12.738,12.8938,12.9134,12.8991,12.8726,12.8917,12.8785,12.792,12.7704,12.6851,0.0,0.0,0.0,0.0,0.0,0.0,0.0,0.0,0.0,0.0,0.0,0.0,0.0,0.0,0.0,0.0,0.0,0.0,0.0,0.0,0.0,0.0,0.0,0.0,0.0,0.0,0.0,0.0,0.0,0.0,0.0,0.0,0.0,0.0,0.0,0.0,0.0,0.0,0.0,0.0,0.0,0.0,0.0,0.0,0.0,0.0,0.0,0.0,0.0,0.0,0.0,0.0,0.0,0.0,13.0479,13.4004,13.6023,13.7703,13.9093,13.908,13.8558,13.7542,13.5463,13.3146,0.0,0.0,0.0,0.0,0.0,0.0,0.0,0.0,0.0,0.0,0.0,0.0,0.0,0.0,0.0,0.0,0.0,0.0,0.0,0.0,0.0,0.0,0.0,0.0,0.0,0.0,0.0,0.0,11.3026,11.3365,11.4421,0.0,0.0,0.0,0.0,0.0,0.0,0.0,0.0,0.0,0.0,12.5215,12.6685,12.6968,12.694,12.6858,12.6568,12.6317,12.6032,12.5191,12.427,12.3254,0.0,0.0,0.0,0.0,0.0,0.0,0.0,0.0,0.0,0.0,0.0,0.0,0.0,0.0,0.0,0.0,0.0,0.0,0.0,0.0,0.0,0.0,0.0,0.0,0.0,0.0,0.0,0.0,0.0,0.0,0.0,0.0,0.0,0.0,0.0,0.0,0.0,0.0,0.0,0.0,0.0,0.0,0.0,0.0,0.0,0.0,0.0,0.0,0.0,0.0,0.0,0.0,0.0,12.9557,13.3445,13.5302,13.6975,13.8666,13.8423,13.7651,13.6397,13.4457,13.1933,0.0,0.0,0.0,0.0,0.0,0.0,0.0,0.0,0.0,0.0,0.0,0.0,0.0,0.0,0.0,0.0,0.0,0.0,0.0,0.0,0.0,0.0,0.0,0.0,0.0,0.0,0.0,0.0,11.1278,11.1848,11.3409,0.0,0.0,0.0,0.0,0.0,0.0,0.0,0.0,0.0,0.0,12.4351,12.5912,12.6112,0.0,0.0,12.5719,12.5395,12.5246,12.4331,12.322,12.2127,12.1416,0.0,0.0,0.0,0.0,0.0,0.0,0.0,0.0,0.0,0.0,0.0,0.0,0.0,0.0,0.0,0.0,0.0,0.0,0.0,0.0,0.0,0.0,0.0,0.0,0.0,0.0,0.0,0.0,0.0,0.0,0.0,0.0,0.0,0.0,0.0,0.0,0.0,0.0,0.0,0.0,0.0,0.0,0.0,0.0,0.0,0.0,0.0,0.0,0.0,0.0,0.0,0.0,12.9465,13.3321,13.556,13.7355,13.8778,13.8626,13.7473,13.5388,13.3334,13.0296,0.0,0.0,0.0,0.0,0.0,0.0,0.0,0.0,0.0,0.0,0.0,0.0,0.0,0.0,0.0,0.0,0.0,0.0,0.0,0.0,0.0,0.0,0.0,0.0,0.0,0.0,0.0,0.0,0.0,0.0,0.0,0.0,0.0,0.0,0.0,0.0,0.0,0.0,0.0,0.0,0.0,12.4406,12.5842,12.6055,12.5965,0.0,12.5711,12.5512,12.4988,12.4392,12.3121,12.0823,0.0,0.0,0.0,0.0,0.0,0.0,0.0,0.0,0.0,0.0,0.0,0.0,0.0,0.0,0.0,0.0,0.0,0.0,0.0,0.0,0.0,0.0,0.0,0.0,0.0,0.0,0.0,0.0,0.0,0.0,0.0,0.0,0.0,0.0,0.0,0.0,0.0,0.0,0.0,0.0,0.0,0.0,0.0,0.0,0.0,0.0,0.0,0.0,0.0,0.0,0.0,0.0,0.0,0.0,13.1713,13.3663,13.5631,13.7615,13.7415,13.6961,13.6286,13.3157,0.0,0.0,0.0,0.0,0.0,0.0,0.0,0.0,0.0,0.0,0.0,0.0,0.0,0.0,0.0,0.0,0.0,0.0,0.0,0.0,0.0,0.0,0.0,0.0,0.0,0.0,0.0,10.8198,0.0,0.0,0.0,0.0,0.0,0.0,0.0,0.0,0.0,0.0,0.0,0.0,0.0,0.0,12.2662,12.3102,12.3102,12.3149,0.0,0.0,12.2673,12.2314,12.1815,12.1026,0.0,0.0,0.0,0.0,0.0,0.0,0.0,0.0,0.0,0.0,0.0,0.0,0.0,0.0,0.0,0.0,0.0,0.0,0.0,0.0,0.0,0.0,0.0,0.0,0.0,0.0,0.0,0.0,0.0,0.0,0.0,0.0,0.0,0.0,0.0,0.0,0.0,0.0,0.0,0.0,0.0,0.0,0.0,0.0,0.0,0.0,0.0,0.0,0.0,0.0,0.0,0.0,0.0,0.0,12.5222,12.9924,13.209,13.4157,13.6165,13.6103,13.5588,13.475,13.1765,12.8765,0.0,0.0,0.0,0.0,0.0,0.0,0.0,0.0,0.0,0.0,0.0,0.0,0.0,0.0,0.0,0.0,0.0,0.0,0.0,0.0,0.0,0.0,0.0,0.0,0.0,0.0,0.0,0.0,0.0,0.0,0.0,0.0,0.0,0.0,0.0,0.0,0.0,0.0,0.0,0.0,0.0,0.0,12.1916,12.15,0.0,0.0,0.0,12.1641,12.1479,0.0,0.0,0.0,0.0,0.0,0.0,0.0,0.0,0.0,0.0,0.0,0.0,0.0,0.0,0.0,0.0,0.0,0.0,0.0,0.0,0.0,0.0,0.0,0.0,0.0,0.0,0.0,0.0,0.0,0.0,0.0,0.0,0.0,0.0,0.0,0.0,0.0,0.0,0.0,0.0,0.0,0.0,0.0,0.0,0.0,0.0,0.0,0.0,0.0,0.0,0.0,0.0,0.0,0.0,0.0,0.0,0.0,12.8207,13.0877,13.3009,13.457,13.4655,13.3918,13.2317,12.9976,12.6942,0.0,0.0,0.0,0.0,0.0,0.0,0.0,0.0,0.0,0.0,0.0,0.0,0.0,0.0,0.0,0.0,0.0,0.0,0.0,0.0,0.0,0.0,0.0,0.0,0.0,0.0,0.0,0.0,0.0,0.0,0.0,0.0,0.0,0.0,0.0,0.0,0.0,0.0,0.0,0.0,0.0,11.8421,12.1132,12.0502,12.0228,0.0,0.0,12.1728,12.1691,12.1111,0.0,0.0,0.0,0.0,0.0,0.0,0.0,0.0,0.0,0.0,0.0,0.0,0.0,0.0,0.0,0.0,0.0,0.0,0.0,0.0,0.0,0.0,0.0,0.0,0.0,0.0,0.0,0.0,0.0,0.0,0.0,0.0,0.0,0.0,0.0,0.0,0.0,0.0,0.0,0.0,0.0,0.0,0.0,0.0,0.0,0.0,0.0,0.0,0.0,0.0,0.0,0.0,0.0,0.0,0.0,0.0,12.6926,13.0403,13.2561,13.3313,13.3299,13.3214,13.2747,12.9513,12.6567,0.0,0.0,0.0,0.0,0.0,0.0,0.0,0.0,0.0,0.0,0.0,0.0,0.0,0.0,0.0,0.0,0.0,0.0,0.0,0.0,0.0,0.0,0.0,0.0,0.0,0.0,0.0,0.0,0.0,0.0,0.0,0.0,0.0,0.0,0.0,0.0,0.0,0.0,0.0,0.0,0.0,11.7648,11.8219,11.9158,0.0,0.0,0.0,0.0,12.1728,12.1566,0.0,0.0,0.0,0.0,0.0,0.0,0.0,0.0,0.0,0.0,0.0,0.0,0.0,0.0,0.0,0.0,0.0,0.0,0.0,0.0,0.0,0.0,0.0,0.0,0.0,0.0,0.0,0.0,0.0,0.0,0.0,0.0,0.0,0.0,0.0,0.0,0.0,0.0,0.0,0.0,0.0,0.0,0.0,0.0,0.0,0.0,0.0,0.0,0.0,0.0,0.0,0.0,0.0,0.0,0.0,0.0,12.5287,12.8482,13.0684,13.1781,13.1989,13.2003,13.1794,12.827,12.5642,0.0,0.0,0.0,0.0,0.0,0.0,0.0,0.0,0.0,0.0,0.0,0.0,0.0,0.0,0.0,0.0,0.0,0.0,0.0,0.0,0.0,0.0,0.0,0.0,0.0,0.0,0.0,0.0,0.0,0.0,0.0,0.0,0.0,0.0,0.0,0.0,0.0,0.0,0.0,0.0,11.615,11.5733,11.7231,0.0,0.0,0.0,0.0,0.0,0.0,12.0639,12.0689,0.0,0.0,0.0,0.0,0.0,0.0,0.0,0.0,0.0,0.0,0.0,0.0,0.0,0.0,0.0,0.0,0.0,0.0,0.0,0.0,0.0,0.0,0.0,0.0,0.0,0.0,0.0,0.0,0.0,0.0,0.0,0.0,0.0,0.0,0.0,0.0,0.0,0.0,0.0,0.0,0.0,0.0,0.0,0.0,0.0,0.0,0.0,0.0,0.0,0.0,0.0,0.0,0.0,0.0,0.0,12.403,12.6654,12.8869,13.0644,13.1083,13.0941,13.015,12.6956,12.4757,12.3585,0.0,0.0,0.0,0.0,0.0,0.0,0.0,0.0,0.0,0.0,0.0,0.0,0.0,0.0,0.0,0.0,0.0,0.0,0.0,0.0,0.0,0.0,0.0,0.0,0.0,0.0,0.0,0.0,0.0,0.0,0.0,0.0,0.0,0.0,0.0,0.0,0.0,0.0,0.0,11.4377,11.3664,0.0,0.0,0.0,0.0,0.0,0.0,0.0,0.0,11.9451,0.0,0.0,0.0,0.0,0.0,0.0,0.0,0.0,0.0,0.0,0.0,0.0,0.0,0.0,0.0,0.0,0.0,0.0,0.0,0.0,0.0,0.0,0.0,0.0,0.0,0.0,0.0,0.0,0.0,0.0,0.0,0.0,0.0,0.0,0.0,0.0,0.0,0.0,0.0,0.0,0.0,0.0,0.0,0.0,0.0,0.0,0.0,0.0,0.0,0.0,0.0,0.0,0.0,0.0,0.0,0.0,12.7079,12.9181,13.1026,13.1389,13.0572,12.8689,12.6595,12.4703,12.2956,0.0,0.0,0.0,0.0,0.0,0.0,0.0,0.0,0.0,0.0,0.0,0.0,0.0,0.0,0.0,0.0,0.0,0.0,0.0,0.0,0.0,0.0,0.0,0.0,0.0,0.0,0.0,0.0,0.0,0.0,0.0,0.0,0.0,0.0,0.0,0.0,0.0,0.0,11.3461,11.3022,0.0,0.0,0.0,0.0,0.0,0.0,0.0,0.0,11.7696,0.0,0.0,0.0,0.0,0.0,0.0,0.0,0.0,0.0,0.0,0.0,0.0,0.0,0.0,0.0,0.0,0.0,0.0,0.0,0.0,0.0,0.0,0.0,0.0,0.0,0.0,0.0,0.0,0.0,0.0,0.0,0.0,0.0,0.0,0.0,0.0,0.0,0.0,0.0,0.0,0.0,0.0,0.0,0.0,0.0,0.0,0.0,0.0,0.0,0.0,0.0,0.0,0.0,0.0,0.0,0.0,0.0,0.0,12.7971,12.9799,13.0217,12.9751,12.8463,12.606,12.3394,0.0,0.0,0.0,0.0,0.0,0.0,0.0,0.0,0.0,0.0,0.0,0.0,0.0,0.0,0.0,0.0,0.0,0.0,0.0,0.0,0.0,0.0,0.0,0.0,0.0,0.0,0.0,0.0,0.0,0.0,0.0,0.0,0.0,0.0,0.0,0.0,0.0,0.0,0.0,0.0,0.0,0.0,0.0,0.0,0.0,0.0,0.0,0.0,0.0,0.0,0.0,0.0,0.0,0.0,0.0,0.0,0.0,0.0,0.0,0.0,0.0,0.0,0.0,0.0,0.0,0.0,0.0,0.0,0.0,0.0,0.0,0.0,0.0,0.0,0.0,0.0,0.0,0.0,0.0,0.0,0.0,0.0,0.0,0.0,0.0,0.0,0.0,0.0,0.0,0.0,0.0,0.0,0.0,0.0,0.0,0.0,0.0,0.0,0.0,0.0,0.0,0.0,0.0,0.0,0.0,0.0,0.0,0.0,12.6417,12.8228,12.8604,12.8435,12.7723,12.4653,12.1553,0.0,0.0,0.0,0.0,0.0,0.0,0.0,0.0,0.0,0.0,0.0,0.0,0.0,0.0,0.0,0.0,0.0,0.0,0.0,0.0,0.0,0.0,0.0,0.0,0.0,0.0,0.0,0.0,0.0,0.0,0.0,0.0,0.0,0.0,0.0,0.0,0.0,0.0,0.0,0.0,0.0,0.0,0.0,0.0,0.0,0.0,0.0,0.0,11.4355,0.0,0.0,0.0,0.0,0.0,0.0,0.0,0.0,0.0,0.0,0.0,0.0,0.0,0.0,0.0,0.0,0.0,0.0,0.0,0.0,0.0,0.0,0.0,0.0,0.0,0.0,0.0,0.0,0.0,0.0,0.0,0.0,0.0,0.0,0.0,0.0,0.0,0.0,0.0,0.0,0.0,0.0,0.0,0.0,0.0,0.0,0.0,0.0,0.0,0.0,0.0,0.0,0.0,0.0,0.0,0.0,0.0,0.0,0.0,12.5168,12.7086,12.7111,12.6285,12.4523,12.1453,11.9528,0.0,0.0,0.0,0.0,0.0,0.0,0.0,0.0,0.0,0.0,0.0,0.0,0.0,0.0,0.0,0.0,0.0,0.0,0.0,0.0,0.0,0.0,0.0,0.0,0.0,0.0,0.0,0.0,0.0,0.0,0.0,0.0,0.0,0.0,0.0,0.0,0.0,0.0,0.0,0.0,0.0,0.0,0.0,0.0,0.0,0.0,0.0,0.0,0.0,0.0,0.0,0.0,0.0,0.0,0.0,0.0,0.0,0.0,0.0,0.0,0.0,0.0,0.0,0.0,0.0,0.0,0.0,0.0,0.0,0.0,0.0,0.0,0.0,0.0,0.0,0.0,0.0,0.0,0.0,0.0,0.0,0.0,0.0,0.0,0.0,0.0,0.0,0.0,0.0,0.0,0.0,0.0,0.0,0.0,0.0,0.0,0.0,0.0,0.0,0.0,0.0,0.0,0.0,0.0,0.0,0.0,0.0,0.0,12.452,12.5567,12.558,12.4733,12.2957,12.0773,11.9025,0.0,0.0,0.0,0.0,0.0,0.0,0.0,0.0,0.0,0.0,0.0,0.0,0.0,0.0,0.0,0.0,0.0,0.0,0.0,0.0,0.0,0.0,0.0,0.0,0.0,0.0,0.0,0.0,0.0,0.0,0.0,0.0,0.0,0.0,0.0,0.0,0.0,0.0,0.0,0.0,0.0,0.0,0.0,0.0,0.0,0.0,0.0,0.0,0.0,0.0,0.0,0.0,0.0,0.0,0.0,0.0,0.0,0.0,0.0,0.0,0.0,0.0,0.0,0.0,0.0,0.0,0.0,0.0,0.0,0.0,0.0,0.0,0.0,0.0,0.0,0.0,0.0,0.0,0.0,0.0,0.0,0.0,0.0,0.0,0.0,0.0,0.0,0.0,0.0,0.0,0.0,0.0,0.0,0.0,0.0,0.0,0.0,0.0,0.0,0.0,0.0,0.0,0.0,0.0,0.0,0.0,0.0,0.0,0.0,12.3938,12.3951,12.3154,12.15,11.9943,11.8172,0.0,0.0,0.0,0.0,0.0,0.0,0.0,0.0,0.0,0.0,0.0,0.0,0.0,0.0,0.0,0.0,0.0,0.0,0.0,0.0,0.0,0.0,0.0,0.0,0.0,0.0,0.0,0.0,0.0,0.0,0.0,0.0,0.0,0.0,0.0,0.0,0.0,0.0,0.0,0.0,0.0,0.0,0.0,0.0,0.0,0.0,0.0,0.0,0.0,0.0,0.0,0.0,0.0,0.0,0.0,0.0,0.0,0.0,0.0,0.0,0.0,0.0,0.0,0.0,0.0,0.0,0.0,0.0,0.0,0.0,0.0,0.0,0.0,0.0,0.0,0.0,0.0,0.0,0.0,0.0,0.0,0.0,0.0,0.0,0.0,0.0,0.0,0.0,0.0,0.0,0.0,0.0,0.0,0.0,0.0,0.0,0.0,0.0,0.0,0.0,0.0,0.0,0.0,0.0,0.0,0.0,0.0,0.0,0.0,12.2202,12.2202,12.15,11.9955,11.8361,11.6675,0.0,0.0,0.0,0.0,0.0,0.0,0.0,0.0,0.0,0.0,0.0,0.0,0.0,0.0,0.0,0.0,0.0,0.0,0.0,0.0,0.0,0.0,0.0,0.0,0.0,0.0,0.0,0.0,0.0,0.0,0.0,0.0,0.0,0.0,0.0,0.0,0.0,0.0,0.0,0.0,0.0,0.0,0.0,0.0,0.0,0.0,0.0,0.0,0.0,0.0,0.0,0.0,0.0,0.0,0.0,0.0,0.0,0.0,0.0,0.0,0.0,0.0,0.0,0.0,0.0,0.0,0.0,0.0,0.0,0.0,0.0,0.0,0.0,0.0,0.0,0.0,0.0,0.0,0.0,0.0,0.0,0.0,0.0,0.0,0.0,0.0,0.0,0.0,0.0,0.0,0.0,0.0,0.0,0.0,0.0,0.0,0.0,0.0,0.0,0.0,0.0,0.0,0.0,0.0,0.0,0.0,0.0,0.0,0.0,12.2059,12.2059,12.1358,11.9812,11.8219,11.6533,11.478,0.0,0.0,0.0,0.0,0.0,0.0,0.0,0.0,0.0,0.0,0.0,0.0,0.0,0.0,0.0,0.0,0.0,0.0,0.0,0.0,0.0,0.0,0.0,0.0,0.0,0.0,0.0,0.0,0.0,0.0,0.0,0.0,0.0,0.0,0.0,0.0,0.0,0.0,0.0,0.0,0.0,0.0,0.0,0.0,0.0,0.0,0.0,0.0,0.0,0.0,0.0,0.0,0.0,0.0,0.0,0.0,0.0,0.0,0.0,0.0,0.0,0.0,0.0,0.0,0.0,0.0,0.0,0.0,0.0,0.0,0.0,0.0,0.0,0.0,0.0,0.0,0.0,0.0,0.0,0.0,0.0,0.0,0.0,0.0,0.0,0.0,0.0,0.0,0.0,0.0,0.0,0.0,0.0,0.0,0.0,0.0,0.0,0.0,0.0,0.0,0.0,0.0,0.0,0.0,0.0,0.0,0.0,0.0,12.1286,12.1358,12.0573,11.9015,11.7505,11.5855,0.0,0.0,0.0,0.0,0.0,0.0,0.0,0.0,0.0,0.0,0.0,0.0,0.0,0.0,0.0,0.0,0.0,0.0,0.0,0.0,0.0,0.0,0.0,0.0,0.0,0.0,0.0,0.0,0.0,0.0,0.0,0.0,0.0,0.0,0.0,0.0,0.0,0.0,0.0,0.0,0.0,0.0,0.0,0.0,0.0,0.0,0.0,0.0,0.0,0.0,0.0,0.0,0.0,0.0,0.0,0.0,0.0,0.0,0.0,0.0,0.0,0.0,0.0,0.0,0.0,0.0,0.0,0.0,0.0,0.0,0.0,0.0,0.0,0.0,0.0,0.0,0.0,0.0,0.0,0.0,0.0,0.0,0.0,0.0,0.0,0.0,0.0,0.0,0.0,0.0,0.0,0.0,0.0,0.0,0.0,0.0,0.0,0.0,0.0,0.0,0.0,0.0,0.0,0.0,0.0,0.0,0.0,0.0,11.6709,11.9598,11.98,11.9087,11.7445,11.5995,11.4426,0.0,0.0,0.0,0.0,0.0,0.0,0.0,0.0,0.0,0.0,0.0,0.0,0.0,0.0,0.0,0.0,0.0,0.0,0.0,0.0,0.0,0.0,0.0,0.0,0.0,0.0,0.0,0.0,0.0,0.0,0.0,0.0,0.0,0.0,0.0,0.0,0.0,0.0,0.0,0.0,0.0,0.0,0.0,0.0,0.0,0.0,0.0,0.0,0.0,0.0,0.0,0.0,0.0,0.0,0.0,0.0,0.0,0.0,0.0,0.0,0.0,0.0,0.0,0.0,0.0,0.0,0.0,0.0,0.0,0.0,0.0,0.0,0.0,0.0,0.0,0.0,0.0,0.0,0.0,0.0,0.0,0.0,0.0,0.0,0.0,0.0,0.0,0.0,0.0,0.0,0.0,0.0,0.0,0.0,0.0,0.0,0.0,0.0,0.0,0.0,0.0,0.0,0.0,0.0,0.0,0.0,0.0,0.0,0.0,11.8088,0.0,11.8444,0.0,11.5353,11.4355,0.0,0.0,0.0,0.0,0.0,0.0,0.0,0.0,0.0,0.0,0.0,0.0,0.0,0.0,0.0,0.0,0.0,0.0,0.0,0.0,0.0,0.0,0.0,0.0,0.0,0.0,0.0,0.0,0.0,0.0,0.0,0.0,0.0,0.0,0.0,0.0,0.0,0.0,0.0,0.0,0.0,0.0,0.0,0.0,0.0,0.0,0.0,0.0,0.0,0.0,0.0,0.0,0.0,0.0,0.0,0.0,0.0,0.0,0.0,0.0,0.0,0.0,0.0,0.0,0.0,0.0,0.0,0.0,0.0,0.0,0.0,0.0,0.0,0.0,0.0,0.0,0.0,0.0,0.0,0.0,0.0,0.0,0.0,0.0,0.0,0.0,0.0,0.0,0.0,0.0,0.0,0.0,0.0,0.0,0.0,0.0,0.0,0.0,0.0,0.0,0.0,0.0,0.0,0.0,0.0,0.0,0.0,0.0,0.0,11.6506,11.7505,11.7077,11.5199,11.4497,11.3795,0.0,0.0,0.0,0.0,0.0,0.0,0.0,0.0,0.0,0.0,0.0,0.0,0.0,0.0,0.0,0.0,0.0,0.0,0.0,0.0,0.0,0.0,0.0,0.0,0.0,0.0,0.0,0.0,0.0,0.0,0.0,0.0,0.0,0.0,0.0,0.0,0.0,0.0,0.0,0.0,0.0,0.0,0.0,0.0,0.0,0.0,0.0,0.0,0.0,0.0,0.0,0.0,0.0,0.0,0.0,0.0,0.0,0.0,0.0,0.0,0.0,0.0,0.0,0.0,0.0,0.0,0.0,0.0,0.0,0.0,0.0,0.0,0.0,0.0,0.0,0.0,0.0,0.0,0.0,0.0,0.0,0.0,0.0,0.0,0.0,0.0,0.0,0.0,0.0,0.0,0.0,0.0,0.0,0.0,0.0,0.0,0.0,0.0,0.0,0.0,0.0,0.0,0.0,0.0,0.0,0.0,0.0,0.0,0.0,11.5057,11.5057,11.4985,11.5045,11.3581,11.2747,0.0,0.0,0.0,0.0,0.0,0.0,0.0,0.0,0.0,0.0,0.0,0.0,0.0,0.0,0.0,0.0,0.0,0.0,0.0,0.0,0.0,0.0,0.0,0.0,0.0,0.0,0.0,0.0,0.0,0.0,0.0,0.0,0.0,0.0,0.0,0.0,0.0,0.0,0.0,0.0,0.0,0.0,0.0,0.0,0.0,0.0,0.0,0.0,0.0,0.0,0.0,0.0,0.0,0.0,0.0,0.0,0.0,0.0,0.0,0.0,0.0,0.0,0.0,0.0,0.0,0.0,0.0,0.0,0.0,0.0,0.0,0.0,0.0,0.0,0.0,0.0,0.0,0.0,0.0,0.0,0.0,0.0,0.0,0.0,0.0,0.0,0.0,0.0,0.0,0.0,0.0,0.0,0.0,0.0,0.0,0.0,0.0,0.0,0.0,0.0,0.0,0.0,0.0,0.0,0.0,0.0,0.0,0.0,0.0,0.0,11.3938,11.3938,11.4914,11.3592,11.2747,11.2747,0.0,0.0,0.0,0.0,0.0,0.0,0.0,0.0,0.0,0.0,0.0,0.0,0.0,0.0,0.0,0.0,0.0,0.0,0.0,0.0,0.0,0.0,0.0,0.0,0.0,0.0,0.0,0.0,0.0,0.0,0.0,0.0,0.0,0.0,0.0,0.0,0.0,0.0,0.0,0.0,0.0,0.0,0.0,0.0,0.0,0.0,0.0,0.0,0.0,0.0,0.0,0.0,0.0,0.0,0.0,0.0,0.0,0.0,0.0,0.0,0.0,0.0,0.0,0.0,0.0,0.0,0.0,0.0,0.0,0.0,0.0,0.0,0.0,0.0,0.0,0.0,0.0,0.0,0.0,0.0,0.0,0.0,0.0,0.0,0.0,0.0,0.0,0.0,0.0,0.0,0.0,0.0,0.0,0.0,0.0,0.0,0.0,0.0,0.0,0.0,0.0,0.0,0.0,0.0,0.0,0.0,0.0,0.0,0.0,0.0,11.3164,11.4081,11.3236,11.2747,0.0,0.0,0.0,0.0,0.0,0.0,0.0,0.0,0.0,0.0,0.0,0.0,0.0,0.0,0.0,0.0,0.0,0.0,0.0,0.0,0.0,0.0,0.0,0.0,0.0,0.0,0.0,0.0,0.0,0.0,0.0,0.0,0.0,0.0,0.0,0.0,0.0,0.0,0.0,0.0,0.0,0.0,0.0,0.0,0.0,0.0,0.0,0.0,0.0,0.0,0.0,0.0,0.0,0.0,0.0,0.0,0.0,0.0,0.0,0.0,0.0,0.0,0.0,0.0,0.0,0.0,0.0,0.0,0.0,0.0,0.0,0.0,0.0,0.0,0.0,0.0,0.0,0.0,0.0,0.0,0.0,0.0,0.0,0.0,0.0,0.0,0.0,0.0,0.0,0.0,0.0,0.0,0.0,0.0,0.0,0.0,0.0,0.0,0.0,0.0,0.0,0.0,0.0,0.0,0.0,0.0,0.0,0.0,0.0,0.0,0.0,11.2747,11.2747,11.2747,0.0,11.2533,0.0,0.0,0.0,0.0,0.0,0.0,0.0,0.0,0.0,0.0,0.0,0.0,0.0,0.0,0.0,0.0,0.0,0.0,0.0,0.0,0.0,0.0,0.0,0.0,0.0,0.0,0.0,0.0,0.0,0.0,0.0,0.0,0.0,0.0,0.0,0.0,0.0,0.0,0.0,0.0,0.0,0.0,0.0,0.0,0.0,0.0,0.0,0.0,0.0,0.0,0.0,0.0,0.0,0.0,0.0,0.0,0.0,0.0,0.0,0.0,0.0,0.0,0.0,0.0,0.0,0.0,0.0,0.0,0.0,0.0,0.0,0.0,0.0,0.0,0.0,0.0,0.0,0.0,0.0,0.0,0.0,0.0,0.0,0.0,0.0,0.0,0.0,0.0,0.0,0.0,0.0,0.0,0.0,0.0,0.0,0.0,0.0,0.0,0.0,0.0,0.0,0.0,0.0,0.0,0.0,0.0,0.0,0.0,0.0,0.0,0.0,0.0,11.2747,11.2747,11.2676,0.0,0.0,0.0,0.0,0.0,0.0,0.0,0.0,0.0,0.0,0.0,0.0,0.0,0.0,0.0,0.0,0.0,0.0,0.0,0.0,0.0,0.0,0.0,0.0,0.0,0.0,0.0,0.0,0.0,0.0,0.0,0.0,0.0,0.0,0.0,0.0,0.0,0.0,0.0,0.0,0.0,0.0,0.0,0.0,0.0,0.0,0.0,0.0,0.0,0.0,0.0,0.0,0.0,0.0,0.0,0.0,0.0,0.0,0.0,0.0,0.0,0.0,0.0,0.0,0.0,0.0,0.0,0.0,0.0,0.0,0.0,0.0,0.0,0.0,0.0,0.0,0.0,0.0,0.0,0.0,0.0,0.0,0.0,0.0,0.0,0.0,0.0,0.0,0.0,0.0,0.0,0.0,0.0,0.0,0.0,0.0,0.0,0.0,0.0,0.0,0.0,0.0,0.0,0.0,0.0,0.0,0.0,0.0,0.0,0.0,11.2747,11.2747,11.2747,11.2747,11.2676,0.0,0.0,0.0,0.0,0.0,0.0,0.0,0.0,0.0,0.0,0.0,0.0,0.0,0.0,0.0,0.0,0.0,0.0,0.0,0.0,0.0,0.0,0.0,0.0,0.0,0.0,0.0,0.0,0.0,0.0,0.0,0.0,0.0,0.0,0.0,0.0,0.0,0.0,0.0,0.0,0.0,0.0,0.0,0.0,0.0,0.0,0.0,0.0,0.0,0.0,0.0,0.0,0.0,0.0,0.0,0.0,0.0,0.0,0.0,0.0,0.0,0.0,0.0,0.0,0.0,0.0,0.0,0.0,0.0,0.0,0.0,0.0,0.0,0.0,0.0,0.0,0.0,0.0,0.0,0.0,0.0,0.0,0.0,0.0,0.0,0.0,0.0,0.0,0.0,0.0,0.0,0.0,0.0,0.0,0.0,0.0,0.0,0.0,0.0,0.0,0.0,0.0,0.0,0.0,0.0,0.0,0.0,0.0,0.0,0.0,0.0,0.0,0.0,0.0,11.2391,0.0,0.0,0.0,0.0,0.0,0.0,0.0,0.0,0.0,0.0,0.0,0.0,0.0,0.0,0.0,0.0,0.0,0.0,0.0,0.0,0.0,0.0,0.0,0.0,0.0,0.0,0.0,0.0,0.0,0.0,0.0,0.0,0.0,0.0,0.0,0.0,0.0,0.0,0.0,0.0,0.0,0.0,0.0,0.0,0.0,0.0,0.0,0.0,0.0,0.0,0.0,0.0,0.0,0.0,0.0,0.0,0.0,0.0,0.0,0.0,0.0,0.0,0.0,0.0,0.0,0.0,0.0,0.0,0.0,0.0,0.0,0.0,0.0,0.0,0.0,0.0,0.0,0.0,0.0,0.0,0.0,0.0,0.0,0.0,0.0,0.0,0.0,0.0,0.0,0.0,0.0,0.0,0.0,0.0,0.0,0.0,0.0,0.0,0.0,0.0,0.0,0.0,0.0,0.0,0.0,0.0,0.0,0.0,0.0,0.0,0.0,0.0,0.0,0.0,0.0,0.0,0.0,0.0,0.0,0.0,0.0,0.0,0.0,0.0,0.0,0.0,0.0,0.0,0.0,0.0,0.0,0.0,0.0,0.0,0.0,0.0,0.0,0.0,0.0,0.0,0.0,0.0,0.0,0.0,0.0,0.0,0.0,0.0,0.0,0.0,0.0,0.0,0.0,0.0,0.0,0.0,0.0,0.0,0.0,0.0,0.0,0.0,0.0,0.0,0.0,0.0,0.0,0.0,0.0,0.0,0.0,0.0,0.0,0.0,0.0,0.0,0.0,0.0,0.0,0.0,0.0,0.0,0.0,0.0,0.0,0.0,0.0,0.0,0.0,0.0,0.0,0.0,0.0,0.0,0.0,0.0,0.0,0.0,0.0,0.0,0.0,0.0,0.0,0.0,0.0,0.0,0.0,0.0,0.0,0.0,0.0,0.0,0.0,0.0,0.0,0.0,0.0,0.0,0.0,0.0,0.0,0.0,0.0,0.0,0.0,0.0,0.0,0.0,0.0,0.0,0.0,0.0,0.0,0.0,0.0,0.0,0.0,0.0,0.0,0.0,0.0,0.0,0.0,0.0,0.0,0.0,0.0,0.0,0.0,0.0,0.0,0.0,0.0,0.0,0.0,0.0,0.0,0.0,0.0,0.0,0.0,0.0,0.0,0.0,0.0,0.0,0.0,0.0,0.0,0.0,0.0,0.0,0.0,0.0,0.0,0.0,0.0,0.0,0.0,0.0,0.0,0.0,0.0,0.0,0.0,0.0,0.0,0.0,0.0,0.0,0.0,0.0,0.0,0.0,0.0,0.0,0.0,0.0,0.0,0.0,0.0,0.0,0.0,0.0,0.0,0.0,0.0,0.0,0.0,0.0,0.0,0.0,0.0,0.0,0.0,0.0,0.0,0.0,0.0,0.0,0.0,0.0,0.0,0.0,0.0,0.0,0.0,0.0,0.0,0.0,0.0,0.0,0.0,0.0,0.0,0.0,0.0,0.0,0.0,0.0,0.0,0.0,0.0,0.0,0.0,0.0,0.0,0.0,0.0,0.0,0.0,0.0,0.0,0.0,0.0,0.0,0.0,0.0,0.0,0.0,0.0,0.0,0.0,0.0,0.0,0.0,0.0,0.0,0.0,0.0,0.0,0.0,0.0,0.0,0.0,0.0,0.0,0.0,0.0,0.0,0.0,0.0,0.0,0.0,0.0,0.0,0.0,0.0,0.0,0.0,0.0,0.0,0.0,0.0,0.0,0.0,0.0,0.0,0.0,0.0,0.0,0.0,0.0,0.0,0.0,0.0,0.0,0.0,0.0,0.0,0.0,0.0,0.0,0.0,0.0,0.0,0.0,0.0,0.0,0.0,0.0,0.0,0.0,0.0,0.0,0.0,0.0,0.0,0.0,0.0,0.0,0.0,0.0,0.0,0.0,0.0,0.0,0.0,0.0,0.0,0.0,0.0,0.0,0.0,0.0,0.0,0.0,0.0,0.0,0.0,0.0,0.0,0.0,0.0,0.0,0.0,0.0,0.0,0.0,0.0,0.0,0.0,0.0,0.0,0.0,0.0,0.0,0.0,0.0,0.0,0.0,0.0,0.0,0.0,0.0,0.0,0.0,0.0,0.0,0.0,0.0,0.0,0.0,0.0,0.0,0.0,0.0,0.0,0.0,0.0,0.0,0.0,0.0,0.0,0.0,0.0,0.0,0.0,0.0,0.0,0.0,0.0,0.0,0.0,0.0,0.0,0.0,0.0,0.0,0.0,0.0,0.0,0.0,0.0,0.0,0.0,0.0,0.0,0.0,0.0,0.0,0.0,0.0,0.0,0.0,0.0,0.0,0.0,0.0,0.0,0.0,0.0,0.0,0.0,0.0,0.0,0.0,0.0,0.0,0.0,0.0,0.0,0.0,0.0,0.0,0.0,0.0,0.0,0.0,0.0,0.0,0.0,0.0,0.0,0.0,0.0,0.0,0.0,0.0,0.0,0.0,0.0,0.0,0.0,0.0,0.0,0.0,0.0,0.0,0.0,0.0,0.0,0.0,0.0,0.0,0.0,0.0,0.0,0.0,0.0,0.0,0.0,0.0,0.0,0.0,0.0,0.0,0.0,0.0,0.0,0.0,0.0,0.0,0.0,0.0,0.0,0.0,0.0,0.0,0.0,0.0,0.0,0.0,0.0,0.0,0.0,0.0,0.0,0.0,0.0,0.0,0.0,0.0,0.0,0.0,0.0,0.0,0.0,0.0,0.0,0.0,0.0,0.0,0.0,0.0,0.0,0.0,0.0,0.0,0.0,0.0,0.0,0.0,0.0,0.0,0.0,0.0,0.0,0.0,0.0,0.0,0.0,0.0,0.0,0.0,0.0,0.0,0.0,0.0,0.0,0.0,0.0,0.0,0.0,0.0,0.0,0.0,0.0,0.0,0.0,0.0,0.0,0.0,0.0,0.0,0.0,0.0,0.0,0.0,0.0,0.0,0.0,0.0,0.0,0.0,0.0,0.0,0.0,0.0,0.0,0.0,0.0,0.0,0.0,0.0,0.0,0.0,0.0,0.0,0.0,0.0,0.0,0.0,0.0,0.0,0.0,0.0,0.0,0.0,0.0,0.0,0.0,0.0,0.0,0.0,0.0,0.0,0.0,0.0,0.0,0.0,0.0,0.0,0.0,0.0,0.0,0.0,0.0,0.0,0.0,0.0,0.0,0.0,0.0,0.0,0.0,0.0,0.0,0.0,0.0,0.0,0.0,0.0,0.0,0.0,0.0,0.0,0.0,0.0,0.0,0.0,0.0,0.0,0.0,0.0,0.0,0.0,0.0,0.0,0.0,0.0,0.0,0.0,0.0,0.0,0.0,0.0,0.0,0.0,0.0,0.0,0.0,0.0,0.0,0.0,0.0,0.0,0.0,0.0,0.0,0.0,0.0,0.0,0.0,0.0,0.0,0.0,0.0,0.0,0.0,0.0,0.0,0.0,0.0,0.0,0.0,0.0,0.0,0.0,0.0,0.0,0.0,0.0,0.0,0.0,0.0,0.0,0.0,0.0,0.0,0.0,0.0,0.0,0.0,0.0,0.0,0.0,0.0,0.0,0.0,0.0,0.0,0.0,0.0,0.0,0.0,0.0,0.0,0.0,0.0,0.0,0.0,0.0,0.0,0.0,0.0,0.0,0.0,0.0,0.0,0.0,0.0,0.0,0.0,0.0,0.0,0.0,0.0,0.0,0.0,0.0,0.0,0.0,0.0,0.0,0.0,0.0,0.0,0.0,0.0,0.0,0.0,0.0,0.0,0.0,0.0,0.0,0.0,0.0,0.0,0.0,0.0,0.0,0.0,0.0,0.0,0.0,0.0,0.0,0.0,0.0,0.0,0.0,0.0,0.0,0.0,0.0,0.0,0.0,0.0,0.0,0.0,0.0,0.0,0.0,0.0,0.0,0.0,0.0,0.0,0.0,0.0,0.0,0.0,0.0,0.0,0.0,0.0,0.0,0.0,0.0,0.0,0.0,0.0,0.0,0.0,0.0,0.0,0.0,0.0,0.0,0.0,0.0,0.0,0.0,0.0,0.0,0.0,0.0,0.0,0.0,0.0,0.0,0.0,0.0,0.0,0.0,0.0,0.0,0.0,0.0,0.0,0.0,0.0,0.0,0.0,0.0,0.0,0.0,0.0,0.0,0.0,0.0,0.0,0.0,0.0,0.0,0.0,0.0,0.0,0.0,0.0,0.0,0.0,0.0,0.0,0.0,0.0,0.0,0.0,0.0,0.0,0.0,0.0,0.0,0.0,0.0,0.0,0.0,0.0,0.0,0.0,0.0,0.0,0.0,0.0,0.0,0.0,0.0,0.0,0.0,0.0,0.0,0.0,0.0,0.0,0.0,0.0]}],[{"header":{"parameterUnit":"kt","parameterCategory":2,"dx":1,"dy":1,"la1":29.587661999999998,"la2":31.0,"lo1":-88.76705300000003,"lo2":-86.6583820000003,"nx":115,"ny":88,"refTime":"2022-09-26T06:00:00:Z","depth":0,"parameterNumber":2,"parameterNumberName":"V-component_of_WINDS"},"data":[11.7045,11.7045,11.7045,11.7045,11.7045,11.7045,11.7045,11.7004,11.6841,11.6759,11.6391,11.5565,11.4581,11.3753,11.3545,11.2629,11.1077,11.0722,10.9103,10.7566,10.8577,10.846,10.8555,10.9491,11.1739,11.2479,11.2682,11.3209,11.4011,11.4601,11.4899,11.4859,11.4899,11.4713,11.3785,11.3551,11.3411,11.299,11.299,11.2904,11.2569,11.2055,11.0941,11.0801,11.0801,11.0801,11.0801,11.0801,11.0801,11.0801,11.0941,11.1361,11.1782,11.2062,11.2382,11.2756,11.3317,11.3551,11.3831,11.4158,11.4439,11.4392,11.4392,11.4299,11.4299,11.4252,11.3785,11.3785,11.3317,11.3177,11.313,11.3037,11.299,11.299,11.295,11.295,11.3177,11.3364,11.3551,11.3691,11.3878,11.4205,11.4252,11.4252,11.4299,11.4486,11.504,11.5087,11.5227,11.5788,11.6303,11.6256,11.6209,11.6537,11.6443,11.6069,11.5975,11.5508,11.5134,11.5,11.4626,11.3925,11.3558,11.3551,11.3317,11.299,11.253,11.2062,11.1735,11.1587,11.1034,11.0801,11.0847,11.0941,11.1034,11.7045,11.7045,11.7045,11.7045,11.7045,11.7045,11.7004,11.6882,11.6227,11.5853,11.5308,11.3122,11.2212,11.1374,11.0577,10.9859,10.9133,10.8312,10.7831,10.6715,10.5915,10.5687,10.5918,10.6564,10.7946,10.9014,11.0419,11.1445,11.2337,11.2834,11.3172,11.3153,11.3321,11.3598,11.2857,11.2436,11.2249,11.1782,11.1642,11.1408,11.1136,11.0933,11.077,11.0762,11.0801,11.0801,11.0801,11.0801,11.0801,11.0801,11.0847,11.1034,11.1175,11.1268,11.1494,11.1681,11.2203,11.2476,11.2709,11.313,11.3457,11.3738,11.3925,11.3925,11.3918,11.3457,11.2623,11.2156,11.1548,11.1315,11.1315,11.1268,11.1268,11.1268,11.1268,11.1268,11.1642,11.2016,11.2289,11.2569,11.3083,11.3738,11.3831,11.3878,11.3925,11.3972,11.4065,11.4065,11.4252,11.4806,11.5134,11.5134,11.4993,11.4719,11.4532,11.4486,11.4626,11.4252,11.4065,11.4018,11.3785,11.2997,11.253,11.2436,11.2109,11.1689,11.1315,11.1315,11.1175,11.1034,11.0801,11.0801,11.0801,11.0801,11.0801,11.7045,11.7045,11.7045,11.7045,11.7045,11.7045,11.6718,11.6268,11.5812,11.4544,11.2567,11.1483,11.028,10.9052,10.8585,10.7731,10.5854,10.5428,10.462,10.3559,10.2455,10.2734,10.3471,10.4253,10.511,10.6665,10.8462,10.973,11.0808,11.1266,11.1421,11.1219,11.1803,11.186,11.1017,11.126,11.1221,11.077,11.0894,11.0351,10.9409,10.9877,11.0142,11.0336,11.0491,11.0801,11.0801,11.0801,11.0801,11.0801,11.0801,11.0801,11.0801,11.0801,11.0801,11.0988,11.1175,11.1455,11.1595,11.1821,11.2008,11.2008,11.2148,11.239,11.2476,11.2429,11.1595,11.1502,11.0894,11.0801,11.0801,11.0801,11.0801,11.0801,11.0801,11.0801,11.1081,11.1315,11.1455,11.1728,11.2008,11.2569,11.2616,11.2616,11.2476,11.2483,11.299,11.3037,11.3317,11.3691,11.3738,11.3738,11.3457,11.3177,11.3317,11.3457,11.3411,11.3224,11.3037,11.2763,11.2436,11.1876,11.1502,11.1502,11.1268,11.0762,11.0762,11.0941,11.0847,11.0685,11.0685,11.0801,11.0801,11.0801,11.0762,11.7045,11.7045,11.7045,11.7045,11.7004,11.68,11.6129,11.5283,11.4892,11.2831,11.0255,10.9237,10.8065,10.6491,10.5811,10.4536,10.2925,10.2379,10.0911,9.9915,9.9918,10.0375,10.0703,10.1645,10.3137,10.4689,10.5807,10.6689,10.7816,10.903,10.957,10.9342,10.9957,11.02,10.9502,10.9768,11.004,10.987,10.9823,10.9356,10.8692,10.9005,10.9324,10.948,10.9668,11.0064,11.0452,11.0491,11.0607,11.0801,11.0801,11.0801,11.0801,11.0801,11.0801,11.0801,11.0847,11.0941,11.1034,11.1081,11.1213,11.1034,11.0988,11.0847,11.0801,11.0801,11.0847,11.0847,11.0801,11.0801,11.0801,11.0801,11.0801,11.0801,11.0801,11.0801,11.0801,11.0847,11.0847,11.0894,11.0894,11.0988,11.0988,11.0941,11.0801,11.1175,11.1774,11.2102,11.2382,11.2476,11.2522,11.2476,11.2148,11.2289,11.253,11.267,11.2335,11.2148,11.2062,11.1595,11.1081,11.1081,11.1175,11.0894,11.0685,11.053,11.0452,11.0607,11.0568,11.0452,11.0452,11.0762,11.0801,11.0173,11.0336,11.7045,11.6957,11.7045,11.7045,11.6882,11.6186,11.5267,11.4074,11.2726,11.0753,10.8791,10.6568,10.5087,10.3903,10.2717,10.1319,10.0305,9.9671,9.855,9.7154,9.7579,9.7674,9.797,9.8794,10.0239,10.1091,10.2194,10.3516,10.43,10.5672,10.7044,10.7375,10.8136,10.8451,10.8301,10.8653,10.849,10.8255,10.7941,10.7902,10.7824,10.8138,10.8373,10.8294,10.8568,10.8888,10.9519,10.9877,11.0072,11.053,11.0762,11.0762,11.0801,11.0801,11.0801,11.0801,11.0801,11.0801,11.0801,11.0801,11.0801,11.0801,11.0801,11.0801,11.0801,11.0801,11.0801,11.0801,11.0801,11.0801,11.0801,11.0801,11.0801,11.0801,11.0801,11.0801,11.0801,11.0801,11.0801,11.0801,11.0801,11.0801,11.0801,11.0801,11.0801,11.0801,11.1081,11.1128,11.1221,11.1221,11.1268,11.1221,11.1221,11.1408,11.1735,11.1782,11.14,11.126,11.1128,11.0847,11.0847,11.0847,11.0801,11.0491,11.0219,11.0142,10.9986,11.0142,11.0095,10.9947,11.0025,11.053,11.0219,10.9395,10.9356,11.6116,11.6162,11.6724,11.7045,11.6882,11.6017,11.4765,11.3267,11.16,10.9457,10.7197,10.5554,10.3774,10.1826,10.0464,9.9064,9.7764,9.7173,9.6264,9.513,9.4823,9.493,9.5482,9.6401,9.7476,9.8546,9.957,10.067,10.2012,10.33,10.4342,10.4936,10.6212,10.6608,10.6958,10.7313,10.6997,10.6009,10.533,10.5215,10.5573,10.6088,10.6524,10.6924,10.7941,10.8334,10.881,10.881,10.9285,10.9947,11.0064,11.0258,11.0762,11.0762,11.0762,11.0762,11.0801,11.0801,11.0801,11.0801,11.0801,11.0801,11.0801,11.0801,11.0801,11.0801,11.0801,11.0801,11.0801,11.0801,11.0801,11.0801,11.0801,11.0801,11.0801,11.0801,11.0801,11.0801,11.0801,11.0801,11.0801,11.0801,11.0801,11.0801,11.0801,11.0801,11.0801,11.0801,11.0801,11.0801,11.0801,11.0801,11.0801,11.0801,11.0894,11.1081,11.0988,11.0988,11.0801,11.0801,11.0801,11.0762,11.0568,11.0219,10.9831,10.9278,10.8927,10.9239,10.9473,10.9076,10.9005,10.9044,10.8647,10.8098,10.8222,11.5,11.5093,11.5835,11.6303,11.6368,11.5274,11.3932,11.2343,11.0367,10.8396,10.6018,10.4749,10.2414,9.9854,9.8705,9.7069,9.5763,9.471,9.3856,9.3339,9.3049,9.3082,9.352,9.4278,9.5113,9.6194,9.7352,9.8587,9.9651,10.1197,10.2088,10.2773,10.4022,10.4661,10.5175,10.589,10.4617,10.361,10.3223,10.3395,10.389,10.4184,10.4556,10.5047,10.5969,10.6721,10.7194,10.7476,10.8183,10.8973,10.9207,10.9402,11.0142,11.0336,11.0452,11.0452,11.0685,11.0801,11.0801,11.0801,11.0801,11.0801,11.0801,11.0801,11.0801,11.0801,11.0801,11.0801,11.0801,11.0801,11.0801,11.0801,11.0801,11.0801,11.0801,11.0801,11.0801,11.0801,11.0801,11.0801,11.0801,11.0801,11.0801,11.0801,11.0801,11.0801,11.0801,11.0801,11.0801,11.0801,11.0801,11.0801,11.0801,11.0801,11.0801,11.0801,11.0801,11.0801,11.0801,11.0801,11.0801,11.0646,11.0336,11.0025,10.9753,10.9083,10.8098,10.8216,10.8614,10.8255,10.7706,10.7431,10.7155,10.684,10.6845,11.3925,11.4011,11.4011,11.4666,11.5066,11.3564,11.2367,11.1428,10.8784,10.7028,10.5806,10.3137,10.0676,9.8149,9.6364,9.4765,9.3315,9.289,9.1871,9.1231,9.173,9.1674,9.1994,9.2513,9.3396,9.4236,9.5196,9.6277,9.698,9.8587,10.0222,10.1279,10.1888,10.233,10.2448,10.2523,10.1832,10.1329,10.0986,10.1097,10.1349,10.1939,10.2185,10.2776,10.3518,10.4401,10.5215,10.585,10.6721,10.7588,10.8255,10.8294,10.8692,10.9246,10.9526,10.9877,11.0336,11.053,11.0646,11.0762,11.0762,11.0375,11.053,11.0685,11.0568,11.0336,11.0258,11.0297,11.0258,11.0452,11.0568,11.053,11.0491,11.0646,11.0646,11.0723,11.0723,11.0762,11.0762,11.0801,11.0801,11.0801,11.0801,11.0801,11.0801,11.0801,11.0801,11.0801,11.0801,11.0801,11.0801,11.0801,11.0801,11.0801,11.0801,11.0801,11.0801,11.0801,11.0801,11.0801,11.0762,11.0646,11.0064,10.9597,10.948,10.8699,10.724,10.7043,10.7313,10.7076,10.6405,10.593,10.4817,10.4821,10.518,11.2896,11.299,11.3598,11.4112,11.4132,11.2491,11.1633,11.0877,10.8021,10.5741,10.3982,10.1503,9.8855,9.6661,9.5027,9.3591,9.2564,9.1925,9.0895,9.0938,9.1004,9.0789,9.0896,9.1416,9.205,9.2429,9.3228,9.4069,9.503,9.6194,9.7393,9.8587,9.9611,9.9896,9.9441,9.9063,9.8527,9.8313,9.8049,9.8114,9.84,9.86,9.8922,9.9881,10.0865,10.1923,10.3001,10.3938,10.4856,10.6049,10.6761,10.7116,10.802,10.8575,10.8692,10.8732,10.9122,10.9434,11.0064,11.0336,11.0018,10.9473,10.92,10.9161,10.9161,10.9317,10.9317,10.9278,10.9122,10.9122,10.9076,10.9044,10.9278,10.9994,11.011,11.0375,11.0452,11.0607,11.0646,11.0723,11.0762,11.0801,11.0801,11.0801,11.0723,11.0762,11.0762,11.0801,11.0801,11.0801,11.0801,11.0801,11.0801,11.0801,11.0801,11.0801,11.0801,11.0801,11.0801,11.0801,11.0723,11.0413,10.959,10.8966,10.8301,10.7437,10.6173,10.51,10.4737,10.4537,10.4254,10.3537,10.2612,10.2776,10.3219,11.1868,11.1876,11.2616,11.2896,11.2645,11.0924,11.0227,10.9826,10.7691,10.5376,10.3179,10.0876,9.8192,9.5784,9.4381,9.3331,9.2101,9.1123,9.0771,9.0657,9.0363,9.0054,9.0144,9.0611,9.087,9.1162,9.1796,9.2685,9.3189,9.4153,9.4863,9.5612,9.6898,9.727,9.6363,9.5752,9.51,9.4814,9.4483,9.4435,9.4961,9.5315,9.592,9.7238,9.8163,9.9055,9.9921,10.1278,10.2366,10.3522,10.4772,10.5453,10.6529,10.7234,10.747,10.7824,10.8294,10.8575,10.9122,10.9441,10.9271,10.8803,10.8412,10.8451,10.8294,10.8294,10.8255,10.8373,10.849,10.849,10.8131,10.8131,10.8118,10.8835,10.9023,10.9327,10.9684,10.9878,11.008,11.008,10.9979,10.9823,11.0336,11.0413,11.0413,11.0452,11.0219,11.0258,11.0382,11.0459,11.0545,11.0545,11.0715,11.0754,11.0801,11.0801,11.0801,11.0801,11.0801,11.0762,11.0452,11.0142,10.9402,10.8458,10.7358,10.6252,10.514,10.4062,10.2934,10.1603,10.0993,10.0302,10.0222,10.0629,10.1157,11.0847,11.0801,11.0894,11.0941,11.0879,10.9005,10.8386,10.8437,10.7333,10.5419,10.28,10.1126,9.8341,9.5405,9.4142,9.2799,9.1362,9.0439,9.013,9.0206,9.0054,9.0016,9.0059,9.0059,9.0314,9.0271,9.0866,9.1374,9.1501,9.2471,9.2808,9.3522,9.4404,9.4573,9.2903,9.2661,9.2243,9.1653,9.1461,9.2183,9.2825,9.2619,9.3302,9.4315,9.5242,9.5966,9.6986,9.8331,9.9668,10.0795,10.2036,10.3311,10.4401,10.5206,10.5975,10.6603,10.7352,10.7863,10.8098,10.8098,10.7824,10.7431,10.6952,10.7234,10.7745,10.7863,10.7509,10.6919,10.7307,10.7582,10.7766,10.7766,10.7466,10.7531,10.7434,10.7622,10.7973,10.8291,10.8538,10.8616,10.8495,10.8607,10.948,10.9986,10.9947,10.9653,10.959,10.9645,10.9793,10.9901,10.9986,11.011,11.0413,11.0583,11.0801,11.0801,11.0723,11.0801,11.0762,11.0646,11.0375,10.9753,10.8927,10.8144,10.6806,10.514,10.4062,10.2938,10.0913,9.9078,9.8217,9.7847,9.8135,9.8546,9.8952,11.0801,11.0801,11.0801,11.0801,11.0568,10.9005,10.8294,10.7909,10.6253,10.3589,10.0492,9.9253,9.6839,9.4232,9.319,9.2137,9.0785,9.0168,9.0054,9.0016,9.0016,9.0016,9.0016,9.0016,9.0016,9.0059,9.0356,9.0484,9.0569,9.1374,9.167,9.1881,9.2222,9.1958,9.0957,9.0334,8.9885,8.9492,8.9103,8.9106,8.9345,8.9306,8.9902,9.086,9.2142,9.2944,9.3994,9.5526,9.6858,9.7989,9.9377,10.0774,10.1916,10.298,10.3974,10.4298,10.4657,10.5294,10.5731,10.5612,10.4737,10.4803,10.4808,10.4856,10.4697,10.4697,10.4976,10.4896,10.4772,10.4348,10.3601,10.4297,10.4534,10.5417,10.536,10.5808,10.6199,10.6672,10.6868,10.703,10.774,10.802,10.8568,10.8555,10.8163,10.7341,10.7158,10.7218,10.7841,10.8495,10.8788,10.9174,10.9654,11.0211,11.0723,11.0491,11.0258,11.0297,11.0258,11.0258,10.9908,10.9122,10.8294,10.7194,10.5816,10.4142,10.2696,10.1321,9.916,9.6815,9.607,9.5655,9.5946,9.628,9.6777,11.0801,11.0762,11.0452,11.0336,11.0219,10.8536,10.7824,10.7391,10.5543,10.3058,10.0834,9.871,9.6029,9.3522,9.2598,9.1712,9.0187,9.0016,9.0016,9.0016,9.0016,9.0016,9.0016,9.0016,9.0016,9.0016,9.0016,9.0016,9.0016,9.0569,9.0781,9.0823,9.0908,9.0287,8.9528,8.8905,8.7993,8.7415,8.6837,8.6766,8.6885,8.7083,8.7437,8.8225,8.9584,9.0141,9.094,9.2785,9.3827,9.4993,9.6738,9.7952,9.9082,9.9902,10.1011,10.2079,10.2243,10.3184,10.4126,10.2627,10.145,10.1531,10.1993,10.2249,10.2327,10.2249,10.2169,10.2209,10.233,10.2646,10.1836,10.1866,10.1841,10.2639,10.3302,10.3833,10.4335,10.4865,10.5122,10.5013,10.583,10.6659,10.6805,10.6787,10.5706,10.4874,10.4674,10.4734,10.5734,10.6545,10.6843,10.7181,10.7987,10.8634,10.8819,10.9259,10.9745,10.9668,10.9629,10.9395,10.9083,10.8294,10.7352,10.6173,10.4821,10.3219,10.1605,9.9814,9.7888,9.578,9.4612,9.3783,9.3748,9.4003,9.41,11.0622,11.0382,10.9784,10.9473,10.9225,10.7791,10.7121,10.7043,10.5219,10.3781,10.2209,9.9487,9.5987,9.3396,9.2429,9.1543,9.0016,9.0016,9.0016,9.0016,9.0016,9.0016,9.0016,9.0016,9.0016,9.0016,9.0016,9.0016,9.0059,9.0187,9.0102,9.0016,9.0229,8.9531,8.8741,8.7997,8.7006,8.575,8.5444,8.5648,8.6008,8.6248,8.6526,8.7122,8.7322,8.7442,8.756,8.9863,9.1258,9.1379,9.3707,9.5479,9.6079,9.693,9.8231,9.9335,9.9742,10.0402,10.1023,9.9643,9.8544,9.908,9.9703,10.0131,10.0342,10.0342,10.0302,10.0342,10.0426,10.0623,10.0943,10.1431,10.0916,10.1081,10.0963,10.1402,10.1726,10.2412,10.2933,10.2954,10.3347,10.3999,10.4218,10.2821,10.172,10.163,10.1404,10.1447,10.2715,10.403,10.4523,10.5155,10.5999,10.6817,10.6955,10.7736,10.8637,10.8853,10.8952,10.8686,10.8059,10.7358,10.6489,10.514,10.35,10.2169,10.067,9.8463,9.6361,9.4573,9.3121,9.214,9.1819,9.1797,9.1689,10.8486,10.6859,10.8135,10.8195,10.7567,10.7282,10.6997,10.6766,10.4537,10.3058,10.1603,9.9242,9.6029,9.3228,9.205,9.1162,9.0016,9.0016,9.0016,9.0016,9.0016,9.0016,9.0016,9.0016,9.0016,9.0016,9.0016,9.0016,9.0016,9.0016,9.0016,9.0016,9.0016,8.9177,8.8152,8.7469,8.6635,8.5119,8.4929,8.5128,8.5328,8.529,8.5488,8.5768,8.6168,8.6607,8.6766,8.8035,8.8551,8.9027,9.114,9.2501,9.3102,9.4228,9.568,9.6409,9.6409,9.6818,9.666,9.6666,9.6672,9.7006,9.7546,9.7552,9.8173,9.8586,9.8545,9.834,9.8463,9.8254,9.8122,9.8038,9.8481,9.8671,9.8735,9.8715,9.8906,9.9782,10.0333,10.0456,10.0765,10.1392,10.017,9.8843,9.8328,9.8287,9.8315,9.8364,9.9531,10.1116,10.172,10.2408,10.3638,10.5219,10.5828,10.6782,10.7563,10.8046,10.832,10.7981,10.6682,10.5856,10.502,10.3577,10.1967,10.0337,9.837,9.6489,9.4661,9.281,9.1168,9.0269,8.9829,8.9574,8.9476,10.6259,10.5422,10.621,10.6192,10.5758,10.545,10.5304,10.4919,10.3402,10.2128,10.0995,9.8915,9.6525,9.3985,9.2007,9.0908,9.0187,9.0016,9.0016,9.0016,9.0016,9.0016,9.0016,9.0016,9.0016,9.0016,9.0016,9.0016,9.0016,9.0016,9.0016,9.0016,8.9903,8.9101,8.7735,8.7507,8.6445,8.5461,8.4929,8.4929,8.4929,8.4929,8.4969,8.5009,8.5488,8.5688,8.5928,8.6526,8.7041,8.7748,8.863,8.9823,9.058,9.13,9.2702,9.3265,9.2782,9.214,9.2181,9.2343,9.2546,9.3152,9.3555,9.4365,9.4929,9.5331,9.5614,9.5738,9.5737,9.5701,9.5584,9.5464,9.5835,9.6405,9.7223,9.7504,9.8032,9.8193,9.7771,9.8002,9.8109,9.6984,9.5787,9.4972,9.4682,9.5056,9.5501,9.5896,9.7103,9.8271,9.8974,9.9645,10.1358,10.3088,10.3871,10.4584,10.5001,10.5501,10.5765,10.5617,10.4679,10.4014,10.3135,10.1845,10.0132,9.8042,9.5875,9.3953,9.21,9.0624,8.9192,8.8866,8.8544,8.8251,8.7999,10.3743,10.4394,10.3895,10.3755,10.3582,10.3065,10.2796,10.2819,10.1932,10.1067,10.0131,9.838,9.6567,9.4571,9.2303,9.0908,9.0229,9.0016,9.0016,9.0016,9.0016,9.0016,9.0016,9.0016,9.0016,9.0016,9.0016,9.0016,9.0016,9.0016,9.0016,8.9941,8.9751,8.9067,8.7583,8.7242,8.6524,8.5233,8.4929,8.4929,8.4929,8.4929,8.4929,8.4929,8.5009,8.5049,8.5248,8.5728,8.6319,8.6975,8.7234,8.7792,8.8261,8.7793,8.8908,8.9345,8.8908,8.7442,8.8114,8.8905,8.9458,8.9972,9.0125,9.0504,9.174,9.253,9.3118,9.2646,9.2934,9.3362,9.3992,9.3948,9.4698,9.5286,9.5337,9.5832,9.6285,9.5345,9.4975,9.5052,9.3908,9.2726,9.2114,9.1591,9.1266,9.2045,9.2861,9.3716,9.4687,9.5461,9.616,9.7022,9.8472,9.9534,10.0417,10.1164,10.1695,10.2349,10.259,10.2671,10.2032,10.1472,10.0808,9.9464,9.8044,9.608,9.3672,9.1476,8.9565,8.8424,8.8015,8.7686,8.7318,8.7093,8.6839,9.9637,9.9279,10.0665,10.1203,10.1086,10.0993,10.136,10.1659,10.0365,9.9205,9.836,9.6736,9.4989,9.3312,9.1965,9.0866,9.0059,9.0016,9.0016,9.0016,9.0016,9.0016,9.0016,9.0016,9.0016,9.0016,9.0016,9.0016,9.0016,9.0016,9.0016,8.9865,8.9295,8.846,8.7587,8.69,8.5992,8.5233,8.4929,8.4929,8.4929,8.4929,8.4929,8.4929,8.4929,8.4929,8.4929,8.5248,8.5481,8.5796,8.6201,8.6605,8.6879,8.7202,8.7441,8.728,8.6923,8.6965,8.7243,8.7676,8.7868,8.8337,8.889,8.9558,9.026,9.0794,9.1738,9.2567,9.2562,9.2567,9.2492,9.2898,9.311,9.3369,9.2939,9.2546,9.2842,9.2693,9.2301,9.1098,8.9742,8.9147,8.9147,8.879,8.9422,9.0168,9.0756,9.1577,9.2511,9.3171,9.379,9.461,9.5477,9.6448,9.7189,9.8035,9.88,9.9434,9.9706,9.9896,9.9502,9.8904,9.7435,9.61,9.4732,9.3187,9.1231,8.9038,8.7966,8.7212,8.6807,8.6448,8.6144,8.5916,8.5916,9.6763,9.6457,9.7443,9.7873,9.78,9.7914,9.8493,9.9025,9.7954,9.7331,9.6816,9.5545,9.4005,9.2814,9.1754,9.0866,9.0229,9.0016,9.0016,9.0016,9.0016,9.0016,9.0016,9.0016,9.0016,9.0016,9.0016,9.0016,9.0016,9.0016,9.0016,8.9789,8.9223,8.8384,8.7469,8.6676,8.5878,8.5157,8.4929,8.4929,8.4929,8.4929,8.4929,8.4929,8.4929,8.4929,8.4929,8.4929,8.5119,8.5503,8.5677,8.5914,8.6152,8.6274,8.6048,8.5847,8.5688,8.5848,8.6128,8.6287,8.6481,8.6947,8.6905,8.7369,8.8141,8.8802,8.9177,8.9832,9.014,9.0182,9.0301,9.0102,9.0432,9.0605,9.0502,9.0519,9.0573,9.007,8.9044,8.7822,8.7274,8.7079,8.6726,8.7165,8.7642,8.8157,8.8711,8.9539,9.0521,9.1187,9.1811,9.2592,9.3451,9.417,9.4571,9.5321,9.6073,9.6607,9.6944,9.7167,9.6856,9.5899,9.4481,9.2825,9.1099,8.9563,8.8027,8.7505,8.6675,8.5888,8.5845,8.565,8.5157,8.4929,8.5119,9.4603,9.4641,9.4603,9.473,9.4867,9.4832,9.5432,9.5908,9.5237,9.5096,9.5343,9.3951,9.2664,9.2084,9.1269,9.0666,9.0106,9.0016,9.0016,9.0016,9.0016,9.0016,9.0016,9.0016,9.0016,9.0016,9.0016,9.0016,9.0016,8.9979,8.9865,8.9599,8.8915,8.808,8.7166,8.6445,8.5575,8.5043,8.4929,8.4929,8.4929,8.4929,8.4929,8.4929,8.4929,8.4929,8.4929,8.5005,8.5271,8.5916,8.5306,8.5463,8.5734,8.5392,8.5166,8.5049,8.5128,8.5168,8.521,8.509,8.4969,8.4929,8.5166,8.5622,8.6,8.6418,8.7193,8.7527,8.7714,8.7666,8.7507,8.8025,8.808,8.8374,8.8666,8.8678,8.9017,8.8478,8.726,8.6075,8.5563,8.5328,8.5728,8.6168,8.6727,8.7244,8.7602,8.8157,8.8909,8.954,8.9973,9.06,9.1421,9.1694,9.1928,9.2707,9.3551,9.4117,9.4478,9.4693,9.3902,9.2908,9.146,8.9701,8.7945,8.7057,8.6462,8.5792,8.5358,8.5389,8.5197,8.5005,8.4929,8.4929,8.4929,9.2941,9.29,9.2941,9.3317,9.3899,9.3205,9.3378,9.3925,9.2697,9.2183,9.1822,9.0351,9.0313,9.0221,8.9701,8.962,8.9827,9.0016,9.0016,9.0016,9.0016,9.0016,9.0016,9.0016,9.0016,9.0016,9.0016,9.0016,9.0016,8.9979,8.9599,8.8953,8.8156,8.7318,8.6524,8.565,8.5119,8.5005,8.4929,8.4929,8.4929,8.4929,8.4929,8.4929,8.4929,8.4929,8.4929,8.4967,8.5003,8.5119,8.5043,8.5043,8.5119,8.4967,8.4929,8.4929,8.4929,8.4929,8.4929,8.4929,8.4929,8.4929,8.4929,8.5081,8.5309,8.5802,8.622,8.6559,8.6862,8.7242,8.7469,8.7242,8.7362,8.7448,8.7032,8.6807,8.6741,8.6093,8.5794,8.4929,8.4969,8.5009,8.521,8.537,8.5848,8.6248,8.6448,8.6806,8.7403,8.7959,8.8118,8.8632,8.9106,8.9422,8.9619,9.0257,9.1242,9.1797,9.2147,9.1798,9.101,9.0381,8.9539,8.7274,8.6164,8.5721,8.5282,8.5049,8.5049,8.4969,8.4929,8.4929,8.4929,8.4929,8.4929,8.9855,8.9855,8.9855,9.0096,9.0377,9.0056,9.0376,9.078,8.9823,8.9821,9.0211,8.8873,8.8828,8.9858,8.9221,8.9219,8.9865,9.0016,8.9979,9.0016,9.0016,9.0016,9.0016,9.0016,9.0016,9.0016,9.0016,9.0016,8.9865,8.9603,8.9181,8.8768,8.7514,8.6713,8.622,8.5423,8.5005,8.4929,8.4929,8.4929,8.4929,8.4929,8.4929,8.4929,8.4929,8.4929,8.4929,8.4929,8.4929,8.4929,8.4929,8.4929,8.4967,8.4929,8.4929,8.4929,8.4929,8.4929,8.4929,8.4929,8.4929,8.4929,8.4929,8.4929,8.5119,8.5309,8.5575,8.5688,8.5916,8.6141,8.6141,8.6141,8.6103,8.6027,8.5764,8.5612,8.5537,8.5233,8.4929,8.4929,8.4929,8.4929,8.4929,8.5049,8.5408,8.5608,8.5768,8.5808,8.6368,8.6727,8.6766,8.6925,8.7164,8.7323,8.7522,8.8157,8.9343,8.9697,9.0092,8.9579,8.883,8.8195,8.771,8.6677,8.5526,8.4969,8.4929,8.4929,8.4969,8.4929,8.4929,8.4929,8.4929,8.4929,8.4929,8.7521,8.7521,8.7521,8.7521,8.7521,8.7521,8.7914,8.8582,8.7676,8.8105,8.8721,8.7601,8.7769,8.9112,8.8448,8.8882,8.9599,8.9409,8.9708,8.9865,9.0016,9.0016,9.0016,9.0016,9.0016,9.0016,9.0016,9.0016,8.9827,8.9337,8.8809,8.8388,8.7093,8.622,8.5954,8.5233,8.4929,8.4929,8.4929,8.4929,8.4929,8.4929,8.4929,8.4929,8.4929,8.4929,8.4929,8.4929,8.4929,8.4929,8.4929,8.4929,8.4929,8.4929,8.4929,8.4929,8.4929,8.4929,8.4929,8.4929,8.4929,8.4929,8.4929,8.4929,8.4929,8.5005,8.4967,8.4967,8.4929,8.5119,8.5157,8.5005,8.5119,8.5195,8.5081,8.5005,8.4967,8.4967,8.4929,8.4929,8.4929,8.4929,8.4929,8.4929,8.4929,8.4929,8.4969,8.4969,8.5328,8.5688,8.5848,8.5968,8.6168,8.6288,8.6527,8.7045,8.7721,8.7959,8.8197,8.7959,8.7165,8.6522,8.6359,8.5683,8.4969,8.4929,8.4929,8.4929,8.4929,8.4929,8.4929,8.4929,8.4929,8.4929,8.4929,8.7521,8.7521,8.7521,8.7521,8.7403,8.7481,8.7401,8.744,8.6726,8.6562,8.6635,8.5679,8.6083,8.6646,8.7026,8.7514,8.8882,8.8308,8.876,8.9485,8.9903,8.9789,8.9751,8.9675,8.9713,8.9708,8.9979,8.9865,8.9523,8.8991,8.8346,8.7549,8.6751,8.5916,8.5309,8.5043,8.4929,8.4929,8.4929,8.4929,8.4929,8.4929,8.4929,8.4929,8.4929,8.4929,8.4929,8.4929,8.4929,8.4929,8.4929,8.4929,8.4929,8.4929,8.4929,8.4929,8.4929,8.4929,8.4929,8.4929,8.4929,8.4929,8.4929,8.4929,8.4929,8.4929,8.4929,8.4929,8.4929,8.4929,8.4929,8.4929,8.4929,8.4929,8.4929,8.4929,8.4929,8.4929,8.4929,8.4929,8.4929,8.4929,8.4929,8.4929,8.4929,8.4929,8.4929,8.4929,8.5128,8.5288,8.5328,8.533,8.5408,8.5408,8.5688,8.6008,8.6248,8.6448,8.6766,8.6686,8.5888,8.5608,8.5248,8.5009,8.4969,8.4929,8.4929,8.4929,8.4929,8.4929,8.4929,8.4929,8.4929,8.4929,8.4929,8.6008,8.6008,8.5968,8.6008,8.6008,8.5968,8.6008,8.5928,8.5648,8.5528,8.5448,8.5087,8.5461,8.6258,8.6296,8.6979,8.7928,8.7621,8.7849,8.8608,8.9067,8.8991,8.865,8.8532,8.8532,8.8532,8.8494,8.8574,8.846,8.7739,8.7207,8.6751,8.5954,8.5306,8.4929,8.4929,8.4929,8.4929,8.4929,8.4929,8.4929,8.4929,8.4929,8.4929,8.4929,8.4929,8.4929,8.4929,8.4929,8.4929,8.4929,8.4929,8.4929,8.4929,8.4929,8.4929,8.4929,8.4929,8.4929,8.4929,8.4929,8.4929,8.4929,8.4929,8.4929,8.4929,8.4929,8.4929,8.4929,8.4929,8.4929,8.4929,8.4929,8.4929,8.4929,8.4929,8.4929,8.4929,8.4929,8.4929,8.4929,8.4929,8.4929,8.4929,8.4929,8.4929,8.4929,8.4929,8.4929,8.4929,8.5009,8.5049,8.509,8.5168,8.5368,8.5448,8.5648,8.5608,8.5728,8.5648,8.5288,8.5168,8.4969,8.4969,8.4969,8.4929,8.4929,8.4929,8.4929,8.4929,8.4929,8.4929,8.4929,8.4929,8.4929,8.4929,8.4929,8.4929,8.4929,8.4929,8.4929,8.4969,8.4929,8.4969,8.5009,8.4969,8.4929,8.5309,8.5916,8.5916,8.641,8.69,8.6862,8.6938,8.7469,8.8084,8.7701,8.7321,8.7356,8.7545,8.7583,8.7659,8.7507,8.7394,8.6827,8.641,8.6258,8.5461,8.4967,8.4929,8.4929,8.4929,8.4929,8.4929,8.4929,8.4929,8.4929,8.4929,8.4929,8.4929,8.4929,8.4929,8.4929,8.4929,8.4929,8.4929,8.4929,8.4929,8.4929,8.4929,8.4929,8.4929,8.4929,8.4929,8.4929,8.4929,8.4929,8.4929,8.4929,8.4929,8.4929,8.4929,8.4929,8.4929,8.4929,8.4929,8.4929,8.4929,8.4929,8.4929,8.4929,8.4929,8.4929,8.4929,8.4929,8.4929,8.4929,8.4929,8.4929,8.4929,8.4929,8.4929,8.4929,8.4929,8.4929,8.4929,8.4929,8.4929,8.4929,8.4929,8.4929,8.4929,8.4929,8.4969,8.5009,8.4969,8.4929,8.4929,8.4929,8.4929,8.4929,8.4929,8.4929,8.4929,8.4929,8.4929,8.4929,8.4929,8.4929,8.4929,8.4929,8.4929,8.4929,8.4929,8.4929,8.4929,8.4929,8.4929,8.4929,8.4929,8.4929,8.4929,8.5005,8.5043,8.5157,8.5612,8.6106,8.5688,8.5989,8.6824,8.6789,8.6486,8.6448,8.69,8.7128,8.7242,8.728,8.7356,8.7166,8.6445,8.6296,8.6144,8.5385,8.4929,8.4929,8.4929,8.4929,8.4929,8.4927,8.4927,8.4929,8.4927,8.4927,8.4929,8.4929,8.4929,8.4929,8.4929,8.4929,8.4929,8.4929,8.4929,8.4929,8.4929,8.4929,8.4929,8.4929,8.4929,8.4929,8.4929,8.4929,8.4929,8.4929,8.4929,8.4929,8.4929,8.4929,8.4929,8.4929,8.4929,8.4929,8.4929,8.4929,8.4929,8.4929,8.4929,8.4929,8.4929,8.4929,8.4929,8.4929,8.4929,8.4929,8.4929,8.4929,8.4929,8.4929,8.4929,8.4929,8.4929,8.4929,8.4929,8.4929,8.4929,8.4929,8.4929,8.4929,8.4929,8.4929,8.4969,8.4929,8.4929,8.4929,8.4929,8.4929,8.4929,8.4929,8.4929,8.4929,8.4929,8.4929,8.4929,8.4929,8.4929,8.4929,8.4929,8.4929,8.4929,8.4929,8.4929,8.4929,8.4929,8.4929,8.4929,8.4929,8.4929,8.4929,8.4929,8.4929,8.4929,8.5157,8.5385,8.5119,8.5309,8.5764,8.5537,8.5461,8.5537,8.5762,8.5916,8.5876,8.5876,8.5876,8.5878,8.5612,8.5461,8.5423,8.5119,8.4929,8.4929,8.4929,8.4929,8.4887,8.4485,8.4485,8.4726,8.4445,8.4445,8.4887,8.4929,8.4929,8.4929,8.4929,8.4929,8.4929,8.4929,8.4929,8.4929,8.4929,8.4929,8.4929,8.4929,8.4929,8.4929,8.4929,8.4929,8.4929,8.4929,8.4929,8.4929,8.4929,8.4929,8.4929,8.4929,8.4929,8.4929,8.4929,8.4929,8.4929,8.4929,8.4929,8.4929,8.4929,8.4929,8.4929,8.4929,8.4929,8.4929,8.4929,8.4929,8.4929,8.4929,8.4929,8.4929,8.4929,8.4929,8.4929,8.4929,8.4929,8.4929,8.4929,8.4929,8.4929,8.4929,8.4929,8.4929,8.4929,8.4929,8.4929,8.4929,8.4929,8.4929,8.4929,8.4929,8.4929,8.4929,8.4929,8.4929,8.4929,8.4929,8.4929,8.4929,8.4929,8.4929,8.4929,8.4929,8.4929,8.4929,8.4929,8.4929,8.4929,8.4929,8.4929,8.4929,8.4929,8.4967,8.4929,8.4929,8.4929,8.4967,8.4967,8.4967,8.4967,8.4967,8.4929,8.4929,8.4929,8.4967,8.5005,8.4967,8.4929,8.4929,8.4967,8.4929,8.4929,8.4726,8.4565,8.4445,8.3798,8.3596,8.4002,8.3636,8.3757,8.4485,8.4606,8.4565,8.4606,8.4806,8.4967,8.4929,8.4701,8.4436,8.4208,8.417,8.4322,8.4549,8.4587,8.4625,8.4853,8.4929,8.4929,8.4929,8.4929,8.4929,8.4929,8.4929,8.4929,8.4929,8.4929,8.4929,8.4929,8.4929,8.4929,8.4929,8.4929,8.4929,8.4929,8.4929,8.4929,8.4929,8.4929,8.4929,8.4929,8.4929,8.4929,8.4929,8.4929,8.4929,8.4929,8.4929,8.4929,8.4929,8.4929,8.4929,8.4929,8.4929,8.4929,8.4929,8.4929,8.4929,8.4929,8.4929,8.4929,8.4929,8.4929,8.4929,8.4929,8.4929,8.4929,8.4929,8.4929,8.4929,8.4929,8.4929,8.4929,8.4929,8.4929,8.4929,8.4929,8.4929,8.4929,8.4929,8.4929,8.4929,8.4929,8.4929,8.4929,8.4929,8.4929,8.4929,8.4929,8.4929,8.4929,8.4929,8.4929,8.4929,8.4929,8.4929,8.4929,8.4929,8.4929,8.4929,8.4929,8.4929,8.4929,8.4929,8.4929,8.4929,8.4927,8.4927,8.4203,8.3838,8.3596,8.2868,8.2504,8.2423,8.2463,8.2828,8.3677,8.3717,8.3677,8.3798,8.4447,8.4733,8.4697,8.417,8.3373,8.2764,8.265,8.2955,8.36,8.3792,8.4172,8.4701,8.4815,8.4815,8.4815,8.4929,8.4929,8.4929,8.4929,8.4929,8.4929,8.4929,8.4929,8.4929,8.4929,8.4929,8.4929,8.4929,8.4929,8.4929,8.4929,8.4929,8.4929,8.4929,8.4929,8.4929,8.4929,8.4929,8.4929,8.4929,8.4929,8.4929,8.4929,8.4929,8.4929,8.4929,8.4929,8.4929,8.4929,8.4929,8.4929,8.4929,8.4929,8.4929,8.4929,8.4929,8.4929,8.4929,8.4929,8.4929,8.4929,8.4929,8.4929,8.4929,8.4929,8.4929,8.4929,8.4929,8.4929,8.4929,8.4929,8.4929,8.4929,8.4929,8.4929,8.4929,8.4929,8.4929,8.4929,8.4929,8.4929,8.4929,8.4929,8.4929,8.4929,8.4929,8.4929,8.4929,8.4929,8.4929,8.4929,8.4929,8.4929,8.4929,8.4929,8.4929,8.4929,8.4929,8.4929,8.4929,8.4929,8.4726,8.4201,8.3959,8.3434,8.2787,8.1939,8.1777,8.226,8.1818,8.1939,8.2625,8.2264,8.2183,8.2868,8.3116,8.3216,8.3223,8.298,8.2726,8.2421,8.2422,8.2574,8.2802,8.2879,8.2992,8.3257,8.3828,8.4172,8.4172,8.4627,8.4929,8.4929,8.4929,8.4929,8.4929,8.4929,8.4929,8.4929,8.4929,8.4929,8.4929,8.4929,8.4929,8.4929,8.4929,8.4929,8.4929,8.4929,8.4929,8.4929,8.4929,8.4929,8.4929,8.4929,8.4929,8.4929,8.4929,8.4929,8.4929,8.4929,8.4929,8.4929,8.4929,8.4929,8.4929,8.4929,8.4929,8.4929,8.4929,8.4929,8.4929,8.4929,8.4929,8.4929,8.4929,8.4929,8.4929,8.4739,8.4474,8.4663,8.4815,8.4663,8.4168,8.4549,8.4815,8.4929,8.4929,8.4929,8.4929,8.4929,8.4929,8.4929,8.4929,8.4929,8.4929,8.4929,8.4322,8.4208,8.4551,8.4511,8.4663,8.4929,8.4929,8.4929,8.4929,8.4929,8.4929,8.4929,8.4929,8.4929,8.4929,8.4929,8.4929,8.4927,8.4686,8.4284,8.3757,8.3151,8.2507,8.1899,8.1086,8.0882,8.1366,8.0923,8.0923,8.1411,8.0954,8.0934,8.1496,8.153,8.1718,8.1995,8.172,8.1696,8.1928,8.1739,8.1663,8.1929,8.2005,8.2119,8.2422,8.2993,8.3259,8.3335,8.379,8.4018,8.4056,8.4056,8.4016,8.4094,8.4284,8.4322,8.417,8.4056,8.4056,8.4054,8.4322,8.4474,8.4549,8.4777,8.4929,8.4929,8.4929,8.4929,8.4929,8.4929,8.4929,8.4929,8.4929,8.4929,8.4929,8.4929,8.4929,8.4929,8.4929,8.4929,8.4929,8.4929,8.4929,8.4929,8.4891,8.4853,8.4929,8.4929,8.4853,8.4815,8.4929,8.4929,8.4891,8.4853,8.4703,8.4549,8.3904,8.3713,8.4054,8.3675,8.3751,8.2955,8.3792,8.4472,8.4619,8.4735,8.4737,8.4815,8.4663,8.4699,8.4777,8.4701,8.4739,8.4815,8.4663,8.3219,8.2955,8.364,8.3716,8.4056,8.4663,8.4815,8.4891,8.4891,8.4929,8.4929,8.4929,8.4929,8.4929,8.4929,8.4929,8.4967,8.4847,8.4201,8.3757,8.3313,8.198,8.1049,8.1004,8.0352,7.9979,7.9979,7.9902,7.9831,7.9922,7.9768,7.9773,7.9785,7.9886,8.0349,8.1094,8.0428,8.0402,8.1056,8.0525,8.0525,8.1095,8.1208,8.1512,8.2119,8.2309,8.2384,8.2384,8.2536,8.2498,8.265,8.265,8.2688,8.2498,8.3221,8.3259,8.2612,8.265,8.265,8.265,8.3259,8.3638,8.3716,8.4246,8.4777,8.4739,8.4625,8.4549,8.4701,8.4853,8.4701,8.4777,8.4853,8.4891,8.4891,8.4929,8.4929,8.4929,8.4929,8.4891,8.4815,8.4474,8.451,8.4511,8.4284,8.4625,8.4737,8.4813,8.4777,8.4701,8.4511,8.4474,8.4739,8.4625,8.4246,8.3828,8.3143,8.2878,8.3068,8.2573,8.2649,8.2574,8.2724,8.2401,8.2238,8.2317,8.283,8.3105,8.3105,8.3105,8.3105,8.3105,8.3105,8.3105,8.3068,8.265,8.2536,8.2803,8.2802,8.2916,8.3143,8.379,8.4134,8.4172,8.4703,8.4929,8.4929,8.4929,8.4929,8.4929,8.4929,8.4646,8.4123,8.3919,8.3151,8.1939,8.1375,8.0764,8.0306,8.002,7.9897,7.9825,7.9321,7.9076,7.8969,7.8496,7.8221,7.8186,7.8256,7.864,7.9384,7.9222,7.9499,8.0335,8.0183,8.0145,8.0373,8.0411,8.0487,8.0715,8.1246,8.155,8.1626,8.2119,8.2422,8.2422,8.2422,8.2422,8.2346,8.212,8.1892,8.1625,8.2081,8.2384,8.246,8.2612,8.2764,8.2802,8.2916,8.3181,8.3105,8.3257,8.3105,8.3105,8.3181,8.3447,8.3942,8.4134,8.4248,8.4777,8.4891,8.4891,8.4929,8.4929,8.4434,8.3333,8.3257,8.3105,8.3105,8.3219,8.3257,8.3105,8.3105,8.3143,8.3599,8.3259,8.3221,8.3409,8.3295,8.2954,8.2802,8.265,8.2498,8.2195,8.2384,8.2384,8.1086,8.1386,8.057,8.0638,8.1288,8.1719,8.2148,8.2383,8.2422,8.2422,8.2308,8.1701,8.1474,8.1474,8.1436,8.1664,8.1929,8.1968,8.2119,8.246,8.2993,8.3221,8.3297,8.4094,8.4513,8.4474,8.4815,8.4929,8.4929,8.4929,8.4525,8.3838,8.3394,8.2467,8.1131,8.076,8.0352,7.9897,7.9897,7.9576,7.8893,7.8429,7.8255,7.8184,7.7431,7.7003,7.6971,7.668,7.6873,7.7687,7.8052,7.8667,7.9464,7.988,8.0107,8.0107,8.0107,8.0107,8.0107,8.0525,8.0791,8.0753,8.1208,8.1474,8.1474,8.1474,8.1474,8.1398,8.1095,8.0753,8.0791,8.1209,8.1474,8.1512,8.1777,8.1929,8.1929,8.2233,8.2422,8.2422,8.2422,8.2422,8.2422,8.2422,8.265,8.3069,8.3221,8.3335,8.379,8.3902,8.3902,8.3902,8.3902,8.3409,8.2764,8.2422,8.246,8.2422,8.2422,8.2422,8.2498,8.2422,8.2422,8.246,8.2536,8.2536,8.2346,8.2422,8.2271,8.1968,8.1968,8.1815,8.1512,8.1474,8.1474,7.9116,7.9674,7.8902,7.9422,8.0755,8.0948,8.1379,8.1925,8.2156,8.2156,8.1812,8.0563,7.9994,7.9994,7.9994,8.0373,8.0941,8.1094,8.1474,8.2119,8.2271,8.2346,8.2384,8.3221,8.3716,8.3906,8.4474,8.4815,8.4929,8.4929,8.4606,8.3878,8.2909,8.1939,8.0927,8.0198,7.979,7.979,7.9718,7.8929,7.7458,7.7395,7.7399,7.7399,7.6571,7.6065,7.6104,7.5424,7.5456,7.6339,7.7105,7.7792,7.8592,7.9388,7.988,7.9918,7.9956,8.0032,8.0107,8.0107,8.0107,8.0107,8.0183,8.0145,8.0183,8.0107,8.0107,8.0145,8.0107,8.0145,8.0107,8.0145,8.0221,8.0335,8.0791,8.1133,8.1208,8.1777,8.2195,8.2233,8.2005,8.2195,8.2005,8.2005,8.2119,8.212,8.2195,8.2422,8.265,8.2688,8.265,8.2309,8.2195,8.2157,8.2081,8.2157,8.1967,8.2043,8.2119,8.2005,8.1968,8.2006,8.2196,8.1778,8.2005,8.1929,8.2005,8.2157,8.1892,8.1284,8.1095,8.0943,8.0335,8.0221,8.0297,7.7941,7.8051,7.7246,7.7471,7.8423,7.9037,7.942,7.9649,8.0297,8.022,7.9573,7.9197,7.9047,7.901,7.901,7.9122,7.9386,8.0032,8.0449,8.0677,8.1246,8.1474,8.1626,8.2346,8.3107,8.3754,8.3944,8.4322,8.4891,8.4929,8.4847,8.4565,8.3192,8.1651,8.0147,7.9371,7.8964,7.8929,7.8398,7.7938,7.7506,7.682,7.6496,7.6425,7.5709,7.5282,7.5282,7.5139,7.5456,7.6339,7.6569,7.7029,7.7754,7.8021,7.8401,7.8934,7.901,7.935,7.9994,8.0107,8.0107,8.0107,8.0107,8.0107,8.0107,8.0107,8.0107,8.0107,7.9994,7.9994,7.9994,8.0069,8.0107,8.0107,8.0297,8.0411,8.0373,8.0525,8.0601,8.0601,8.0639,8.0639,8.0639,8.0639,8.0677,8.0829,8.1133,8.1739,8.2309,8.2422,8.1892,8.1057,8.0639,8.0715,8.0601,8.0639,8.0715,8.0601,8.0639,8.0791,8.0753,8.0677,8.0639,8.0753,8.0715,8.0753,8.0677,8.0677,8.0639,8.0525,8.0411,8.0335,8.0107,8.0107,8.0107,7.7029,7.6914,7.6147,7.6032,7.6454,7.7298,7.7831,7.8249,7.8705,7.8667,7.8249,7.8211,7.8174,7.8174,7.8211,7.8211,7.8211,7.8667,7.9161,7.9464,7.9917,8.0334,8.0791,8.1512,8.2158,8.2652,8.2955,8.3373,8.3751,8.3828,8.3828,8.3709,8.208,8.044,7.8912,7.8398,7.8224,7.8184,7.7003,7.6393,7.6357,7.5926,7.5673,7.5673,7.5246,7.5032,7.5032,7.5032,7.5263,7.5763,7.6147,7.6426,7.6517,7.6822,7.7054,7.7135,7.7135,7.736,7.7847,7.8221,7.8708,7.9424,7.95,7.931,7.8931,7.8594,7.8559,7.8861,7.8597,7.8521,7.8895,7.9237,7.9464,7.9464,7.988,8.0069,8.0107,8.0107,8.0107,8.0107,8.0107,8.0107,8.0107,8.0107,8.0107,8.0107,8.0411,8.0829,8.1246,8.1322,8.1019,8.0297,8.0107,8.0107,8.0069,8.0107,8.0107,8.0107,8.0107,8.0107,8.0107,8.0107,8.0107,8.0107,8.0107,8.0107,8.0145,8.0107,8.0107,8.0107,8.0107,8.0107,8.0107,8.0107,8.0107,7.6224,7.6147,7.534,7.5032,7.5071,7.5879,7.6646,7.7372,7.7148,7.7186,7.7372,7.7372,7.7372,7.7372,7.7372,7.7409,7.7411,7.7524,7.7907,7.8554,7.8668,7.9161,7.9956,8.0715,8.1171,8.1284,8.1929,8.2309,8.2422,8.2421,8.2422,8.2228,8.0742,7.9247,7.7982,7.7518,7.7292,7.7185,7.5748,7.5032,7.5032,7.5032,7.5032,7.5032,7.5032,7.5032,7.5032,7.5032,7.5032,7.5071,7.5802,7.5862,7.5103,7.5671,7.5683,7.4986,7.4913,7.495,7.506,7.5686,7.6722,7.8105,7.8329,7.8101,7.7272,7.6609,7.6502,7.7137,7.6688,7.6534,7.7197,7.7766,7.8182,7.8371,7.92,7.9766,7.9841,7.9993,8.0107,8.0107,8.0107,8.0107,8.0107,8.0107,8.0107,8.0107,8.0145,8.0107,8.0183,7.9918,7.9805,7.988,7.9994,8.0107,8.0107,8.0107,8.0107,8.0107,8.0107,8.0107,8.0107,8.0107,8.0107,8.0107,8.0107,8.0107,8.0107,8.0107,8.0107,8.0107,8.0107,8.0107,8.0107,8.0107,8.0107,7.5263,7.5225,7.5071,7.5032,7.5032,7.5186,7.5763,7.6533,7.512,0.0,0.0,7.6608,7.6608,7.6608,7.6608,7.6608,7.6609,7.7258,7.764,7.7792,7.8402,7.882,7.8972,7.9918,8.0639,8.1246,8.1398,8.1777,8.2384,8.2422,8.2422,8.2228,8.0702,7.9759,7.9371,7.7454,7.6104,7.5498,7.5175,7.5032,7.5032,7.5032,7.5032,7.5032,7.5032,7.5032,7.5032,7.5032,7.5032,7.5032,7.5186,7.4945,7.4158,7.4238,7.4006,7.3372,7.3336,7.3592,7.4213,7.4432,7.4874,7.5762,7.6427,7.6501,7.5688,7.5503,7.5503,7.5614,7.5503,7.5466,7.5613,7.5798,7.6133,7.6725,7.751,7.8259,7.8932,7.9576,7.9993,8.0107,8.0031,8.0107,8.0069,8.0069,8.0107,8.0107,7.9994,8.0107,7.9918,7.8933,7.8363,7.8971,7.9578,8.0069,8.0107,8.0107,8.0107,8.0107,8.0107,8.0107,8.0107,8.0107,8.0107,8.0107,8.0107,8.0107,8.0107,8.0107,8.0107,8.0107,8.0107,8.0107,8.0107,8.0107,8.0069,7.3859,7.3857,7.3822,7.3859,0.0,7.3822,7.4123,7.4465,7.362,7.3729,7.4503,7.4503,7.4503,7.4539,7.4934,7.5152,7.5152,7.589,7.6531,7.699,7.7336,7.7946,7.8744,7.9199,7.9842,8.0639,8.0639,8.0829,8.1246,8.1208,8.1246,8.1208,7.9554,7.8703,7.8664,7.6635,7.5385,7.5032,7.5032,7.5032,7.5032,7.5032,7.5032,7.5032,7.5032,0.0,0.0,0.0,0.0,0.0,0.0,0.0,0.0,7.2292,0.0,7.1089,7.0693,7.0585,7.0977,7.1368,7.1763,7.2165,7.3621,7.3877,7.2274,7.2166,7.2495,7.3263,7.3008,7.3079,7.3876,7.4356,7.48,7.5171,7.591,7.6652,7.7432,7.7956,7.852,7.916,7.9424,7.9576,7.9993,7.9729,7.9426,7.9388,7.9047,7.8781,7.8743,7.8059,7.7678,7.8097,7.8895,7.954,7.9956,8.0107,8.0107,8.0107,8.0107,8.0107,8.0107,8.0107,8.0107,8.0107,8.0107,8.0107,8.0107,8.0107,8.0107,8.0107,8.0107,7.9993,7.9462,7.9386,7.9538,7.2682,7.2682,7.2682,7.2682,7.2646,7.2399,7.2327,7.2433,7.2468,7.254,7.2682,7.2682,7.2682,7.2755,7.3361,7.3646,7.3681,7.4285,7.4952,7.5716,7.5868,7.6702,7.8065,7.8368,7.8973,7.9842,8.0032,8.0107,8.0107,8.0107,8.0107,8.0032,7.8363,7.7525,7.7449,0.0,0.0,0.0,7.5032,7.5032,7.5032,7.5032,7.5032,7.5032,7.5032,0.0,7.5032,7.489,7.4498,7.3895,7.3717,0.0,0.0,0.0,0.0,0.0,0.0,0.0,0.0,0.0,0.0,0.0,7.0385,7.0673,6.8953,6.8883,6.9499,7.0691,7.0263,7.0475,7.1686,7.249,7.3041,7.3333,7.4067,7.4949,7.5796,7.6055,7.6612,7.7918,7.803,7.8332,7.8898,7.8672,7.8255,7.8255,7.7834,7.7339,7.6742,7.6518,7.6667,7.6932,7.7277,7.8145,7.92,7.9425,7.9424,7.9614,7.9614,7.9576,7.95,7.9538,7.9576,7.9538,7.9614,7.9576,7.9576,7.9614,7.95,7.9576,7.9576,7.9386,7.8666,7.8514,7.8779,7.2682,7.2682,7.2682,7.2682,7.2612,7.1223,7.1045,7.1685,7.1685,7.2041,7.2682,7.2682,7.2682,7.2719,7.2826,7.2824,7.2862,7.2931,7.3042,7.3192,7.3975,7.4823,7.5704,7.706,7.8146,7.8934,7.9729,8.0107,8.0107,8.0107,8.0107,7.9994,7.8401,7.7525,7.7449,7.5879,7.5032,7.5032,7.5032,7.5032,7.5032,7.5032,7.5032,7.5032,7.5032,7.5032,7.5032,7.4394,7.3931,7.3824,7.3256,7.2149,7.0617,7.0403,6.9406,0.0,6.7089,0.0,0.0,0.0,0.0,0.0,0.0,0.0,0.0,6.7799,6.8263,6.8477,6.8407,6.8444,6.8622,6.8728,6.9367,7.0725,7.1664,7.2716,7.4065,7.4876,7.5466,7.5651,7.5688,7.5725,7.5947,7.6353,7.6722,7.6684,7.7011,7.6331,7.4038,7.3486,7.3822,7.4386,7.4609,7.55,7.6652,7.7464,7.7907,7.7943,7.7981,7.7867,7.7981,7.7943,7.7905,7.7943,7.7981,7.7943,7.7867,7.7905,7.7905,7.7981,7.798,7.783,7.7716,7.7716,7.7981,7.1401,7.1401,7.1401,7.0902,7.0047,6.9406,6.9228,6.9584,6.962,6.9762,7.0082,7.0082,7.0368,7.0795,7.1686,7.2041,7.2077,7.2468,7.2682,7.2719,7.3128,7.3755,7.4603,7.5313,7.6243,7.7435,7.7846,7.8482,7.931,7.9348,7.9614,8.0032,7.8401,7.7114,7.6255,7.5433,7.5032,7.5032,7.5032,7.5032,7.5032,7.5032,7.5032,7.5032,7.5032,7.4819,7.443,7.4038,7.3468,7.2612,7.1829,7.0902,6.9762,6.8907,6.7731,0.0,0.0,0.0,0.0,0.0,0.0,0.0,0.0,0.0,0.0,0.0,6.6306,6.6698,6.7126,6.7553,6.7981,6.8052,6.8299,6.9008,6.9472,7.0114,7.1149,7.1655,7.2384,7.3662,7.3845,7.4176,7.5097,7.5168,7.5089,7.5089,7.4969,7.4294,7.2974,7.2682,7.2831,7.3241,7.3724,7.4318,7.4949,7.6093,7.6902,7.6939,7.7269,7.7526,7.7526,7.7526,7.7526,7.7526,7.7526,7.7526,7.7526,7.7526,7.7526,7.7412,7.6804,7.6385,7.6691,7.6804,7.707,6.9798,6.9798,6.9798,6.9085,6.8052,6.8052,6.8052,6.8052,6.8052,6.8052,6.8052,6.8052,6.8408,6.8978,7.0154,7.0688,7.076,7.1365,7.1686,7.1827,7.1864,7.2447,7.3435,7.3731,7.4506,7.5835,7.6241,7.702,7.814,7.8364,7.8667,7.9124,7.7541,7.6113,7.4964,7.4659,7.4479,7.4514,7.4499,7.4454,7.4492,7.4647,7.484,7.5032,7.4854,7.4501,7.3859,7.3503,7.2684,7.1293,7.051,6.9691,6.8693,6.7304,0.0,0.0,0.0,0.0,0.0,0.0,0.0,0.0,0.0,6.2553,6.3902,0.0,6.4061,0.0,6.5369,6.6041,6.6644,6.6856,0.0,0.0,6.6996,6.7345,6.8286,6.8425,6.9245,7.1366,7.1583,7.2167,7.3592,7.3444,7.3,7.2415,7.1894,7.1593,7.1593,7.1593,7.1667,7.1854,7.2373,7.2999,7.3405,7.4508,7.5203,7.5497,7.5972,7.641,7.6373,7.6556,7.6665,7.6702,7.6811,7.6918,7.688,7.6993,7.6841,7.6385,7.5511,7.4904,7.5476,7.5779,7.6159,6.823,6.823,6.823,6.8124,6.8017,6.8052,6.8052,6.8052,6.8052,6.8052,6.8052,6.8052,6.8053,6.8124,6.8301,0.0,6.8337,6.8373,6.8836,6.9477,6.9477,7.0297,7.1761,7.2605,7.3444,7.4244,7.5688,7.6462,7.661,7.7309,7.7347,7.6649,7.5132,7.4277,7.4092,7.3305,7.286,7.286,7.2906,7.2905,7.2905,7.3603,7.4338,7.4958,7.4358,7.3931,7.3824,7.2506,7.1329,7.0475,6.9691,6.8622,6.7126,0.0,0.0,0.0,0.0,0.0,0.0,0.0,0.0,0.0,0.0,0.0,0.0,0.0,0.0,6.1761,6.2353,0.0,6.2838,6.3495,0.0,0.0,0.0,6.4527,6.5982,6.6156,6.675,6.8228,0.0,0.0,6.9548,7.0298,6.9936,6.79,6.8097,6.8403,6.8403,6.8439,6.8658,6.9313,6.9531,7.0111,7.1305,7.1738,7.2134,7.2853,7.3033,7.3176,7.3212,7.3677,7.4143,7.4215,7.4748,7.5207,7.5207,7.5245,7.4716,7.3384,7.3426,7.3808,7.3922,7.4527,7.5245,6.6947,6.5202,6.5235,6.5202,6.5202,6.5235,6.5235,6.5235,6.5202,6.5235,6.5202,6.5202,6.5487,6.595,6.595,0.0,0.0,0.0,6.7731,6.8515,6.8515,6.88,6.9441,6.9798,7.0333,7.1157,7.1762,7.2804,7.4142,7.445,7.3795,7.2085,0.0,7.2061,7.1147,7.1683,7.2034,7.1992,7.1997,7.2227,7.2676,7.2982,7.3355,7.3591,7.3312,7.2942,7.2468,7.1437,7.0439,6.9691,6.8016,6.6805,0.0,0.0,0.0,0.0,0.0,0.0,0.0,0.0,0.0,0.0,0.0,6.0337,6.1567,0.0,0.0,0.0,6.1668,6.184,6.1807,6.2116,0.0,0.0,0.0,0.0,0.0,0.0,0.0,6.5149,6.5323,6.5778,6.7036,6.7071,6.6648,6.5794,6.5855,6.5883,6.5487,0.0,6.6133,6.6419,6.6883,6.7452,6.8021,6.8518,6.9084,6.979,7.0635,7.1267,7.1302,7.1549,7.1899,7.2283,7.2559,7.2942,7.3394,7.3501,7.327,7.2666,7.278,7.2973,7.297,7.3236,7.3574,6.538,0.0,0.0,0.0,0.0,6.3381,6.3381,6.3381,6.3186,6.3121,6.3089,6.2893,0.0,0.0,0.0,0.0,0.0,0.0,6.627,6.702,6.7234,6.7517,6.7696,6.7696,6.8117,6.8817,6.8877,6.9827,7.1573,7.0803,6.9768,6.8618,0.0,0.0,0.0,0.0,6.9857,6.9891,7.0026,7.0423,7.0969,7.1601,7.1866,7.1644,7.1879,7.1791,7.1222,7.0439,6.9477,6.823,6.6591,0.0,0.0,0.0,0.0,0.0,0.0,0.0,0.0,0.0,0.0,0.0,0.0,0.0,0.0,0.0,0.0,0.0,0.0,0.0,5.9835,6.0072,6.0106,0.0,0.0,0.0,0.0,0.0,0.0,0.0,0.0,0.0,6.3907,6.3493,6.3317,0.0,0.0,6.3579,6.3185,6.3472,6.3863,6.4076,6.4607,0.0,6.549,6.6054,6.6721,6.7597,6.8677,6.9478,6.9651,6.9894,7.0205,7.062,7.1068,7.1179,7.0933,7.0803,7.0832,7.1038,7.1261,7.1489,7.1721,7.2055,7.2245,0.0,0.0,0.0,0.0,6.331,0.0,0.0,0.0,6.266,6.2299,0.0,6.1713,0.0,0.0,0.0,0.0,6.3453,6.3488,0.0,0.0,6.5451,6.6164,6.6839,6.6875,6.7303,6.805,6.7989,6.8437,6.9088,6.628,0.0,0.0,0.0,0.0,0.0,0.0,6.588,6.5963,6.6579,6.6866,6.6969,6.9065,6.9885,6.9195,6.9969,7.0416,7.0367,6.962,6.8159,6.595,6.5736,0.0,0.0,0.0,0.0,0.0,0.0,0.0,0.0,0.0,0.0,0.0,0.0,0.0,0.0,0.0,0.0,0.0,0.0,0.0,0.0,5.6804,0.0,0.0,0.0,0.0,0.0,0.0,0.0,0.0,0.0,6.1659,5.9806,5.9512,5.9951,6.1327,0.0,0.0,0.0,0.0,6.1793,6.2511,6.2686,6.3152,6.4502,6.4785,6.5315,6.6792,0.0,0.0,6.7982,6.8713,6.9161,6.9268,7.0263,7.0369,6.733,6.6844,6.6999,6.7609,6.8425,6.9173,6.9867,7.0554,7.1413,0.0,0.0,0.0,0.0,0.0,0.0,0.0,0.0,0.0,5.8701,5.8701,5.8452,0.0,0.0,0.0,0.0,0.0,0.0,0.0,0.0,6.4026,6.4311,6.4627,6.4627,6.4736,6.4986,6.5001,6.5134,0.0,0.0,0.0,0.0,0.0,0.0,0.0,0.0,6.4495,6.3539,6.4655,6.5208,6.5193,6.6421,6.7263,6.7462,6.7898,6.834,6.8868,6.7595,6.6555,0.0,0.0,0.0,0.0,0.0,0.0,0.0,0.0,0.0,0.0,0.0,0.0,0.0,0.0,0.0,0.0,0.0,0.0,0.0,0.0,0.0,0.0,0.0,5.2993,0.0,0.0,0.0,0.0,0.0,0.0,0.0,0.0,0.0,5.6603,5.6505,5.6828,5.7758,5.7452,5.71,5.7003,0.0,0.0,0.0,0.0,0.0,0.0,0.0,6.2771,6.329,6.4566,6.5631,6.5871,6.6024,6.6129,6.6158,0.0,0.0,6.5378,6.5544,6.5897,6.6154,6.6447,6.6745,6.7006,6.7662,6.8439,0.0,0.0,0.0,0.0,0.0,0.0,0.0,0.0,0.0,5.6437,5.6407,0.0,0.0,0.0,0.0,0.0,0.0,0.0,0.0,0.0,0.0,0.0,6.2565,6.2847,0.0,0.0,0.0,0.0,0.0,0.0,0.0,0.0,0.0,0.0,0.0,0.0,6.2464,6.1139,6.2267,6.2879,6.2779,6.4033,6.4985,6.5517,6.6127,6.6863,6.7624,0.0,0.0,0.0,0.0,0.0,0.0,0.0,0.0,0.0,0.0,0.0,0.0,0.0,0.0,0.0,0.0,0.0,0.0,0.0,0.0,0.0,0.0,0.0,0.0,0.0,4.9868,0.0,0.0,0.0,0.0,0.0,0.0,0.0,0.0,0.0,0.0,5.3897,5.4006,5.5024,5.4596,5.418,5.4275,5.4715,5.5136,0.0,0.0,0.0,0.0,0.0,0.0,0.0,0.0,0.0,0.0,0.0,0.0,0.0,0.0,6.343,6.3654,6.4037,6.4383,6.4605,0.0,0.0,0.0,0.0,0.0,0.0,0.0,0.0,0.0,0.0,0.0,0.0,0.0,0.0,0.0,5.5635,0.0,0.0,5.5635,0.0,0.0,0.0,0.0,0.0,0.0,0.0,0.0,0.0,0.0,0.0,0.0,0.0,0.0,0.0,0.0,0.0,0.0,0.0,0.0,0.0,0.0,5.9593,5.8725,5.9392,5.9698,5.9728,6.1903,6.3055,6.319,6.474,6.5997,6.6731,0.0,0.0,0.0,0.0,0.0,0.0,0.0,0.0,0.0,0.0,0.0,0.0,0.0,0.0,0.0,0.0,0.0,0.0,0.0,0.0,0.0,0.0,0.0,0.0,0.0,0.0,4.7046,4.7548,4.8146,0.0,0.0,0.0,0.0,0.0,0.0,0.0,0.0,0.0,5.3257,5.3015,5.2803,5.3408,5.353,5.3677,5.431,5.3853,5.4169,5.637,5.6857,5.7642,0.0,0.0,0.0,0.0,0.0,0.0,0.0,0.0,0.0,0.0,0.0,0.0,0.0,0.0,0.0,0.0,0.0,0.0,0.0,0.0,0.0,0.0,0.0,0.0,0.0,0.0,0.0,0.0,0.0,0.0,0.0,0.0,0.0,0.0,0.0,0.0,0.0,0.0,0.0,0.0,0.0,0.0,0.0,0.0,0.0,0.0,0.0,0.0,0.0,0.0,0.0,0.0,0.0,0.0,5.8093,5.7227,5.7913,5.823,5.8059,5.926,6.0472,6.1643,6.2181,6.3018,0.0,0.0,0.0,0.0,0.0,0.0,0.0,0.0,0.0,0.0,0.0,0.0,0.0,0.0,0.0,0.0,0.0,0.0,0.0,0.0,0.0,0.0,0.0,0.0,0.0,0.0,0.0,0.0,4.4344,4.4727,4.536,0.0,0.0,0.0,0.0,0.0,0.0,0.0,0.0,0.0,0.0,4.9245,4.9863,4.9974,5.0043,5.0251,5.0976,5.1798,5.2486,5.4272,5.598,5.7107,0.0,0.0,0.0,0.0,0.0,0.0,0.0,0.0,0.0,0.0,0.0,0.0,0.0,0.0,0.0,0.0,0.0,0.0,0.0,0.0,0.0,0.0,0.0,0.0,0.0,0.0,0.0,0.0,0.0,0.0,0.0,0.0,0.0,0.0,0.0,0.0,0.0,0.0,0.0,0.0,0.0,0.0,0.0,0.0,0.0,0.0,0.0,0.0,0.0,0.0,0.0,0.0,0.0,5.7175,5.6601,5.6693,5.6824,5.6906,5.7691,5.874,6.0105,6.0172,6.0953,0.0,0.0,0.0,0.0,0.0,0.0,0.0,0.0,0.0,0.0,0.0,0.0,0.0,0.0,0.0,0.0,0.0,0.0,0.0,0.0,0.0,0.0,0.0,0.0,0.0,0.0,0.0,0.0,4.2125,4.255,4.3144,0.0,0.0,0.0,0.0,0.0,0.0,0.0,0.0,0.0,0.0,4.7268,4.7861,4.7976,0.0,0.0,4.9206,5.0027,5.0602,5.2615,5.4419,5.5375,5.6738,0.0,0.0,0.0,0.0,0.0,0.0,0.0,0.0,0.0,0.0,0.0,0.0,0.0,0.0,0.0,0.0,0.0,0.0,0.0,0.0,0.0,0.0,0.0,0.0,0.0,0.0,0.0,0.0,0.0,0.0,0.0,0.0,0.0,0.0,0.0,0.0,0.0,0.0,0.0,0.0,0.0,0.0,0.0,0.0,0.0,0.0,0.0,0.0,0.0,0.0,0.0,0.0,5.6629,5.6506,5.5675,5.5495,5.6026,5.6802,5.7603,5.843,5.8582,5.9422,0.0,0.0,0.0,0.0,0.0,0.0,0.0,0.0,0.0,0.0,0.0,0.0,0.0,0.0,0.0,0.0,0.0,0.0,0.0,0.0,0.0,0.0,0.0,0.0,0.0,0.0,0.0,0.0,0.0,0.0,0.0,0.0,0.0,0.0,0.0,0.0,0.0,0.0,0.0,0.0,0.0,4.6475,4.6972,4.7052,4.7292,0.0,4.8177,4.8691,5.0023,5.1485,5.2937,5.4387,0.0,0.0,0.0,0.0,0.0,0.0,0.0,0.0,0.0,0.0,0.0,0.0,0.0,0.0,0.0,0.0,0.0,0.0,0.0,0.0,0.0,0.0,0.0,0.0,0.0,0.0,0.0,0.0,0.0,0.0,0.0,0.0,0.0,0.0,0.0,0.0,0.0,0.0,0.0,0.0,0.0,0.0,0.0,0.0,0.0,0.0,0.0,0.0,0.0,0.0,0.0,0.0,0.0,0.0,5.5824,5.5493,5.51,5.4642,5.5345,5.5858,5.6104,5.6308,0.0,0.0,0.0,0.0,0.0,0.0,0.0,0.0,0.0,0.0,0.0,0.0,0.0,0.0,0.0,0.0,0.0,0.0,0.0,0.0,0.0,0.0,0.0,0.0,0.0,0.0,0.0,3.9515,0.0,0.0,0.0,0.0,0.0,0.0,0.0,0.0,0.0,0.0,0.0,0.0,0.0,0.0,4.5063,4.5186,4.5186,4.5279,0.0,0.0,4.6553,4.7489,4.8753,5.0286,0.0,0.0,0.0,0.0,0.0,0.0,0.0,0.0,0.0,0.0,0.0,0.0,0.0,0.0,0.0,0.0,0.0,0.0,0.0,0.0,0.0,0.0,0.0,0.0,0.0,0.0,0.0,0.0,0.0,0.0,0.0,0.0,0.0,0.0,0.0,0.0,0.0,0.0,0.0,0.0,0.0,0.0,0.0,0.0,0.0,0.0,0.0,0.0,0.0,0.0,0.0,0.0,0.0,0.0,5.5712,5.5568,5.4925,5.4288,5.3766,5.4128,5.4394,5.4442,5.4916,5.5572,0.0,0.0,0.0,0.0,0.0,0.0,0.0,0.0,0.0,0.0,0.0,0.0,0.0,0.0,0.0,0.0,0.0,0.0,0.0,0.0,0.0,0.0,0.0,0.0,0.0,0.0,0.0,0.0,0.0,0.0,0.0,0.0,0.0,0.0,0.0,0.0,0.0,0.0,0.0,0.0,0.0,0.0,4.4449,4.426,0.0,0.0,0.0,4.5631,4.6062,0.0,0.0,0.0,0.0,0.0,0.0,0.0,0.0,0.0,0.0,0.0,0.0,0.0,0.0,0.0,0.0,0.0,0.0,0.0,0.0,0.0,0.0,0.0,0.0,0.0,0.0,0.0,0.0,0.0,0.0,0.0,0.0,0.0,0.0,0.0,0.0,0.0,0.0,0.0,0.0,0.0,0.0,0.0,0.0,0.0,0.0,0.0,0.0,0.0,0.0,0.0,0.0,0.0,0.0,0.0,0.0,0.0,5.5331,5.4085,5.3276,5.3051,5.3042,5.3047,5.3166,5.3879,5.4621,0.0,0.0,0.0,0.0,0.0,0.0,0.0,0.0,0.0,0.0,0.0,0.0,0.0,0.0,0.0,0.0,0.0,0.0,0.0,0.0,0.0,0.0,0.0,0.0,0.0,0.0,0.0,0.0,0.0,0.0,0.0,0.0,0.0,0.0,0.0,0.0,0.0,0.0,0.0,0.0,0.0,4.3175,4.4163,4.3896,4.3759,0.0,0.0,4.5399,4.5498,4.7021,0.0,0.0,0.0,0.0,0.0,0.0,0.0,0.0,0.0,0.0,0.0,0.0,0.0,0.0,0.0,0.0,0.0,0.0,0.0,0.0,0.0,0.0,0.0,0.0,0.0,0.0,0.0,0.0,0.0,0.0,0.0,0.0,0.0,0.0,0.0,0.0,0.0,0.0,0.0,0.0,0.0,0.0,0.0,0.0,0.0,0.0,0.0,0.0,0.0,0.0,0.0,0.0,0.0,0.0,0.0,0.0,5.4081,5.364,5.2761,5.1466,5.1503,5.1512,5.1456,5.1793,5.2385,0.0,0.0,0.0,0.0,0.0,0.0,0.0,0.0,0.0,0.0,0.0,0.0,0.0,0.0,0.0,0.0,0.0,0.0,0.0,0.0,0.0,0.0,0.0,0.0,0.0,0.0,0.0,0.0,0.0,0.0,0.0,0.0,0.0,0.0,0.0,0.0,0.0,0.0,0.0,0.0,0.0,4.2857,4.3065,4.337,0.0,0.0,0.0,0.0,4.5399,4.583,0.0,0.0,0.0,0.0,0.0,0.0,0.0,0.0,0.0,0.0,0.0,0.0,0.0,0.0,0.0,0.0,0.0,0.0,0.0,0.0,0.0,0.0,0.0,0.0,0.0,0.0,0.0,0.0,0.0,0.0,0.0,0.0,0.0,0.0,0.0,0.0,0.0,0.0,0.0,0.0,0.0,0.0,0.0,0.0,0.0,0.0,0.0,0.0,0.0,0.0,0.0,0.0,0.0,0.0,0.0,0.0,5.3666,5.2522,5.1519,5.0586,5.0253,5.0217,5.055,5.081,5.1642,0.0,0.0,0.0,0.0,0.0,0.0,0.0,0.0,0.0,0.0,0.0,0.0,0.0,0.0,0.0,0.0,0.0,0.0,0.0,0.0,0.0,0.0,0.0,0.0,0.0,0.0,0.0,0.0,0.0,0.0,0.0,0.0,0.0,0.0,0.0,0.0,0.0,0.0,0.0,0.0,4.2311,4.2123,4.2669,0.0,0.0,0.0,0.0,0.0,0.0,4.4843,4.5574,0.0,0.0,0.0,0.0,0.0,0.0,0.0,0.0,0.0,0.0,0.0,0.0,0.0,0.0,0.0,0.0,0.0,0.0,0.0,0.0,0.0,0.0,0.0,0.0,0.0,0.0,0.0,0.0,0.0,0.0,0.0,0.0,0.0,0.0,0.0,0.0,0.0,0.0,0.0,0.0,0.0,0.0,0.0,0.0,0.0,0.0,0.0,0.0,0.0,0.0,0.0,0.0,0.0,0.0,0.0,5.3127,5.1171,5.0115,4.9945,4.9214,4.916,4.996,5.021,5.1198,5.2817,0.0,0.0,0.0,0.0,0.0,0.0,0.0,0.0,0.0,0.0,0.0,0.0,0.0,0.0,0.0,0.0,0.0,0.0,0.0,0.0,0.0,0.0,0.0,0.0,0.0,0.0,0.0,0.0,0.0,0.0,0.0,0.0,0.0,0.0,0.0,0.0,0.0,0.0,0.0,4.163,4.137,0.0,0.0,0.0,0.0,0.0,0.0,0.0,0.0,4.455,0.0,0.0,0.0,0.0,0.0,0.0,0.0,0.0,0.0,0.0,0.0,0.0,0.0,0.0,0.0,0.0,0.0,0.0,0.0,0.0,0.0,0.0,0.0,0.0,0.0,0.0,0.0,0.0,0.0,0.0,0.0,0.0,0.0,0.0,0.0,0.0,0.0,0.0,0.0,0.0,0.0,0.0,0.0,0.0,0.0,0.0,0.0,0.0,0.0,0.0,0.0,0.0,0.0,0.0,0.0,0.0,4.9898,4.9305,4.9151,4.8391,4.8413,4.9318,4.9469,4.9712,5.0185,0.0,0.0,0.0,0.0,0.0,0.0,0.0,0.0,0.0,0.0,0.0,0.0,0.0,0.0,0.0,0.0,0.0,0.0,0.0,0.0,0.0,0.0,0.0,0.0,0.0,0.0,0.0,0.0,0.0,0.0,0.0,0.0,0.0,0.0,0.0,0.0,0.0,0.0,4.1261,4.1137,0.0,0.0,0.0,0.0,0.0,0.0,0.0,0.0,4.2947,0.0,0.0,0.0,0.0,0.0,0.0,0.0,0.0,0.0,0.0,0.0,0.0,0.0,0.0,0.0,0.0,0.0,0.0,0.0,0.0,0.0,0.0,0.0,0.0,0.0,0.0,0.0,0.0,0.0,0.0,0.0,0.0,0.0,0.0,0.0,0.0,0.0,0.0,0.0,0.0,0.0,0.0,0.0,0.0,0.0,0.0,0.0,0.0,0.0,0.0,0.0,0.0,0.0,0.0,0.0,0.0,0.0,0.0,4.8643,4.853,4.7838,4.7787,4.863,4.8114,4.8063,0.0,0.0,0.0,0.0,0.0,0.0,0.0,0.0,0.0,0.0,0.0,0.0,0.0,0.0,0.0,0.0,0.0,0.0,0.0,0.0,0.0,0.0,0.0,0.0,0.0,0.0,0.0,0.0,0.0,0.0,0.0,0.0,0.0,0.0,0.0,0.0,0.0,0.0,0.0,0.0,0.0,0.0,0.0,0.0,0.0,0.0,0.0,0.0,0.0,0.0,0.0,0.0,0.0,0.0,0.0,0.0,0.0,0.0,0.0,0.0,0.0,0.0,0.0,0.0,0.0,0.0,0.0,0.0,0.0,0.0,0.0,0.0,0.0,0.0,0.0,0.0,0.0,0.0,0.0,0.0,0.0,0.0,0.0,0.0,0.0,0.0,0.0,0.0,0.0,0.0,0.0,0.0,0.0,0.0,0.0,0.0,0.0,0.0,0.0,0.0,0.0,0.0,0.0,0.0,0.0,0.0,0.0,0.0,4.7816,4.7743,4.7166,4.7183,4.7793,4.6683,4.6508,0.0,0.0,0.0,0.0,0.0,0.0,0.0,0.0,0.0,0.0,0.0,0.0,0.0,0.0,0.0,0.0,0.0,0.0,0.0,0.0,0.0,0.0,0.0,0.0,0.0,0.0,0.0,0.0,0.0,0.0,0.0,0.0,0.0,0.0,0.0,0.0,0.0,0.0,0.0,0.0,0.0,0.0,0.0,0.0,0.0,0.0,0.0,0.0,4.1692,0.0,0.0,0.0,0.0,0.0,0.0,0.0,0.0,0.0,0.0,0.0,0.0,0.0,0.0,0.0,0.0,0.0,0.0,0.0,0.0,0.0,0.0,0.0,0.0,0.0,0.0,0.0,0.0,0.0,0.0,0.0,0.0,0.0,0.0,0.0,0.0,0.0,0.0,0.0,0.0,0.0,0.0,0.0,0.0,0.0,0.0,0.0,0.0,0.0,0.0,0.0,0.0,0.0,0.0,0.0,0.0,0.0,0.0,0.0,4.6604,4.6452,4.6383,4.6432,4.6596,4.5485,4.521,0.0,0.0,0.0,0.0,0.0,0.0,0.0,0.0,0.0,0.0,0.0,0.0,0.0,0.0,0.0,0.0,0.0,0.0,0.0,0.0,0.0,0.0,0.0,0.0,0.0,0.0,0.0,0.0,0.0,0.0,0.0,0.0,0.0,0.0,0.0,0.0,0.0,0.0,0.0,0.0,0.0,0.0,0.0,0.0,0.0,0.0,0.0,0.0,0.0,0.0,0.0,0.0,0.0,0.0,0.0,0.0,0.0,0.0,0.0,0.0,0.0,0.0,0.0,0.0,0.0,0.0,0.0,0.0,0.0,0.0,0.0,0.0,0.0,0.0,0.0,0.0,0.0,0.0,0.0,0.0,0.0,0.0,0.0,0.0,0.0,0.0,0.0,0.0,0.0,0.0,0.0,0.0,0.0,0.0,0.0,0.0,0.0,0.0,0.0,0.0,0.0,0.0,0.0,0.0,0.0,0.0,0.0,0.0,4.6169,4.5741,4.5707,4.5592,4.5361,4.4481,4.4391,0.0,0.0,0.0,0.0,0.0,0.0,0.0,0.0,0.0,0.0,0.0,0.0,0.0,0.0,0.0,0.0,0.0,0.0,0.0,0.0,0.0,0.0,0.0,0.0,0.0,0.0,0.0,0.0,0.0,0.0,0.0,0.0,0.0,0.0,0.0,0.0,0.0,0.0,0.0,0.0,0.0,0.0,0.0,0.0,0.0,0.0,0.0,0.0,0.0,0.0,0.0,0.0,0.0,0.0,0.0,0.0,0.0,0.0,0.0,0.0,0.0,0.0,0.0,0.0,0.0,0.0,0.0,0.0,0.0,0.0,0.0,0.0,0.0,0.0,0.0,0.0,0.0,0.0,0.0,0.0,0.0,0.0,0.0,0.0,0.0,0.0,0.0,0.0,0.0,0.0,0.0,0.0,0.0,0.0,0.0,0.0,0.0,0.0,0.0,0.0,0.0,0.0,0.0,0.0,0.0,0.0,0.0,0.0,0.0,4.511,4.5076,4.4824,4.426,4.3656,4.3633,0.0,0.0,0.0,0.0,0.0,0.0,0.0,0.0,0.0,0.0,0.0,0.0,0.0,0.0,0.0,0.0,0.0,0.0,0.0,0.0,0.0,0.0,0.0,0.0,0.0,0.0,0.0,0.0,0.0,0.0,0.0,0.0,0.0,0.0,0.0,0.0,0.0,0.0,0.0,0.0,0.0,0.0,0.0,0.0,0.0,0.0,0.0,0.0,0.0,0.0,0.0,0.0,0.0,0.0,0.0,0.0,0.0,0.0,0.0,0.0,0.0,0.0,0.0,0.0,0.0,0.0,0.0,0.0,0.0,0.0,0.0,0.0,0.0,0.0,0.0,0.0,0.0,0.0,0.0,0.0,0.0,0.0,0.0,0.0,0.0,0.0,0.0,0.0,0.0,0.0,0.0,0.0,0.0,0.0,0.0,0.0,0.0,0.0,0.0,0.0,0.0,0.0,0.0,0.0,0.0,0.0,0.0,0.0,0.0,4.4553,4.4553,4.426,4.3623,4.3117,4.2863,0.0,0.0,0.0,0.0,0.0,0.0,0.0,0.0,0.0,0.0,0.0,0.0,0.0,0.0,0.0,0.0,0.0,0.0,0.0,0.0,0.0,0.0,0.0,0.0,0.0,0.0,0.0,0.0,0.0,0.0,0.0,0.0,0.0,0.0,0.0,0.0,0.0,0.0,0.0,0.0,0.0,0.0,0.0,0.0,0.0,0.0,0.0,0.0,0.0,0.0,0.0,0.0,0.0,0.0,0.0,0.0,0.0,0.0,0.0,0.0,0.0,0.0,0.0,0.0,0.0,0.0,0.0,0.0,0.0,0.0,0.0,0.0,0.0,0.0,0.0,0.0,0.0,0.0,0.0,0.0,0.0,0.0,0.0,0.0,0.0,0.0,0.0,0.0,0.0,0.0,0.0,0.0,0.0,0.0,0.0,0.0,0.0,0.0,0.0,0.0,0.0,0.0,0.0,0.0,0.0,0.0,0.0,0.0,0.0,4.4501,4.4501,4.4208,4.3571,4.3065,4.2811,4.295,0.0,0.0,0.0,0.0,0.0,0.0,0.0,0.0,0.0,0.0,0.0,0.0,0.0,0.0,0.0,0.0,0.0,0.0,0.0,0.0,0.0,0.0,0.0,0.0,0.0,0.0,0.0,0.0,0.0,0.0,0.0,0.0,0.0,0.0,0.0,0.0,0.0,0.0,0.0,0.0,0.0,0.0,0.0,0.0,0.0,0.0,0.0,0.0,0.0,0.0,0.0,0.0,0.0,0.0,0.0,0.0,0.0,0.0,0.0,0.0,0.0,0.0,0.0,0.0,0.0,0.0,0.0,0.0,0.0,0.0,0.0,0.0,0.0,0.0,0.0,0.0,0.0,0.0,0.0,0.0,0.0,0.0,0.0,0.0,0.0,0.0,0.0,0.0,0.0,0.0,0.0,0.0,0.0,0.0,0.0,0.0,0.0,0.0,0.0,0.0,0.0,0.0,0.0,0.0,0.0,0.0,0.0,0.0,4.4182,4.4208,4.3922,4.3318,4.2805,4.2454,0.0,0.0,0.0,0.0,0.0,0.0,0.0,0.0,0.0,0.0,0.0,0.0,0.0,0.0,0.0,0.0,0.0,0.0,0.0,0.0,0.0,0.0,0.0,0.0,0.0,0.0,0.0,0.0,0.0,0.0,0.0,0.0,0.0,0.0,0.0,0.0,0.0,0.0,0.0,0.0,0.0,0.0,0.0,0.0,0.0,0.0,0.0,0.0,0.0,0.0,0.0,0.0,0.0,0.0,0.0,0.0,0.0,0.0,0.0,0.0,0.0,0.0,0.0,0.0,0.0,0.0,0.0,0.0,0.0,0.0,0.0,0.0,0.0,0.0,0.0,0.0,0.0,0.0,0.0,0.0,0.0,0.0,0.0,0.0,0.0,0.0,0.0,0.0,0.0,0.0,0.0,0.0,0.0,0.0,0.0,0.0,0.0,0.0,0.0,0.0,0.0,0.0,0.0,0.0,0.0,0.0,0.0,0.0,4.2551,4.3493,4.3604,4.3344,4.2747,4.2291,4.1718,0.0,0.0,0.0,0.0,0.0,0.0,0.0,0.0,0.0,0.0,0.0,0.0,0.0,0.0,0.0,0.0,0.0,0.0,0.0,0.0,0.0,0.0,0.0,0.0,0.0,0.0,0.0,0.0,0.0,0.0,0.0,0.0,0.0,0.0,0.0,0.0,0.0,0.0,0.0,0.0,0.0,0.0,0.0,0.0,0.0,0.0,0.0,0.0,0.0,0.0,0.0,0.0,0.0,0.0,0.0,0.0,0.0,0.0,0.0,0.0,0.0,0.0,0.0,0.0,0.0,0.0,0.0,0.0,0.0,0.0,0.0,0.0,0.0,0.0,0.0,0.0,0.0,0.0,0.0,0.0,0.0,0.0,0.0,0.0,0.0,0.0,0.0,0.0,0.0,0.0,0.0,0.0,0.0,0.0,0.0,0.0,0.0,0.0,0.0,0.0,0.0,0.0,0.0,0.0,0.0,0.0,0.0,0.0,0.0,4.298,0.0,4.311,0.0,4.2056,4.1692,0.0,0.0,0.0,0.0,0.0,0.0,0.0,0.0,0.0,0.0,0.0,0.0,0.0,0.0,0.0,0.0,0.0,0.0,0.0,0.0,0.0,0.0,0.0,0.0,0.0,0.0,0.0,0.0,0.0,0.0,0.0,0.0,0.0,0.0,0.0,0.0,0.0,0.0,0.0,0.0,0.0,0.0,0.0,0.0,0.0,0.0,0.0,0.0,0.0,0.0,0.0,0.0,0.0,0.0,0.0,0.0,0.0,0.0,0.0,0.0,0.0,0.0,0.0,0.0,0.0,0.0,0.0,0.0,0.0,0.0,0.0,0.0,0.0,0.0,0.0,0.0,0.0,0.0,0.0,0.0,0.0,0.0,0.0,0.0,0.0,0.0,0.0,0.0,0.0,0.0,0.0,0.0,0.0,0.0,0.0,0.0,0.0,0.0,0.0,0.0,0.0,0.0,0.0,0.0,0.0,0.0,0.0,0.0,0.0,4.2441,4.2805,4.2649,4.2036,4.1744,4.1453,0.0,0.0,0.0,0.0,0.0,0.0,0.0,0.0,0.0,0.0,0.0,0.0,0.0,0.0,0.0,0.0,0.0,0.0,0.0,0.0,0.0,0.0,0.0,0.0,0.0,0.0,0.0,0.0,0.0,0.0,0.0,0.0,0.0,0.0,0.0,0.0,0.0,0.0,0.0,0.0,0.0,0.0,0.0,0.0,0.0,0.0,0.0,0.0,0.0,0.0,0.0,0.0,0.0,0.0,0.0,0.0,0.0,0.0,0.0,0.0,0.0,0.0,0.0,0.0,0.0,0.0,0.0,0.0,0.0,0.0,0.0,0.0,0.0,0.0,0.0,0.0,0.0,0.0,0.0,0.0,0.0,0.0,0.0,0.0,0.0,0.0,0.0,0.0,0.0,0.0,0.0,0.0,0.0,0.0,0.0,0.0,0.0,0.0,0.0,0.0,0.0,0.0,0.0,0.0,0.0,0.0,0.0,0.0,0.0,4.1984,4.1984,4.1958,4.2015,4.1375,4.1002,0.0,0.0,0.0,0.0,0.0,0.0,0.0,0.0,0.0,0.0,0.0,0.0,0.0,0.0,0.0,0.0,0.0,0.0,0.0,0.0,0.0,0.0,0.0,0.0,0.0,0.0,0.0,0.0,0.0,0.0,0.0,0.0,0.0,0.0,0.0,0.0,0.0,0.0,0.0,0.0,0.0,0.0,0.0,0.0,0.0,0.0,0.0,0.0,0.0,0.0,0.0,0.0,0.0,0.0,0.0,0.0,0.0,0.0,0.0,0.0,0.0,0.0,0.0,0.0,0.0,0.0,0.0,0.0,0.0,0.0,0.0,0.0,0.0,0.0,0.0,0.0,0.0,0.0,0.0,0.0,0.0,0.0,0.0,0.0,0.0,0.0,0.0,0.0,0.0,0.0,0.0,0.0,0.0,0.0,0.0,0.0,0.0,0.0,0.0,0.0,0.0,0.0,0.0,0.0,0.0,0.0,0.0,0.0,0.0,0.0,4.1505,4.1505,4.1932,4.1344,4.1002,4.1002,0.0,0.0,0.0,0.0,0.0,0.0,0.0,0.0,0.0,0.0,0.0,0.0,0.0,0.0,0.0,0.0,0.0,0.0,0.0,0.0,0.0,0.0,0.0,0.0,0.0,0.0,0.0,0.0,0.0,0.0,0.0,0.0,0.0,0.0,0.0,0.0,0.0,0.0,0.0,0.0,0.0,0.0,0.0,0.0,0.0,0.0,0.0,0.0,0.0,0.0,0.0,0.0,0.0,0.0,0.0,0.0,0.0,0.0,0.0,0.0,0.0,0.0,0.0,0.0,0.0,0.0,0.0,0.0,0.0,0.0,0.0,0.0,0.0,0.0,0.0,0.0,0.0,0.0,0.0,0.0,0.0,0.0,0.0,0.0,0.0,0.0,0.0,0.0,0.0,0.0,0.0,0.0,0.0,0.0,0.0,0.0,0.0,0.0,0.0,0.0,0.0,0.0,0.0,0.0,0.0,0.0,0.0,0.0,0.0,0.0,4.1188,4.1557,4.1214,4.1002,0.0,0.0,0.0,0.0,0.0,0.0,0.0,0.0,0.0,0.0,0.0,0.0,0.0,0.0,0.0,0.0,0.0,0.0,0.0,0.0,0.0,0.0,0.0,0.0,0.0,0.0,0.0,0.0,0.0,0.0,0.0,0.0,0.0,0.0,0.0,0.0,0.0,0.0,0.0,0.0,0.0,0.0,0.0,0.0,0.0,0.0,0.0,0.0,0.0,0.0,0.0,0.0,0.0,0.0,0.0,0.0,0.0,0.0,0.0,0.0,0.0,0.0,0.0,0.0,0.0,0.0,0.0,0.0,0.0,0.0,0.0,0.0,0.0,0.0,0.0,0.0,0.0,0.0,0.0,0.0,0.0,0.0,0.0,0.0,0.0,0.0,0.0,0.0,0.0,0.0,0.0,0.0,0.0,0.0,0.0,0.0,0.0,0.0,0.0,0.0,0.0,0.0,0.0,0.0,0.0,0.0,0.0,0.0,0.0,0.0,0.0,4.1002,4.1002,4.1002,0.0,4.0924,0.0,0.0,0.0,0.0,0.0,0.0,0.0,0.0,0.0,0.0,0.0,0.0,0.0,0.0,0.0,0.0,0.0,0.0,0.0,0.0,0.0,0.0,0.0,0.0,0.0,0.0,0.0,0.0,0.0,0.0,0.0,0.0,0.0,0.0,0.0,0.0,0.0,0.0,0.0,0.0,0.0,0.0,0.0,0.0,0.0,0.0,0.0,0.0,0.0,0.0,0.0,0.0,0.0,0.0,0.0,0.0,0.0,0.0,0.0,0.0,0.0,0.0,0.0,0.0,0.0,0.0,0.0,0.0,0.0,0.0,0.0,0.0,0.0,0.0,0.0,0.0,0.0,0.0,0.0,0.0,0.0,0.0,0.0,0.0,0.0,0.0,0.0,0.0,0.0,0.0,0.0,0.0,0.0,0.0,0.0,0.0,0.0,0.0,0.0,0.0,0.0,0.0,0.0,0.0,0.0,0.0,0.0,0.0,0.0,0.0,0.0,0.0,4.1002,4.1002,4.0976,0.0,0.0,0.0,0.0,0.0,0.0,0.0,0.0,0.0,0.0,0.0,0.0,0.0,0.0,0.0,0.0,0.0,0.0,0.0,0.0,0.0,0.0,0.0,0.0,0.0,0.0,0.0,0.0,0.0,0.0,0.0,0.0,0.0,0.0,0.0,0.0,0.0,0.0,0.0,0.0,0.0,0.0,0.0,0.0,0.0,0.0,0.0,0.0,0.0,0.0,0.0,0.0,0.0,0.0,0.0,0.0,0.0,0.0,0.0,0.0,0.0,0.0,0.0,0.0,0.0,0.0,0.0,0.0,0.0,0.0,0.0,0.0,0.0,0.0,0.0,0.0,0.0,0.0,0.0,0.0,0.0,0.0,0.0,0.0,0.0,0.0,0.0,0.0,0.0,0.0,0.0,0.0,0.0,0.0,0.0,0.0,0.0,0.0,0.0,0.0,0.0,0.0,0.0,0.0,0.0,0.0,0.0,0.0,0.0,0.0,4.1002,4.1002,4.1002,4.1002,4.0976,0.0,0.0,0.0,0.0,0.0,0.0,0.0,0.0,0.0,0.0,0.0,0.0,0.0,0.0,0.0,0.0,0.0,0.0,0.0,0.0,0.0,0.0,0.0,0.0,0.0,0.0,0.0,0.0,0.0,0.0,0.0,0.0,0.0,0.0,0.0,0.0,0.0,0.0,0.0,0.0,0.0,0.0,0.0,0.0,0.0,0.0,0.0,0.0,0.0,0.0,0.0,0.0,0.0,0.0,0.0,0.0,0.0,0.0,0.0,0.0,0.0,0.0,0.0,0.0,0.0,0.0,0.0,0.0,0.0,0.0,0.0,0.0,0.0,0.0,0.0,0.0,0.0,0.0,0.0,0.0,0.0,0.0,0.0,0.0,0.0,0.0,0.0,0.0,0.0,0.0,0.0,0.0,0.0,0.0,0.0,0.0,0.0,0.0,0.0,0.0,0.0,0.0,0.0,0.0,0.0,0.0,0.0,0.0,0.0,0.0,0.0,0.0,0.0,0.0,4.0872,0.0,0.0,0.0,0.0,0.0,0.0,0.0,0.0,0.0,0.0,0.0,0.0,0.0,0.0,0.0,0.0,0.0,0.0,0.0,0.0,0.0,0.0,0.0,0.0,0.0,0.0,0.0,0.0,0.0,0.0,0.0,0.0,0.0,0.0,0.0,0.0,0.0,0.0,0.0,0.0,0.0,0.0,0.0,0.0,0.0,0.0,0.0,0.0,0.0,0.0,0.0,0.0,0.0,0.0,0.0,0.0,0.0,0.0,0.0,0.0,0.0,0.0,0.0,0.0,0.0,0.0,0.0,0.0,0.0,0.0,0.0,0.0,0.0,0.0,0.0,0.0,0.0,0.0,0.0,0.0,0.0,0.0,0.0,0.0,0.0,0.0,0.0,0.0,0.0,0.0,0.0,0.0,0.0,0.0,0.0,0.0,0.0,0.0,0.0,0.0,0.0,0.0,0.0,0.0,0.0,0.0,0.0,0.0,0.0,0.0,0.0,0.0,0.0,0.0,0.0,0.0,0.0,0.0,0.0,0.0,0.0,0.0,0.0,0.0,0.0,0.0,0.0,0.0,0.0,0.0,0.0,0.0,0.0,0.0,0.0,0.0,0.0,0.0,0.0,0.0,0.0,0.0,0.0,0.0,0.0,0.0,0.0,0.0,0.0,0.0,0.0,0.0,0.0,0.0,0.0,0.0,0.0,0.0,0.0,0.0,0.0,0.0,0.0,0.0,0.0,0.0,0.0,0.0,0.0,0.0,0.0,0.0,0.0,0.0,0.0,0.0,0.0,0.0,0.0,0.0,0.0,0.0,0.0,0.0,0.0,0.0,0.0,0.0,0.0,0.0,0.0,0.0,0.0,0.0,0.0,0.0,0.0,0.0,0.0,0.0,0.0,0.0,0.0,0.0,0.0,0.0,0.0,0.0,0.0,0.0,0.0,0.0,0.0,0.0,0.0,0.0,0.0,0.0,0.0,0.0,0.0,0.0,0.0,0.0,0.0,0.0,0.0,0.0,0.0,0.0,0.0,0.0,0.0,0.0,0.0,0.0,0.0,0.0,0.0,0.0,0.0,0.0,0.0,0.0,0.0,0.0,0.0,0.0,0.0,0.0,0.0,0.0,0.0,0.0,0.0,0.0,0.0,0.0,0.0,0.0,0.0,0.0,0.0,0.0,0.0,0.0,0.0,0.0,0.0,0.0,0.0,0.0,0.0,0.0,0.0,0.0,0.0,0.0,0.0,0.0,0.0,0.0,0.0,0.0,0.0,0.0,0.0,0.0,0.0,0.0,0.0,0.0,0.0,0.0,0.0,0.0,0.0,0.0,0.0,0.0,0.0,0.0,0.0,0.0,0.0,0.0,0.0,0.0,0.0,0.0,0.0,0.0,0.0,0.0,0.0,0.0,0.0,0.0,0.0,0.0,0.0,0.0,0.0,0.0,0.0,0.0,0.0,0.0,0.0,0.0,0.0,0.0,0.0,0.0,0.0,0.0,0.0,0.0,0.0,0.0,0.0,0.0,0.0,0.0,0.0,0.0,0.0,0.0,0.0,0.0,0.0,0.0,0.0,0.0,0.0,0.0,0.0,0.0,0.0,0.0,0.0,0.0,0.0,0.0,0.0,0.0,0.0,0.0,0.0,0.0,0.0,0.0,0.0,0.0,0.0,0.0,0.0,0.0,0.0,0.0,0.0,0.0,0.0,0.0,0.0,0.0,0.0,0.0,0.0,0.0,0.0,0.0,0.0,0.0,0.0,0.0,0.0,0.0,0.0,0.0,0.0,0.0,0.0,0.0,0.0,0.0,0.0,0.0,0.0,0.0,0.0,0.0,0.0,0.0,0.0,0.0,0.0,0.0,0.0,0.0,0.0,0.0,0.0,0.0,0.0,0.0,0.0,0.0,0.0,0.0,0.0,0.0,0.0,0.0,0.0,0.0,0.0,0.0,0.0,0.0,0.0,0.0,0.0,0.0,0.0,0.0,0.0,0.0,0.0,0.0,0.0,0.0,0.0,0.0,0.0,0.0,0.0,0.0,0.0,0.0,0.0,0.0,0.0,0.0,0.0,0.0,0.0,0.0,0.0,0.0,0.0,0.0,0.0,0.0,0.0,0.0,0.0,0.0,0.0,0.0,0.0,0.0,0.0,0.0,0.0,0.0,0.0,0.0,0.0,0.0,0.0,0.0,0.0,0.0,0.0,0.0,0.0,0.0,0.0,0.0,0.0,0.0,0.0,0.0,0.0,0.0,0.0,0.0,0.0,0.0,0.0,0.0,0.0,0.0,0.0,0.0,0.0,0.0,0.0,0.0,0.0,0.0,0.0,0.0,0.0,0.0,0.0,0.0,0.0,0.0,0.0,0.0,0.0,0.0,0.0,0.0,0.0,0.0,0.0,0.0,0.0,0.0,0.0,0.0,0.0,0.0,0.0,0.0,0.0,0.0,0.0,0.0,0.0,0.0,0.0,0.0,0.0,0.0,0.0,0.0,0.0,0.0,0.0,0.0,0.0,0.0,0.0,0.0,0.0,0.0,0.0,0.0,0.0,0.0,0.0,0.0,0.0,0.0,0.0,0.0,0.0,0.0,0.0,0.0,0.0,0.0,0.0,0.0,0.0,0.0,0.0,0.0,0.0,0.0,0.0,0.0,0.0,0.0,0.0,0.0,0.0,0.0,0.0,0.0,0.0,0.0,0.0,0.0,0.0,0.0,0.0,0.0,0.0,0.0,0.0,0.0,0.0,0.0,0.0,0.0,0.0,0.0,0.0,0.0,0.0,0.0,0.0,0.0,0.0,0.0,0.0,0.0,0.0,0.0,0.0,0.0,0.0,0.0,0.0,0.0,0.0,0.0,0.0,0.0,0.0,0.0,0.0,0.0,0.0,0.0,0.0,0.0,0.0,0.0,0.0,0.0,0.0,0.0,0.0,0.0,0.0,0.0,0.0,0.0,0.0,0.0,0.0,0.0,0.0,0.0,0.0,0.0,0.0,0.0,0.0,0.0,0.0,0.0,0.0,0.0,0.0,0.0,0.0,0.0,0.0,0.0,0.0,0.0,0.0,0.0,0.0,0.0,0.0,0.0,0.0,0.0,0.0,0.0,0.0,0.0,0.0,0.0,0.0,0.0,0.0,0.0,0.0,0.0,0.0,0.0,0.0,0.0,0.0,0.0,0.0,0.0,0.0,0.0,0.0,0.0,0.0,0.0,0.0,0.0,0.0,0.0,0.0,0.0,0.0,0.0,0.0,0.0,0.0,0.0,0.0,0.0,0.0,0.0,0.0,0.0,0.0,0.0,0.0,0.0,0.0,0.0,0.0,0.0,0.0,0.0,0.0,0.0,0.0,0.0,0.0,0.0,0.0,0.0,0.0,0.0,0.0,0.0,0.0,0.0,0.0,0.0,0.0,0.0,0.0,0.0,0.0,0.0,0.0,0.0,0.0,0.0,0.0,0.0,0.0,0.0,0.0,0.0,0.0,0.0,0.0,0.0,0.0,0.0,0.0,0.0,0.0,0.0,0.0,0.0,0.0,0.0,0.0,0.0,0.0,0.0,0.0,0.0,0.0,0.0,0.0,0.0,0.0,0.0,0.0,0.0,0.0,0.0,0.0,0.0,0.0,0.0,0.0,0.0,0.0,0.0,0.0,0.0,0.0,0.0,0.0,0.0,0.0,0.0,0.0,0.0,0.0,0.0,0.0,0.0,0.0,0.0,0.0,0.0,0.0,0.0,0.0,0.0,0.0,0.0,0.0,0.0,0.0,0.0,0.0,0.0,0.0,0.0,0.0,0.0,0.0,0.0,0.0,0.0,0.0,0.0,0.0,0.0,0.0,0.0,0.0,0.0,0.0,0.0,0.0,0.0,0.0,0.0,0.0,0.0,0.0,0.0,0.0,0.0,0.0,0.0,0.0,0.0,0.0,0.0,0.0,0.0,0.0,0.0,0.0,0.0,0.0,0.0,0.0,0.0,0.0,0.0,0.0,0.0,0.0,0.0,0.0,0.0,0.0,0.0,0.0,0.0,0.0,0.0,0.0,0.0,0.0,0.0,0.0,0.0,0.0,0.0,0.0,0.0,0.0,0.0,0.0,0.0,0.0,0.0,0.0,0.0,0.0,0.0,0.0,0.0,0.0,0.0,0.0,0.0,0.0,0.0,0.0,0.0,0.0,0.0,0.0,0.0,0.0,0.0,0.0,0.0,0.0,0.0,0.0,0.0,0.0,0.0,0.0,0.0,0.0,0.0,0.0,0.0,0.0,0.0,0.0,0.0,0.0,0.0,0.0,0.0,0.0,0.0,0.0,0.0,0.0,0.0,0.0,0.0,0.0,0.0,0.0,0.0,0.0,0.0,0.0,0.0,0.0,0.0,0.0,0.0,0.0,0.0]}]]]